<?xml version='1.0' encoding='UTF-8'?>
<gpx version="1.1" creator="https://www.komoot.de" xmlns="http://www.topografix.com/GPX/1/1" xmlns:xsi="http://www.w3.org/2001/XMLSchema-instance" xsi:schemaLocation="http://www.topografix.com/GPX/1/1 http://www.topografix.com/GPX/1/1/gpx.xsd">
  <metadata>
    <name>77_1080SegetenWehr</name>
    <author>
      <link href="https://www.komoot.de">
        <text>komoot</text>
        <type>text/html</type>
      </link>
    </author>
  </metadata>
  <trk>
    <name>77_1080SegetenWehr</name>
    <trkseg>
      <trkpt lat="47.541392" lon="7.870806">
        <ele>341.090891</ele>
        <time>2021-11-21T13:29:09.182Z</time>
      </trkpt>
      <trkpt lat="47.541410" lon="7.870791">
        <ele>341.090891</ele>
        <time>2021-11-21T13:29:09.466Z</time>
      </trkpt>
      <trkpt lat="47.541576" lon="7.870664">
        <ele>341.090891</ele>
        <time>2021-11-21T13:29:13.609Z</time>
      </trkpt>
      <trkpt lat="47.541796" lon="7.871042">
        <ele>341.090891</ele>
        <time>2021-11-21T13:29:20.711Z</time>
      </trkpt>
      <trkpt lat="47.541953" lon="7.871286">
        <ele>341.090891</ele>
        <time>2021-11-21T13:29:25.533Z</time>
      </trkpt>
      <trkpt lat="47.542039" lon="7.871556">
        <ele>341.375904</ele>
        <time>2021-11-21T13:29:29.917Z</time>
      </trkpt>
      <trkpt lat="47.542067" lon="7.871664">
        <ele>341.676039</ele>
        <time>2021-11-21T13:29:31.607Z</time>
      </trkpt>
      <trkpt lat="47.542091" lon="7.871721">
        <ele>341.850319</ele>
        <time>2021-11-21T13:29:32.197Z</time>
      </trkpt>
      <trkpt lat="47.542218" lon="7.871866">
        <ele>342.466533</ele>
        <time>2021-11-21T13:29:37.300Z</time>
      </trkpt>
      <trkpt lat="47.542394" lon="7.872341">
        <ele>343.872235</ele>
        <time>2021-11-21T13:29:47.352Z</time>
      </trkpt>
      <trkpt lat="47.542436" lon="7.872494">
        <ele>344.300721</ele>
        <time>2021-11-21T13:29:50.743Z</time>
      </trkpt>
      <trkpt lat="47.542537" lon="7.872430">
        <ele>344.722893</ele>
        <time>2021-11-21T13:29:52.855Z</time>
      </trkpt>
      <trkpt lat="47.542714" lon="7.872334">
        <ele>345.447278</ele>
        <time>2021-11-21T13:29:59.812Z</time>
      </trkpt>
      <trkpt lat="47.542814" lon="7.872280">
        <ele>345.856324</ele>
        <time>2021-11-21T13:30:02.825Z</time>
      </trkpt>
      <trkpt lat="47.542919" lon="7.872226">
        <ele>346.283474</ele>
        <time>2021-11-21T13:30:06.664Z</time>
      </trkpt>
      <trkpt lat="47.543013" lon="7.872182">
        <ele>346.662330</ele>
        <time>2021-11-21T13:30:10.170Z</time>
      </trkpt>
      <trkpt lat="47.543233" lon="7.872082">
        <ele>347.546716</ele>
        <time>2021-11-21T13:30:17.409Z</time>
      </trkpt>
      <trkpt lat="47.543251" lon="7.872152">
        <ele>347.741040</ele>
        <time>2021-11-21T13:30:20.783Z</time>
      </trkpt>
      <trkpt lat="47.543332" lon="7.872237">
        <ele>348.202641</ele>
        <time>2021-11-21T13:30:24.088Z</time>
      </trkpt>
      <trkpt lat="47.544390" lon="7.872423">
        <ele>355.047728</ele>
        <time>2021-11-21T13:31:05.807Z</time>
      </trkpt>
      <trkpt lat="47.544883" lon="7.872555">
        <ele>358.266447</ele>
        <time>2021-11-21T13:31:28.216Z</time>
      </trkpt>
      <trkpt lat="47.545131" lon="7.872664">
        <ele>359.935323</ele>
        <time>2021-11-21T13:31:39.220Z</time>
      </trkpt>
      <trkpt lat="47.545375" lon="7.872836">
        <ele>361.703783</ele>
        <time>2021-11-21T13:31:50.161Z</time>
      </trkpt>
      <trkpt lat="47.545478" lon="7.872968">
        <ele>362.595108</ele>
        <time>2021-11-21T13:31:56.969Z</time>
      </trkpt>
      <trkpt lat="47.545515" lon="7.873015">
        <ele>362.914088</ele>
        <time>2021-11-21T13:31:58.925Z</time>
      </trkpt>
      <trkpt lat="47.545746" lon="7.873302">
        <ele>364.887181</ele>
        <time>2021-11-21T13:32:12.125Z</time>
      </trkpt>
      <trkpt lat="47.545934" lon="7.873549">
        <ele>366.531721</ele>
        <time>2021-11-21T13:32:22.225Z</time>
      </trkpt>
      <trkpt lat="47.546077" lon="7.873763">
        <ele>367.861992</ele>
        <time>2021-11-21T13:32:31.421Z</time>
      </trkpt>
      <trkpt lat="47.546135" lon="7.873859">
        <ele>368.431153</ele>
        <time>2021-11-21T13:32:34.660Z</time>
      </trkpt>
      <trkpt lat="47.546309" lon="7.874154">
        <ele>370.161797</ele>
        <time>2021-11-21T13:32:45.775Z</time>
      </trkpt>
      <trkpt lat="47.547126" lon="7.875801">
        <ele>375.850813</ele>
        <time>2021-11-21T13:33:31.536Z</time>
      </trkpt>
      <trkpt lat="47.547574" lon="7.876801">
        <ele>377.915859</ele>
        <time>2021-11-21T13:33:50.532Z</time>
      </trkpt>
      <trkpt lat="47.547992" lon="7.877974">
        <ele>377.140378</ele>
        <time>2021-11-21T13:34:03.333Z</time>
      </trkpt>
      <trkpt lat="47.548234" lon="7.878638">
        <ele>376.699208</ele>
        <time>2021-11-21T13:34:08.645Z</time>
      </trkpt>
      <trkpt lat="47.548422" lon="7.878959">
        <ele>376.102546</ele>
        <time>2021-11-21T13:34:11.487Z</time>
      </trkpt>
      <trkpt lat="47.548718" lon="7.879258">
        <ele>374.608637</ele>
        <time>2021-11-21T13:34:15.026Z</time>
      </trkpt>
      <trkpt lat="47.549140" lon="7.879391">
        <ele>372.809529</ele>
        <time>2021-11-21T13:34:19.213Z</time>
      </trkpt>
      <trkpt lat="47.549318" lon="7.879398">
        <ele>372.067010</ele>
        <time>2021-11-21T13:34:20.840Z</time>
      </trkpt>
      <trkpt lat="47.549327" lon="7.879547">
        <ele>371.645966</ele>
        <time>2021-11-21T13:34:21.826Z</time>
      </trkpt>
      <trkpt lat="47.549726" lon="7.880786">
        <ele>367.954760</ele>
        <time>2021-11-21T13:34:30.760Z</time>
      </trkpt>
      <trkpt lat="47.549927" lon="7.881490">
        <ele>366.098161</ele>
        <time>2021-11-21T13:34:35.792Z</time>
      </trkpt>
      <trkpt lat="47.550234" lon="7.883221">
        <ele>361.590681</ele>
        <time>2021-11-21T13:34:48.193Z</time>
      </trkpt>
      <trkpt lat="47.550332" lon="7.884727">
        <ele>357.195187</ele>
        <time>2021-11-21T13:34:58.037Z</time>
      </trkpt>
      <trkpt lat="47.550391" lon="7.885109">
        <ele>356.056723</ele>
        <time>2021-11-21T13:35:00.570Z</time>
      </trkpt>
      <trkpt lat="47.550548" lon="7.885799">
        <ele>353.659626</ele>
        <time>2021-11-21T13:35:05.174Z</time>
      </trkpt>
      <trkpt lat="47.550677" lon="7.886476">
        <ele>350.966148</ele>
        <time>2021-11-21T13:35:09.605Z</time>
      </trkpt>
      <trkpt lat="47.550758" lon="7.887295">
        <ele>347.796808</ele>
        <time>2021-11-21T13:35:14.747Z</time>
      </trkpt>
      <trkpt lat="47.550789" lon="7.887816">
        <ele>345.794227</ele>
        <time>2021-11-21T13:35:17.979Z</time>
      </trkpt>
      <trkpt lat="47.550831" lon="7.888611">
        <ele>342.546054</ele>
        <time>2021-11-21T13:35:22.935Z</time>
      </trkpt>
      <trkpt lat="47.550833" lon="7.889069">
        <ele>340.610842</ele>
        <time>2021-11-21T13:35:25.744Z</time>
      </trkpt>
      <trkpt lat="47.550915" lon="7.890600">
        <ele>334.121626</ele>
        <time>2021-11-21T13:35:35.137Z</time>
      </trkpt>
      <trkpt lat="47.550904" lon="7.891725">
        <ele>330.722726</ele>
        <time>2021-11-21T13:35:42.141Z</time>
      </trkpt>
      <trkpt lat="47.550892" lon="7.893176">
        <ele>326.670523</ele>
        <time>2021-11-21T13:35:51.754Z</time>
      </trkpt>
      <trkpt lat="47.550908" lon="7.894308">
        <ele>325.181377</ele>
        <time>2021-11-21T13:36:00.959Z</time>
      </trkpt>
      <trkpt lat="47.550878" lon="7.895158">
        <ele>324.451978</ele>
        <time>2021-11-21T13:36:08.144Z</time>
      </trkpt>
      <trkpt lat="47.550838" lon="7.895509">
        <ele>324.146933</ele>
        <time>2021-11-21T13:36:11.308Z</time>
      </trkpt>
      <trkpt lat="47.550660" lon="7.896255">
        <ele>323.279653</ele>
        <time>2021-11-21T13:36:17.796Z</time>
      </trkpt>
      <trkpt lat="47.550639" lon="7.896345">
        <ele>323.106876</ele>
        <time>2021-11-21T13:36:18.983Z</time>
      </trkpt>
      <trkpt lat="47.550648" lon="7.896481">
        <ele>322.858936</ele>
        <time>2021-11-21T13:36:19.938Z</time>
      </trkpt>
      <trkpt lat="47.550819" lon="7.898109">
        <ele>319.869565</ele>
        <time>2021-11-21T13:36:31.686Z</time>
      </trkpt>
      <trkpt lat="47.550801" lon="7.900244">
        <ele>314.355197</ele>
        <time>2021-11-21T13:36:45.524Z</time>
      </trkpt>
      <trkpt lat="47.550769" lon="7.901362">
        <ele>311.139234</ele>
        <time>2021-11-21T13:36:52.795Z</time>
      </trkpt>
      <trkpt lat="47.550757" lon="7.901591">
        <ele>310.571675</ele>
        <time>2021-11-21T13:36:54.931Z</time>
      </trkpt>
      <trkpt lat="47.550688" lon="7.902451">
        <ele>308.431663</ele>
        <time>2021-11-21T13:37:03.366Z</time>
      </trkpt>
      <trkpt lat="47.550498" lon="7.903445">
        <ele>305.878894</ele>
        <time>2021-11-21T13:37:13.616Z</time>
      </trkpt>
      <trkpt lat="47.550302" lon="7.904164">
        <ele>303.958417</ele>
        <time>2021-11-21T13:37:20.875Z</time>
      </trkpt>
      <trkpt lat="47.550025" lon="7.904774">
        <ele>302.128309</ele>
        <time>2021-11-21T13:37:27.800Z</time>
      </trkpt>
      <trkpt lat="47.549868" lon="7.905010">
        <ele>301.303456</ele>
        <time>2021-11-21T13:37:30.932Z</time>
      </trkpt>
      <trkpt lat="47.549867" lon="7.905155">
        <ele>300.942495</ele>
        <time>2021-11-21T13:37:32.329Z</time>
      </trkpt>
      <trkpt lat="47.550067" lon="7.905245">
        <ele>300.171611</ele>
        <time>2021-11-21T13:37:35.254Z</time>
      </trkpt>
      <trkpt lat="47.550283" lon="7.905413">
        <ele>299.271895</ele>
        <time>2021-11-21T13:37:38.704Z</time>
      </trkpt>
      <trkpt lat="47.550497" lon="7.905558">
        <ele>298.404033</ele>
        <time>2021-11-21T13:37:42.063Z</time>
      </trkpt>
      <trkpt lat="47.549539" lon="7.908625">
        <ele>293.134659</ele>
        <time>2021-11-21T13:38:06.521Z</time>
      </trkpt>
      <trkpt lat="47.549520" lon="7.908678">
        <ele>293.077827</ele>
        <time>2021-11-21T13:38:07.013Z</time>
      </trkpt>
      <trkpt lat="47.549309" lon="7.909376">
        <ele>292.353542</ele>
        <time>2021-11-21T13:38:13.218Z</time>
      </trkpt>
      <trkpt lat="47.549242" lon="7.909598">
        <ele>292.123244</ele>
        <time>2021-11-21T13:38:15.251Z</time>
      </trkpt>
      <trkpt lat="47.549195" lon="7.909756">
        <ele>291.959728</ele>
        <time>2021-11-21T13:38:16.639Z</time>
      </trkpt>
      <trkpt lat="47.549102" lon="7.910058">
        <ele>291.645367</ele>
        <time>2021-11-21T13:38:19.363Z</time>
      </trkpt>
      <trkpt lat="47.549012" lon="7.910340">
        <ele>291.349957</ele>
        <time>2021-11-21T13:38:21.856Z</time>
      </trkpt>
      <trkpt lat="47.548412" lon="7.912168">
        <ele>289.799716</ele>
        <time>2021-11-21T13:38:38.183Z</time>
      </trkpt>
      <trkpt lat="47.548027" lon="7.913334">
        <ele>289.052128</ele>
        <time>2021-11-21T13:38:48.944Z</time>
      </trkpt>
      <trkpt lat="47.547994" lon="7.913433">
        <ele>289.027102</ele>
        <time>2021-11-21T13:38:49.865Z</time>
      </trkpt>
      <trkpt lat="47.547423" lon="7.915080">
        <ele>288.607434</ele>
        <time>2021-11-21T13:39:07.341Z</time>
      </trkpt>
      <trkpt lat="47.547113" lon="7.915971">
        <ele>288.744991</ele>
        <time>2021-11-21T13:39:17.789Z</time>
      </trkpt>
      <trkpt lat="47.547091" lon="7.916039">
        <ele>288.766791</ele>
        <time>2021-11-21T13:39:18.813Z</time>
      </trkpt>
      <trkpt lat="47.547032" lon="7.916218">
        <ele>288.824381</ele>
        <time>2021-11-21T13:39:21.016Z</time>
      </trkpt>
      <trkpt lat="47.546821" lon="7.916867">
        <ele>289.032642</ele>
        <time>2021-11-21T13:39:29.125Z</time>
      </trkpt>
      <trkpt lat="47.546262" lon="7.919081">
        <ele>289.679209</ele>
        <time>2021-11-21T13:39:56.636Z</time>
      </trkpt>
      <trkpt lat="47.546128" lon="7.919617">
        <ele>289.829435</ele>
        <time>2021-11-21T13:40:02.105Z</time>
      </trkpt>
      <trkpt lat="47.545973" lon="7.920313">
        <ele>290.045807</ele>
        <time>2021-11-21T13:40:10.568Z</time>
      </trkpt>
      <trkpt lat="47.545913" lon="7.920765">
        <ele>290.432973</ele>
        <time>2021-11-21T13:40:14.741Z</time>
      </trkpt>
      <trkpt lat="47.545881" lon="7.921096">
        <ele>290.714005</ele>
        <time>2021-11-21T13:40:18.758Z</time>
      </trkpt>
      <trkpt lat="47.545810" lon="7.921755">
        <ele>291.274883</ele>
        <time>2021-11-21T13:40:27.667Z</time>
      </trkpt>
      <trkpt lat="47.545778" lon="7.921947">
        <ele>291.441098</ele>
        <time>2021-11-21T13:40:31.276Z</time>
      </trkpt>
      <trkpt lat="47.545714" lon="7.922249">
        <ele>291.707135</ele>
        <time>2021-11-21T13:40:34.474Z</time>
      </trkpt>
      <trkpt lat="47.545699" lon="7.922325">
        <ele>291.773685</ele>
        <time>2021-11-21T13:40:35.672Z</time>
      </trkpt>
      <trkpt lat="47.545690" lon="7.922369">
        <ele>291.812326</ele>
        <time>2021-11-21T13:40:37.770Z</time>
      </trkpt>
      <trkpt lat="47.545641" lon="7.922610">
        <ele>292.023868</ele>
        <time>2021-11-21T13:40:40.124Z</time>
      </trkpt>
      <trkpt lat="47.545587" lon="7.922895">
        <ele>292.312692</ele>
        <time>2021-11-21T13:40:45.920Z</time>
      </trkpt>
      <trkpt lat="47.545553" lon="7.923142">
        <ele>292.912707</ele>
        <time>2021-11-21T13:40:48.567Z</time>
      </trkpt>
      <trkpt lat="47.545536" lon="7.923407">
        <ele>293.546309</ele>
        <time>2021-11-21T13:40:54.456Z</time>
      </trkpt>
      <trkpt lat="47.545521" lon="7.923709">
        <ele>294.267080</ele>
        <time>2021-11-21T13:40:58.610Z</time>
      </trkpt>
      <trkpt lat="47.545481" lon="7.924396">
        <ele>295.908368</ele>
        <time>2021-11-21T13:41:13.213Z</time>
      </trkpt>
      <trkpt lat="47.545466" lon="7.924880">
        <ele>297.061612</ele>
        <time>2021-11-21T13:41:24.520Z</time>
      </trkpt>
      <trkpt lat="47.545446" lon="7.925350">
        <ele>298.182540</ele>
        <time>2021-11-21T13:41:34.895Z</time>
      </trkpt>
      <trkpt lat="47.545417" lon="7.925848">
        <ele>299.113653</ele>
        <time>2021-11-21T13:41:45.374Z</time>
      </trkpt>
      <trkpt lat="47.545409" lon="7.926773">
        <ele>300.584512</ele>
        <time>2021-11-21T13:42:02.575Z</time>
      </trkpt>
      <trkpt lat="47.545407" lon="7.927001">
        <ele>300.947060</ele>
        <time>2021-11-21T13:42:06.384Z</time>
      </trkpt>
      <trkpt lat="47.545406" lon="7.927306">
        <ele>301.432012</ele>
        <time>2021-11-21T13:42:10.988Z</time>
      </trkpt>
      <trkpt lat="47.545421" lon="7.927686">
        <ele>302.037240</ele>
        <time>2021-11-21T13:42:16.524Z</time>
      </trkpt>
      <trkpt lat="47.545475" lon="7.928419">
        <ele>302.613329</ele>
        <time>2021-11-21T13:42:25.841Z</time>
      </trkpt>
      <trkpt lat="47.545563" lon="7.929641">
        <ele>301.498169</ele>
        <time>2021-11-21T13:42:35.721Z</time>
      </trkpt>
      <trkpt lat="47.545661" lon="7.930955">
        <ele>300.303893</ele>
        <time>2021-11-21T13:42:45.117Z</time>
      </trkpt>
      <trkpt lat="47.545696" lon="7.931497">
        <ele>299.833030</ele>
        <time>2021-11-21T13:42:49.085Z</time>
      </trkpt>
      <trkpt lat="47.545721" lon="7.931992">
        <ele>299.403757</ele>
        <time>2021-11-21T13:42:52.878Z</time>
      </trkpt>
      <trkpt lat="47.545724" lon="7.932758">
        <ele>298.741307</ele>
        <time>2021-11-21T13:42:59.087Z</time>
      </trkpt>
      <trkpt lat="47.545702" lon="7.933290">
        <ele>298.280370</ele>
        <time>2021-11-21T13:43:03.730Z</time>
      </trkpt>
      <trkpt lat="47.545674" lon="7.933625">
        <ele>298.190670</ele>
        <time>2021-11-21T13:43:06.930Z</time>
      </trkpt>
      <trkpt lat="47.545457" lon="7.935110">
        <ele>299.105904</ele>
        <time>2021-11-21T13:43:25.065Z</time>
      </trkpt>
      <trkpt lat="47.545074" lon="7.936484">
        <ele>300.277075</ele>
        <time>2021-11-21T13:43:46.593Z</time>
      </trkpt>
      <trkpt lat="47.544903" lon="7.936917">
        <ele>300.867945</ele>
        <time>2021-11-21T13:43:53.909Z</time>
      </trkpt>
      <trkpt lat="47.544705" lon="7.937395">
        <ele>301.528502</ele>
        <time>2021-11-21T13:44:02.093Z</time>
      </trkpt>
      <trkpt lat="47.544472" lon="7.937932">
        <ele>302.280397</ele>
        <time>2021-11-21T13:44:11.500Z</time>
      </trkpt>
      <trkpt lat="47.543826" lon="7.939433">
        <ele>304.337714</ele>
        <time>2021-11-21T13:44:38.382Z</time>
      </trkpt>
      <trkpt lat="47.543435" lon="7.940670">
        <ele>305.905008</ele>
        <time>2021-11-21T13:44:58.342Z</time>
      </trkpt>
      <trkpt lat="47.543161" lon="7.942213">
        <ele>306.528575</ele>
        <time>2021-11-21T13:45:19.192Z</time>
      </trkpt>
      <trkpt lat="47.543007" lon="7.943867">
        <ele>306.264500</ele>
        <time>2021-11-21T13:45:34.736Z</time>
      </trkpt>
      <trkpt lat="47.542913" lon="7.945267">
        <ele>304.659774</ele>
        <time>2021-11-21T13:45:45.501Z</time>
      </trkpt>
      <trkpt lat="47.542872" lon="7.945781">
        <ele>304.069423</ele>
        <time>2021-11-21T13:45:49.096Z</time>
      </trkpt>
      <trkpt lat="47.542875" lon="7.946089">
        <ele>303.638054</ele>
        <time>2021-11-21T13:45:51.223Z</time>
      </trkpt>
      <trkpt lat="47.542902" lon="7.946514">
        <ele>302.944753</ele>
        <time>2021-11-21T13:45:54.091Z</time>
      </trkpt>
      <trkpt lat="47.542943" lon="7.946806">
        <ele>302.460360</ele>
        <time>2021-11-21T13:45:56.113Z</time>
      </trkpt>
      <trkpt lat="47.542974" lon="7.946965">
        <ele>302.191570</ele>
        <time>2021-11-21T13:45:57.352Z</time>
      </trkpt>
      <trkpt lat="47.542979" lon="7.946989">
        <ele>302.150777</ele>
        <time>2021-11-21T13:45:57.508Z</time>
      </trkpt>
      <trkpt lat="47.543007" lon="7.947104">
        <ele>301.952226</ele>
        <time>2021-11-21T13:45:58.375Z</time>
      </trkpt>
      <trkpt lat="47.543087" lon="7.947317">
        <ele>301.556348</ele>
        <time>2021-11-21T13:46:00.074Z</time>
      </trkpt>
      <trkpt lat="47.543191" lon="7.947615">
        <ele>301.011507</ele>
        <time>2021-11-21T13:46:02.582Z</time>
      </trkpt>
      <trkpt lat="47.543191" lon="7.947615">
        <ele>301.011507</ele>
        <time>2021-11-21T13:46:02.587Z</time>
      </trkpt>
      <trkpt lat="47.543242" lon="7.947745">
        <ele>300.767306</ele>
        <time>2021-11-21T13:46:03.717Z</time>
      </trkpt>
      <trkpt lat="47.543273" lon="7.947816">
        <ele>300.629976</ele>
        <time>2021-11-21T13:46:04.352Z</time>
      </trkpt>
      <trkpt lat="47.543358" lon="7.947967">
        <ele>300.310655</ele>
        <time>2021-11-21T13:46:05.837Z</time>
      </trkpt>
      <trkpt lat="47.543455" lon="7.948127">
        <ele>299.961383</ele>
        <time>2021-11-21T13:46:07.447Z</time>
      </trkpt>
      <trkpt lat="47.543532" lon="7.948214">
        <ele>299.728390</ele>
        <time>2021-11-21T13:46:08.542Z</time>
      </trkpt>
      <trkpt lat="47.543579" lon="7.948287">
        <ele>299.578818</ele>
        <time>2021-11-21T13:46:09.332Z</time>
      </trkpt>
      <trkpt lat="47.543760" lon="7.948548">
        <ele>299.555567</ele>
        <time>2021-11-21T13:46:12.181Z</time>
      </trkpt>
      <trkpt lat="47.543864" lon="7.948694">
        <ele>299.542378</ele>
        <time>2021-11-21T13:46:13.924Z</time>
      </trkpt>
      <trkpt lat="47.544239" lon="7.949202">
        <ele>299.495603</ele>
        <time>2021-11-21T13:46:21.120Z</time>
      </trkpt>
      <trkpt lat="47.544521" lon="7.949558">
        <ele>299.461498</ele>
        <time>2021-11-21T13:46:27.294Z</time>
      </trkpt>
      <trkpt lat="47.544901" lon="7.950044">
        <ele>299.415287</ele>
        <time>2021-11-21T13:46:36.690Z</time>
      </trkpt>
      <trkpt lat="47.545166" lon="7.950366">
        <ele>299.484034</ele>
        <time>2021-11-21T13:46:43.240Z</time>
      </trkpt>
      <trkpt lat="47.545434" lon="7.950668">
        <ele>299.556381</ele>
        <time>2021-11-21T13:46:49.030Z</time>
      </trkpt>
      <trkpt lat="47.545542" lon="7.950842">
        <ele>299.590664</ele>
        <time>2021-11-21T13:46:51.455Z</time>
      </trkpt>
      <trkpt lat="47.545667" lon="7.950979">
        <ele>299.624072</ele>
        <time>2021-11-21T13:46:54.060Z</time>
      </trkpt>
      <trkpt lat="47.545737" lon="7.951055">
        <ele>299.642719</ele>
        <time>2021-11-21T13:46:55.315Z</time>
      </trkpt>
      <trkpt lat="47.545876" lon="7.951233">
        <ele>299.682195</ele>
        <time>2021-11-21T13:46:57.707Z</time>
      </trkpt>
      <trkpt lat="47.546112" lon="7.951485">
        <ele>299.744700</ele>
        <time>2021-11-21T13:47:02.250Z</time>
      </trkpt>
      <trkpt lat="47.546164" lon="7.951520">
        <ele>299.756972</ele>
        <time>2021-11-21T13:47:02.884Z</time>
      </trkpt>
      <trkpt lat="47.546212" lon="7.951535">
        <ele>299.767512</ele>
        <time>2021-11-21T13:47:03.649Z</time>
      </trkpt>
      <trkpt lat="47.546231" lon="7.951558">
        <ele>299.772784</ele>
        <time>2021-11-21T13:47:04.379Z</time>
      </trkpt>
      <trkpt lat="47.546421" lon="7.951793">
        <ele>299.749483</ele>
        <time>2021-11-21T13:47:07.560Z</time>
      </trkpt>
      <trkpt lat="47.546634" lon="7.952024">
        <ele>299.637340</ele>
        <time>2021-11-21T13:47:11.094Z</time>
      </trkpt>
      <trkpt lat="47.546695" lon="7.952091">
        <ele>299.605080</ele>
        <time>2021-11-21T13:47:12.049Z</time>
      </trkpt>
      <trkpt lat="47.546776" lon="7.952185">
        <ele>299.561368</ele>
        <time>2021-11-21T13:47:13.236Z</time>
      </trkpt>
      <trkpt lat="47.546935" lon="7.952372">
        <ele>299.475124</ele>
        <time>2021-11-21T13:47:16.171Z</time>
      </trkpt>
      <trkpt lat="47.547090" lon="7.952543">
        <ele>299.393024</ele>
        <time>2021-11-21T13:47:18.808Z</time>
      </trkpt>
      <trkpt lat="47.547400" lon="7.952910">
        <ele>299.224444</ele>
        <time>2021-11-21T13:47:24.112Z</time>
      </trkpt>
      <trkpt lat="47.547458" lon="7.952975">
        <ele>299.193548</ele>
        <time>2021-11-21T13:47:25.032Z</time>
      </trkpt>
      <trkpt lat="47.547550" lon="7.953078">
        <ele>299.144559</ele>
        <time>2021-11-21T13:47:26.524Z</time>
      </trkpt>
      <trkpt lat="47.547624" lon="7.953160">
        <ele>299.105301</ele>
        <time>2021-11-21T13:47:27.767Z</time>
      </trkpt>
      <trkpt lat="47.547797" lon="7.953355">
        <ele>298.996612</ele>
        <time>2021-11-21T13:47:30.779Z</time>
      </trkpt>
      <trkpt lat="47.547871" lon="7.953437">
        <ele>298.929711</ele>
        <time>2021-11-21T13:47:32.079Z</time>
      </trkpt>
      <trkpt lat="47.547994" lon="7.953584">
        <ele>298.815301</ele>
        <time>2021-11-21T13:47:34.252Z</time>
      </trkpt>
      <trkpt lat="47.548115" lon="7.953729">
        <ele>298.702632</ele>
        <time>2021-11-21T13:47:36.407Z</time>
      </trkpt>
      <trkpt lat="47.548251" lon="7.953895">
        <ele>298.575061</ele>
        <time>2021-11-21T13:47:38.804Z</time>
      </trkpt>
      <trkpt lat="47.548335" lon="7.953779">
        <ele>298.491926</ele>
        <time>2021-11-21T13:47:40.710Z</time>
      </trkpt>
      <trkpt lat="47.549134" lon="7.953355">
        <ele>297.877487</ele>
        <time>2021-11-21T13:47:56.030Z</time>
      </trkpt>
      <trkpt lat="47.549296" lon="7.953268">
        <ele>297.752736</ele>
        <time>2021-11-21T13:47:59.031Z</time>
      </trkpt>
      <trkpt lat="47.549442" lon="7.953195">
        <ele>297.498025</ele>
        <time>2021-11-21T13:48:01.587Z</time>
      </trkpt>
      <trkpt lat="47.549640" lon="7.953086">
        <ele>297.109238</ele>
        <time>2021-11-21T13:48:05.295Z</time>
      </trkpt>
      <trkpt lat="47.549673" lon="7.953076">
        <ele>297.047240</ele>
        <time>2021-11-21T13:48:05.855Z</time>
      </trkpt>
      <trkpt lat="47.549687" lon="7.953071">
        <ele>297.020733</ele>
        <time>2021-11-21T13:48:06.046Z</time>
      </trkpt>
      <trkpt lat="47.550567" lon="7.953069">
        <ele>295.400988</ele>
        <time>2021-11-21T13:48:20.219Z</time>
      </trkpt>
      <trkpt lat="47.550656" lon="7.953072">
        <ele>295.237131</ele>
        <time>2021-11-21T13:48:21.534Z</time>
      </trkpt>
      <trkpt lat="47.550967" lon="7.953063">
        <ele>294.664590</ele>
        <time>2021-11-21T13:48:26.296Z</time>
      </trkpt>
      <trkpt lat="47.551254" lon="7.952986">
        <ele>294.122244</ele>
        <time>2021-11-21T13:48:30.685Z</time>
      </trkpt>
      <trkpt lat="47.551295" lon="7.952900">
        <ele>293.989010</ele>
        <time>2021-11-21T13:48:31.748Z</time>
      </trkpt>
      <trkpt lat="47.551334" lon="7.952777">
        <ele>293.817048</ele>
        <time>2021-11-21T13:48:34.423Z</time>
      </trkpt>
      <trkpt lat="47.551339" lon="7.952761">
        <ele>293.794737</ele>
        <time>2021-11-21T13:48:34.794Z</time>
      </trkpt>
      <trkpt lat="47.551381" lon="7.952341">
        <ele>293.257473</ele>
        <time>2021-11-21T13:48:43.575Z</time>
      </trkpt>
      <trkpt lat="47.551506" lon="7.950255">
        <ele>291.023037</ele>
        <time>2021-11-21T13:49:29.112Z</time>
      </trkpt>
      <trkpt lat="47.551525" lon="7.950027">
        <ele>291.004583</ele>
        <time>2021-11-21T13:49:34.573Z</time>
      </trkpt>
      <trkpt lat="47.551581" lon="7.949830">
        <ele>290.987412</ele>
        <time>2021-11-21T13:49:39.725Z</time>
      </trkpt>
      <trkpt lat="47.551673" lon="7.949634">
        <ele>290.968234</ele>
        <time>2021-11-21T13:49:45.811Z</time>
      </trkpt>
      <trkpt lat="47.551794" lon="7.949387">
        <ele>290.943718</ele>
        <time>2021-11-21T13:49:53.373Z</time>
      </trkpt>
      <trkpt lat="47.552010" lon="7.949039">
        <ele>290.905740</ele>
        <time>2021-11-21T13:50:05.560Z</time>
      </trkpt>
      <trkpt lat="47.552049" lon="7.948982">
        <ele>290.899220</ele>
        <time>2021-11-21T13:50:07.730Z</time>
      </trkpt>
      <trkpt lat="47.552094" lon="7.948926">
        <ele>290.892225</ele>
        <time>2021-11-21T13:50:10.101Z</time>
      </trkpt>
      <trkpt lat="47.552202" lon="7.949003">
        <ele>290.877961</ele>
        <time>2021-11-21T13:50:14.792Z</time>
      </trkpt>
      <trkpt lat="47.552351" lon="7.949099">
        <ele>290.858623</ele>
        <time>2021-11-21T13:50:21.196Z</time>
      </trkpt>
      <trkpt lat="47.552382" lon="7.949119">
        <ele>290.854599</ele>
        <time>2021-11-21T13:50:22.645Z</time>
      </trkpt>
      <trkpt lat="47.552518" lon="7.949236">
        <ele>290.834175</ele>
        <time>2021-11-21T13:50:28.981Z</time>
      </trkpt>
      <trkpt lat="47.552953" lon="7.948775">
        <ele>290.683700</ele>
        <time>2021-11-21T13:50:49.986Z</time>
      </trkpt>
      <trkpt lat="47.553197" lon="7.948543">
        <ele>290.602129</ele>
        <time>2021-11-21T13:51:00.720Z</time>
      </trkpt>
      <trkpt lat="47.553243" lon="7.948595">
        <ele>290.585850</ele>
        <time>2021-11-21T13:51:02.776Z</time>
      </trkpt>
      <trkpt lat="47.553488" lon="7.949175">
        <ele>290.455920</ele>
        <time>2021-11-21T13:51:18.994Z</time>
      </trkpt>
      <trkpt lat="47.553669" lon="7.949729">
        <ele>290.339044</ele>
        <time>2021-11-21T13:51:33.021Z</time>
      </trkpt>
      <trkpt lat="47.553699" lon="7.949840">
        <ele>290.273422</ele>
        <time>2021-11-21T13:51:35.603Z</time>
      </trkpt>
      <trkpt lat="47.553747" lon="7.950009">
        <ele>290.137170</ele>
        <time>2021-11-21T13:51:39.673Z</time>
      </trkpt>
      <trkpt lat="47.553836" lon="7.950173">
        <ele>289.980789</ele>
        <time>2021-11-21T13:51:44.522Z</time>
      </trkpt>
      <trkpt lat="47.553918" lon="7.950361">
        <ele>289.814450</ele>
        <time>2021-11-21T13:51:49.354Z</time>
      </trkpt>
      <trkpt lat="47.554036" lon="7.950322">
        <ele>289.681332</ele>
        <time>2021-11-21T13:51:53.337Z</time>
      </trkpt>
      <trkpt lat="47.554130" lon="7.950301">
        <ele>289.576663</ele>
        <time>2021-11-21T13:51:56.639Z</time>
      </trkpt>
      <trkpt lat="47.554192" lon="7.950296">
        <ele>289.508296</ele>
        <time>2021-11-21T13:51:58.596Z</time>
      </trkpt>
      <trkpt lat="47.554240" lon="7.950300">
        <ele>289.455362</ele>
        <time>2021-11-21T13:52:00.154Z</time>
      </trkpt>
      <trkpt lat="47.554303" lon="7.950312">
        <ele>289.385424</ele>
        <time>2021-11-21T13:52:00.892Z</time>
      </trkpt>
      <trkpt lat="47.554392" lon="7.950331">
        <ele>289.286418</ele>
        <time>2021-11-21T13:52:01.966Z</time>
      </trkpt>
      <trkpt lat="47.554652" lon="7.950448">
        <ele>288.987232</ele>
        <time>2021-11-21T13:52:05.180Z</time>
      </trkpt>
      <trkpt lat="47.554759" lon="7.950515">
        <ele>288.859331</ele>
        <time>2021-11-21T13:52:06.585Z</time>
      </trkpt>
      <trkpt lat="47.554954" lon="7.950665">
        <ele>288.617416</ele>
        <time>2021-11-21T13:52:09.219Z</time>
      </trkpt>
      <trkpt lat="47.555474" lon="7.951144">
        <ele>288.348463</ele>
        <time>2021-11-21T13:52:17.103Z</time>
      </trkpt>
      <trkpt lat="47.555687" lon="7.951449">
        <ele>288.346706</ele>
        <time>2021-11-21T13:52:21.187Z</time>
      </trkpt>
      <trkpt lat="47.556339" lon="7.952382">
        <ele>288.341329</ele>
        <time>2021-11-21T13:52:35.250Z</time>
      </trkpt>
      <trkpt lat="47.556386" lon="7.952449">
        <ele>288.340942</ele>
        <time>2021-11-21T13:52:36.419Z</time>
      </trkpt>
      <trkpt lat="47.556400" lon="7.952468">
        <ele>288.340829</ele>
        <time>2021-11-21T13:52:36.731Z</time>
      </trkpt>
      <trkpt lat="47.557120" lon="7.953536">
        <ele>288.858546</ele>
        <time>2021-11-21T13:52:54.758Z</time>
      </trkpt>
      <trkpt lat="47.557517" lon="7.954117">
        <ele>289.188491</ele>
        <time>2021-11-21T13:53:04.604Z</time>
      </trkpt>
      <trkpt lat="47.557687" lon="7.954371">
        <ele>289.331245</ele>
        <time>2021-11-21T13:53:08.718Z</time>
      </trkpt>
      <trkpt lat="47.557874" lon="7.954579">
        <ele>289.403578</ele>
        <time>2021-11-21T13:53:12.446Z</time>
      </trkpt>
      <trkpt lat="47.557899" lon="7.954581">
        <ele>289.403581</ele>
        <time>2021-11-21T13:53:12.942Z</time>
      </trkpt>
      <trkpt lat="47.557935" lon="7.954571">
        <ele>289.403587</ele>
        <time>2021-11-21T13:53:13.592Z</time>
      </trkpt>
      <trkpt lat="47.558070" lon="7.954468">
        <ele>289.403611</ele>
        <time>2021-11-21T13:53:15.962Z</time>
      </trkpt>
      <trkpt lat="47.558107" lon="7.954410">
        <ele>289.403619</ele>
        <time>2021-11-21T13:53:16.891Z</time>
      </trkpt>
      <trkpt lat="47.558161" lon="7.954466">
        <ele>289.403630</ele>
        <time>2021-11-21T13:53:17.883Z</time>
      </trkpt>
      <trkpt lat="47.558201" lon="7.954539">
        <ele>289.403640</ele>
        <time>2021-11-21T13:53:18.965Z</time>
      </trkpt>
      <trkpt lat="47.558360" lon="7.955074">
        <ele>289.403701</ele>
        <time>2021-11-21T13:53:25.170Z</time>
      </trkpt>
      <trkpt lat="47.558659" lon="7.956055">
        <ele>289.403815</ele>
        <time>2021-11-21T13:53:35.470Z</time>
      </trkpt>
      <trkpt lat="47.558756" lon="7.956469">
        <ele>289.334298</ele>
        <time>2021-11-21T13:53:39.364Z</time>
      </trkpt>
      <trkpt lat="47.559224" lon="7.958738">
        <ele>288.452458</ele>
        <time>2021-11-21T13:53:59.807Z</time>
      </trkpt>
      <trkpt lat="47.559324" lon="7.959601">
        <ele>288.586288</ele>
        <time>2021-11-21T13:54:08.165Z</time>
      </trkpt>
      <trkpt lat="47.559346" lon="7.959868">
        <ele>288.646747</ele>
        <time>2021-11-21T13:54:11.259Z</time>
      </trkpt>
      <trkpt lat="47.559406" lon="7.960730">
        <ele>288.841524</ele>
        <time>2021-11-21T13:54:20.743Z</time>
      </trkpt>
      <trkpt lat="47.559408" lon="7.961845">
        <ele>289.165522</ele>
        <time>2021-11-21T13:54:34.507Z</time>
      </trkpt>
      <trkpt lat="47.559368" lon="7.962709">
        <ele>289.539067</ele>
        <time>2021-11-21T13:54:45.749Z</time>
      </trkpt>
      <trkpt lat="47.559232" lon="7.963800">
        <ele>290.017609</ele>
        <time>2021-11-21T13:54:58.342Z</time>
      </trkpt>
      <trkpt lat="47.559029" lon="7.964894">
        <ele>290.081697</ele>
        <time>2021-11-21T13:55:10.044Z</time>
      </trkpt>
      <trkpt lat="47.558949" lon="7.965326">
        <ele>290.036767</ele>
        <time>2021-11-21T13:55:14.280Z</time>
      </trkpt>
      <trkpt lat="47.558732" lon="7.966356">
        <ele>289.928543</ele>
        <time>2021-11-21T13:55:24.163Z</time>
      </trkpt>
      <trkpt lat="47.558606" lon="7.966985">
        <ele>289.902037</ele>
        <time>2021-11-21T13:55:30.419Z</time>
      </trkpt>
      <trkpt lat="47.558448" lon="7.967701">
        <ele>289.919642</ele>
        <time>2021-11-21T13:55:37.674Z</time>
      </trkpt>
      <trkpt lat="47.558430" lon="7.967788">
        <ele>289.921769</ele>
        <time>2021-11-21T13:55:38.557Z</time>
      </trkpt>
      <trkpt lat="47.558327" lon="7.968108">
        <ele>289.930055</ele>
        <time>2021-11-21T13:55:42.511Z</time>
      </trkpt>
      <trkpt lat="47.558313" lon="7.968259">
        <ele>289.933617</ele>
        <time>2021-11-21T13:55:43.970Z</time>
      </trkpt>
      <trkpt lat="47.558296" lon="7.968403">
        <ele>289.937033</ele>
        <time>2021-11-21T13:55:45.772Z</time>
      </trkpt>
      <trkpt lat="47.558225" lon="7.968807">
        <ele>289.946790</ele>
        <time>2021-11-21T13:55:50.226Z</time>
      </trkpt>
      <trkpt lat="47.558045" lon="7.969704">
        <ele>289.904602</ele>
        <time>2021-11-21T13:55:59.797Z</time>
      </trkpt>
      <trkpt lat="47.557756" lon="7.971140">
        <ele>289.748875</ele>
        <time>2021-11-21T13:56:14.488Z</time>
      </trkpt>
      <trkpt lat="47.557538" lon="7.972196">
        <ele>289.641685</ele>
        <time>2021-11-21T13:56:24.171Z</time>
      </trkpt>
      <trkpt lat="47.557419" lon="7.972636">
        <ele>289.600567</ele>
        <time>2021-11-21T13:56:28.427Z</time>
      </trkpt>
      <trkpt lat="47.557323" lon="7.972992">
        <ele>289.567312</ele>
        <time>2021-11-21T13:56:32.043Z</time>
      </trkpt>
      <trkpt lat="47.557235" lon="7.973507">
        <ele>289.521230</ele>
        <time>2021-11-21T13:56:37.121Z</time>
      </trkpt>
      <trkpt lat="47.557108" lon="7.974186">
        <ele>289.460111</ele>
        <time>2021-11-21T13:56:44.274Z</time>
      </trkpt>
      <trkpt lat="47.557045" lon="7.974526">
        <ele>289.570867</ele>
        <time>2021-11-21T13:56:48.308Z</time>
      </trkpt>
      <trkpt lat="47.556769" lon="7.976421">
        <ele>290.640554</ele>
        <time>2021-11-21T13:57:12.468Z</time>
      </trkpt>
      <trkpt lat="47.556668" lon="7.978159">
        <ele>291.227037</ele>
        <time>2021-11-21T13:57:34.383Z</time>
      </trkpt>
      <trkpt lat="47.557185" lon="7.988787">
        <ele>293.688099</ele>
        <time>2021-11-21T13:59:28.717Z</time>
      </trkpt>
      <trkpt lat="47.557298" lon="7.990679">
        <ele>294.128634</ele>
        <time>2021-11-21T13:59:49.941Z</time>
      </trkpt>
      <trkpt lat="47.557377" lon="7.991413">
        <ele>294.261080</ele>
        <time>2021-11-21T13:59:58.228Z</time>
      </trkpt>
      <trkpt lat="47.557666" lon="7.996934">
        <ele>295.448714</ele>
        <time>2021-11-21T14:00:57.085Z</time>
      </trkpt>
      <trkpt lat="47.557611" lon="7.998828">
        <ele>296.110319</ele>
        <time>2021-11-21T14:01:19.715Z</time>
      </trkpt>
      <trkpt lat="47.557595" lon="7.999065">
        <ele>296.206797</ele>
        <time>2021-11-21T14:01:22.740Z</time>
      </trkpt>
      <trkpt lat="47.557590" lon="7.999121">
        <ele>296.229677</ele>
        <time>2021-11-21T14:01:23.399Z</time>
      </trkpt>
      <trkpt lat="47.557569" lon="7.999330">
        <ele>296.315267</ele>
        <time>2021-11-21T14:01:28.989Z</time>
      </trkpt>
      <trkpt lat="47.557552" lon="7.999488">
        <ele>296.380075</ele>
        <time>2021-11-21T14:01:31.007Z</time>
      </trkpt>
      <trkpt lat="47.557421" lon="8.000151">
        <ele>296.659901</ele>
        <time>2021-11-21T14:01:39.209Z</time>
      </trkpt>
      <trkpt lat="47.557093" lon="8.001836">
        <ele>296.800860</ele>
        <time>2021-11-21T14:01:58.158Z</time>
      </trkpt>
      <trkpt lat="47.556859" lon="8.003033">
        <ele>296.657146</ele>
        <time>2021-11-21T14:02:09.283Z</time>
      </trkpt>
      <trkpt lat="47.556414" lon="8.004608">
        <ele>296.004915</ele>
        <time>2021-11-21T14:02:24.048Z</time>
      </trkpt>
      <trkpt lat="47.555689" lon="8.008075">
        <ele>294.331872</ele>
        <time>2021-11-21T14:02:55.715Z</time>
      </trkpt>
      <trkpt lat="47.555492" lon="8.008854">
        <ele>293.868725</ele>
        <time>2021-11-21T14:03:02.735Z</time>
      </trkpt>
      <trkpt lat="47.555373" lon="8.009365">
        <ele>293.538691</ele>
        <time>2021-11-21T14:03:07.220Z</time>
      </trkpt>
      <trkpt lat="47.555124" lon="8.010557">
        <ele>292.776869</ele>
        <time>2021-11-21T14:03:17.548Z</time>
      </trkpt>
      <trkpt lat="47.555069" lon="8.010772">
        <ele>292.636490</ele>
        <time>2021-11-21T14:03:19.379Z</time>
      </trkpt>
      <trkpt lat="47.554818" lon="8.011865">
        <ele>292.269983</ele>
        <time>2021-11-21T14:03:29.084Z</time>
      </trkpt>
      <trkpt lat="47.554682" lon="8.012449">
        <ele>292.097454</ele>
        <time>2021-11-21T14:03:34.788Z</time>
      </trkpt>
      <trkpt lat="47.554665" lon="8.012540">
        <ele>292.071084</ele>
        <time>2021-11-21T14:03:35.628Z</time>
      </trkpt>
      <trkpt lat="47.554546" lon="8.013079">
        <ele>291.912708</ele>
        <time>2021-11-21T14:03:41.129Z</time>
      </trkpt>
      <trkpt lat="47.554393" lon="8.013577">
        <ele>291.875628</ele>
        <time>2021-11-21T14:03:46.912Z</time>
      </trkpt>
      <trkpt lat="47.554329" lon="8.013807">
        <ele>291.963596</ele>
        <time>2021-11-21T14:03:49.785Z</time>
      </trkpt>
      <trkpt lat="47.553882" lon="8.015749">
        <ele>292.689117</ele>
        <time>2021-11-21T14:04:13.589Z</time>
      </trkpt>
      <trkpt lat="47.553715" lon="8.016236">
        <ele>292.887232</ele>
        <time>2021-11-21T14:04:20.051Z</time>
      </trkpt>
      <trkpt lat="47.553318" lon="8.017064">
        <ele>293.260187</ele>
        <time>2021-11-21T14:04:31.933Z</time>
      </trkpt>
      <trkpt lat="47.553229" lon="8.017328">
        <ele>293.368548</ele>
        <time>2021-11-21T14:04:35.543Z</time>
      </trkpt>
      <trkpt lat="47.553159" lon="8.017677">
        <ele>293.502241</ele>
        <time>2021-11-21T14:04:40.144Z</time>
      </trkpt>
      <trkpt lat="47.553012" lon="8.018748">
        <ele>293.810039</ele>
        <time>2021-11-21T14:04:51.771Z</time>
      </trkpt>
      <trkpt lat="47.553028" lon="8.018988">
        <ele>293.850342</ele>
        <time>2021-11-21T14:04:54.095Z</time>
      </trkpt>
      <trkpt lat="47.553030" lon="8.019182">
        <ele>293.882765</ele>
        <time>2021-11-21T14:04:55.790Z</time>
      </trkpt>
      <trkpt lat="47.553055" lon="8.019647">
        <ele>293.960720</ele>
        <time>2021-11-21T14:05:00.472Z</time>
      </trkpt>
      <trkpt lat="47.553064" lon="8.019820">
        <ele>293.989716</ele>
        <time>2021-11-21T14:05:01.998Z</time>
      </trkpt>
      <trkpt lat="47.553056" lon="8.019871">
        <ele>293.998466</ele>
        <time>2021-11-21T14:05:02.488Z</time>
      </trkpt>
      <trkpt lat="47.553031" lon="8.019915">
        <ele>294.008078</ele>
        <time>2021-11-21T14:05:03.137Z</time>
      </trkpt>
      <trkpt lat="47.552961" lon="8.019989">
        <ele>294.029370</ele>
        <time>2021-11-21T14:05:04.590Z</time>
      </trkpt>
      <trkpt lat="47.552879" lon="8.020034">
        <ele>294.051022</ele>
        <time>2021-11-21T14:05:06.168Z</time>
      </trkpt>
      <trkpt lat="47.552872" lon="8.020109">
        <ele>294.063675</ele>
        <time>2021-11-21T14:05:06.781Z</time>
      </trkpt>
      <trkpt lat="47.552813" lon="8.020595">
        <ele>294.146196</ele>
        <time>2021-11-21T14:05:12.605Z</time>
      </trkpt>
      <trkpt lat="47.552776" lon="8.021316">
        <ele>294.788638</ele>
        <time>2021-11-21T14:05:21.162Z</time>
      </trkpt>
      <trkpt lat="47.552776" lon="8.021316">
        <ele>294.788638</ele>
        <time>2021-11-21T14:05:21.165Z</time>
      </trkpt>
      <trkpt lat="47.552776" lon="8.021316">
        <ele>294.788638</ele>
        <time>2021-11-21T14:05:21.196Z</time>
      </trkpt>
      <trkpt lat="47.552959" lon="8.021335">
        <ele>295.098072</ele>
        <time>2021-11-21T14:05:24.957Z</time>
      </trkpt>
      <trkpt lat="47.553183" lon="8.021466">
        <ele>295.504272</ele>
        <time>2021-11-21T14:05:29.744Z</time>
      </trkpt>
      <trkpt lat="47.553232" lon="8.021484">
        <ele>295.589425</ele>
        <time>2021-11-21T14:05:30.948Z</time>
      </trkpt>
      <trkpt lat="47.553266" lon="8.021493">
        <ele>295.647683</ele>
        <time>2021-11-21T14:05:31.692Z</time>
      </trkpt>
      <trkpt lat="47.553291" lon="8.021502">
        <ele>295.691079</ele>
        <time>2021-11-21T14:05:32.255Z</time>
      </trkpt>
      <trkpt lat="47.553305" lon="8.021505">
        <ele>295.714939</ele>
        <time>2021-11-21T14:05:32.550Z</time>
      </trkpt>
      <trkpt lat="47.553565" lon="8.021501">
        <ele>296.153520</ele>
        <time>2021-11-21T14:05:37.789Z</time>
      </trkpt>
      <trkpt lat="47.553607" lon="8.021497">
        <ele>296.224510</ele>
        <time>2021-11-21T14:05:38.869Z</time>
      </trkpt>
      <trkpt lat="47.553614" lon="8.021587">
        <ele>296.327644</ele>
        <time>2021-11-21T14:05:40.261Z</time>
      </trkpt>
      <trkpt lat="47.553615" lon="8.021606">
        <ele>296.349339</ele>
        <time>2021-11-21T14:05:40.554Z</time>
      </trkpt>
      <trkpt lat="47.553619" lon="8.021667">
        <ele>296.419108</ele>
        <time>2021-11-21T14:05:41.376Z</time>
      </trkpt>
      <trkpt lat="47.553685" lon="8.022501">
        <ele>297.532199</ele>
        <time>2021-11-21T14:05:55.318Z</time>
      </trkpt>
      <trkpt lat="47.553695" lon="8.022619">
        <ele>297.797434</ele>
        <time>2021-11-21T14:05:57.687Z</time>
      </trkpt>
      <trkpt lat="47.553699" lon="8.022667">
        <ele>297.905299</ele>
        <time>2021-11-21T14:05:58.622Z</time>
      </trkpt>
      <trkpt lat="47.553719" lon="8.022919">
        <ele>298.471194</ele>
        <time>2021-11-21T14:06:03.668Z</time>
      </trkpt>
      <trkpt lat="47.553732" lon="8.023128">
        <ele>298.939290</ele>
        <time>2021-11-21T14:06:07.900Z</time>
      </trkpt>
      <trkpt lat="47.553811" lon="8.023113">
        <ele>299.202485</ele>
        <time>2021-11-21T14:06:10.035Z</time>
      </trkpt>
      <trkpt lat="47.554021" lon="8.023095">
        <ele>299.897604</ele>
        <time>2021-11-21T14:06:16.290Z</time>
      </trkpt>
      <trkpt lat="47.554104" lon="8.023090">
        <ele>300.172109</ele>
        <time>2021-11-21T14:06:18.622Z</time>
      </trkpt>
      <trkpt lat="47.554194" lon="8.023085">
        <ele>300.469729</ele>
        <time>2021-11-21T14:06:21.002Z</time>
      </trkpt>
      <trkpt lat="47.554299" lon="8.023080">
        <ele>300.816887</ele>
        <time>2021-11-21T14:06:24.011Z</time>
      </trkpt>
      <trkpt lat="47.554701" lon="8.023055">
        <ele>302.146491</ele>
        <time>2021-11-21T14:06:35.713Z</time>
      </trkpt>
      <trkpt lat="47.554871" lon="8.023042">
        <ele>302.709014</ele>
        <time>2021-11-21T14:06:40.647Z</time>
      </trkpt>
      <trkpt lat="47.555073" lon="8.023022">
        <ele>303.418392</ele>
        <time>2021-11-21T14:06:46.669Z</time>
      </trkpt>
      <trkpt lat="47.555384" lon="8.022959">
        <ele>304.643331</ele>
        <time>2021-11-21T14:06:55.271Z</time>
      </trkpt>
      <trkpt lat="47.555814" lon="8.022759">
        <ele>306.402095</ele>
        <time>2021-11-21T14:07:07.763Z</time>
      </trkpt>
      <trkpt lat="47.556133" lon="8.022482">
        <ele>307.844970</ele>
        <time>2021-11-21T14:07:19.259Z</time>
      </trkpt>
      <trkpt lat="47.556863" lon="8.021668">
        <ele>311.907649</ele>
        <time>2021-11-21T14:07:49.560Z</time>
      </trkpt>
      <trkpt lat="47.557042" lon="8.021611">
        <ele>312.909598</ele>
        <time>2021-11-21T14:07:56.056Z</time>
      </trkpt>
      <trkpt lat="47.557190" lon="8.021670">
        <ele>313.748332</ele>
        <time>2021-11-21T14:08:00.651Z</time>
      </trkpt>
      <trkpt lat="47.557232" lon="8.021693">
        <ele>313.993373</ele>
        <time>2021-11-21T14:08:02.830Z</time>
      </trkpt>
      <trkpt lat="47.557354" lon="8.021790">
        <ele>314.751060</ele>
        <time>2021-11-21T14:08:06.941Z</time>
      </trkpt>
      <trkpt lat="47.557374" lon="8.021813">
        <ele>314.889605</ele>
        <time>2021-11-21T14:08:08.642Z</time>
      </trkpt>
      <trkpt lat="47.557721" lon="8.022248">
        <ele>317.376971</ele>
        <time>2021-11-21T14:08:24.385Z</time>
      </trkpt>
      <trkpt lat="47.558325" lon="8.023268">
        <ele>322.957926</ele>
        <time>2021-11-21T14:09:03.104Z</time>
      </trkpt>
      <trkpt lat="47.558843" lon="8.023745">
        <ele>327.096810</ele>
        <time>2021-11-21T14:09:29.636Z</time>
      </trkpt>
      <trkpt lat="47.559393" lon="8.024159">
        <ele>331.283331</ele>
        <time>2021-11-21T14:09:54.927Z</time>
      </trkpt>
      <trkpt lat="47.559502" lon="8.024274">
        <ele>332.191393</ele>
        <time>2021-11-21T14:10:01.076Z</time>
      </trkpt>
      <trkpt lat="47.559958" lon="8.024826">
        <ele>335.216033</ele>
        <time>2021-11-21T14:10:24.951Z</time>
      </trkpt>
      <trkpt lat="47.560078" lon="8.025111">
        <ele>336.377477</ele>
        <time>2021-11-21T14:10:33.735Z</time>
      </trkpt>
      <trkpt lat="47.560303" lon="8.026133">
        <ele>340.094251</ele>
        <time>2021-11-21T14:10:58.301Z</time>
      </trkpt>
      <trkpt lat="47.560381" lon="8.026393">
        <ele>341.078006</ele>
        <time>2021-11-21T14:11:03.870Z</time>
      </trkpt>
      <trkpt lat="47.560481" lon="8.026632">
        <ele>341.743033</ele>
        <time>2021-11-21T14:11:08.186Z</time>
      </trkpt>
      <trkpt lat="47.560798" lon="8.027161">
        <ele>342.959742</ele>
        <time>2021-11-21T14:11:20.643Z</time>
      </trkpt>
      <trkpt lat="47.561018" lon="8.027383">
        <ele>343.638073</ele>
        <time>2021-11-21T14:11:27.358Z</time>
      </trkpt>
      <trkpt lat="47.561969" lon="8.028038">
        <ele>346.201562</ele>
        <time>2021-11-21T14:11:52.635Z</time>
      </trkpt>
      <trkpt lat="47.562307" lon="8.028432">
        <ele>346.881835</ele>
        <time>2021-11-21T14:12:01.771Z</time>
      </trkpt>
      <trkpt lat="47.562445" lon="8.028648">
        <ele>347.199353</ele>
        <time>2021-11-21T14:12:05.845Z</time>
      </trkpt>
      <trkpt lat="47.562486" lon="8.028719">
        <ele>347.299106</ele>
        <time>2021-11-21T14:12:07.157Z</time>
      </trkpt>
      <trkpt lat="47.562597" lon="8.028906">
        <ele>347.564958</ele>
        <time>2021-11-21T14:12:10.677Z</time>
      </trkpt>
      <trkpt lat="47.562762" lon="8.029240">
        <ele>348.006817</ele>
        <time>2021-11-21T14:12:16.405Z</time>
      </trkpt>
      <trkpt lat="47.562862" lon="8.029514">
        <ele>348.339334</ele>
        <time>2021-11-21T14:12:20.749Z</time>
      </trkpt>
      <trkpt lat="47.562908" lon="8.029661">
        <ele>348.512299</ele>
        <time>2021-11-21T14:12:23.129Z</time>
      </trkpt>
      <trkpt lat="47.562995" lon="8.029987">
        <ele>348.887441</ele>
        <time>2021-11-21T14:12:28.085Z</time>
      </trkpt>
      <trkpt lat="47.563183" lon="8.030459">
        <ele>349.502198</ele>
        <time>2021-11-21T14:12:35.302Z</time>
      </trkpt>
      <trkpt lat="47.563345" lon="8.030793">
        <ele>349.963557</ele>
        <time>2021-11-21T14:12:40.602Z</time>
      </trkpt>
      <trkpt lat="47.563394" lon="8.030849">
        <ele>350.066412</ele>
        <time>2021-11-21T14:12:41.759Z</time>
      </trkpt>
      <trkpt lat="47.563725" lon="8.031208">
        <ele>350.748209</ele>
        <time>2021-11-21T14:12:49.672Z</time>
      </trkpt>
      <trkpt lat="47.564393" lon="8.032053">
        <ele>352.667153</ele>
        <time>2021-11-21T14:13:10.857Z</time>
      </trkpt>
      <trkpt lat="47.564511" lon="8.032311">
        <ele>353.475103</ele>
        <time>2021-11-21T14:13:16.182Z</time>
      </trkpt>
      <trkpt lat="47.564569" lon="8.032525">
        <ele>354.072915</ele>
        <time>2021-11-21T14:13:20.520Z</time>
      </trkpt>
      <trkpt lat="47.564678" lon="8.032921">
        <ele>355.181556</ele>
        <time>2021-11-21T14:13:27.867Z</time>
      </trkpt>
      <trkpt lat="47.564702" lon="8.033000">
        <ele>355.406139</ele>
        <time>2021-11-21T14:13:30.669Z</time>
      </trkpt>
      <trkpt lat="47.564933" lon="8.033469">
        <ele>356.911320</ele>
        <time>2021-11-21T14:13:43.621Z</time>
      </trkpt>
      <trkpt lat="47.565189" lon="8.033686">
        <ele>358.044295</ele>
        <time>2021-11-21T14:13:53.037Z</time>
      </trkpt>
      <trkpt lat="47.565871" lon="8.033704">
        <ele>361.366990</ele>
        <time>2021-11-21T14:14:17.152Z</time>
      </trkpt>
      <trkpt lat="47.566001" lon="8.033711">
        <ele>362.051741</ele>
        <time>2021-11-21T14:14:23.380Z</time>
      </trkpt>
      <trkpt lat="47.566321" lon="8.033776">
        <ele>363.751916</ele>
        <time>2021-11-21T14:14:34.663Z</time>
      </trkpt>
      <trkpt lat="47.566670" lon="8.033967">
        <ele>365.710245</ele>
        <time>2021-11-21T14:14:48.046Z</time>
      </trkpt>
      <trkpt lat="47.566763" lon="8.034017">
        <ele>366.230997</ele>
        <time>2021-11-21T14:14:51.780Z</time>
      </trkpt>
      <trkpt lat="47.567079" lon="8.034308">
        <ele>368.189313</ele>
        <time>2021-11-21T14:15:04.825Z</time>
      </trkpt>
      <trkpt lat="47.567313" lon="8.034591">
        <ele>369.457829</ele>
        <time>2021-11-21T14:15:15.897Z</time>
      </trkpt>
      <trkpt lat="47.567673" lon="8.035162">
        <ele>371.655684</ele>
        <time>2021-11-21T14:15:32.979Z</time>
      </trkpt>
      <trkpt lat="47.568018" lon="8.035824">
        <ele>374.008188</ele>
        <time>2021-11-21T14:15:49.637Z</time>
      </trkpt>
      <trkpt lat="47.568240" lon="8.036333">
        <ele>375.712728</ele>
        <time>2021-11-21T14:16:01.887Z</time>
      </trkpt>
      <trkpt lat="47.568395" lon="8.036764">
        <ele>376.902070</ele>
        <time>2021-11-21T14:16:11.201Z</time>
      </trkpt>
      <trkpt lat="47.568512" lon="8.037290">
        <ele>378.247697</ele>
        <time>2021-11-21T14:16:21.368Z</time>
      </trkpt>
      <trkpt lat="47.568537" lon="8.037570">
        <ele>378.933914</ele>
        <time>2021-11-21T14:16:27.186Z</time>
      </trkpt>
      <trkpt lat="47.568540" lon="8.037665">
        <ele>379.164979</ele>
        <time>2021-11-21T14:16:29.047Z</time>
      </trkpt>
      <trkpt lat="47.568562" lon="8.038275">
        <ele>380.649148</ele>
        <time>2021-11-21T14:16:41.272Z</time>
      </trkpt>
      <trkpt lat="47.568633" lon="8.038920">
        <ele>382.239773</ele>
        <time>2021-11-21T14:16:54.321Z</time>
      </trkpt>
      <trkpt lat="47.568715" lon="8.039132">
        <ele>382.894545</ele>
        <time>2021-11-21T14:16:59.647Z</time>
      </trkpt>
      <trkpt lat="47.568916" lon="8.039421">
        <ele>384.006671</ele>
        <time>2021-11-21T14:17:07.600Z</time>
      </trkpt>
      <trkpt lat="47.568992" lon="8.039490">
        <ele>384.360616</ele>
        <time>2021-11-21T14:17:10.621Z</time>
      </trkpt>
      <trkpt lat="47.569043" lon="8.039527">
        <ele>384.586116</ele>
        <time>2021-11-21T14:17:12.171Z</time>
      </trkpt>
      <trkpt lat="47.569103" lon="8.039554">
        <ele>384.835136</ele>
        <time>2021-11-21T14:17:13.697Z</time>
      </trkpt>
      <trkpt lat="47.569159" lon="8.039571">
        <ele>385.062147</ele>
        <time>2021-11-21T14:17:15.391Z</time>
      </trkpt>
      <trkpt lat="47.569259" lon="8.039574">
        <ele>385.459361</ele>
        <time>2021-11-21T14:17:18.441Z</time>
      </trkpt>
      <trkpt lat="47.569469" lon="8.039531">
        <ele>386.301260</ele>
        <time>2021-11-21T14:17:24.299Z</time>
      </trkpt>
      <trkpt lat="47.569586" lon="8.039479">
        <ele>386.786345</ele>
        <time>2021-11-21T14:17:27.825Z</time>
      </trkpt>
      <trkpt lat="47.569647" lon="8.039770">
        <ele>387.602824</ele>
        <time>2021-11-21T14:17:34.461Z</time>
      </trkpt>
      <trkpt lat="47.569695" lon="8.040052">
        <ele>388.382096</ele>
        <time>2021-11-21T14:17:40.809Z</time>
      </trkpt>
      <trkpt lat="47.569707" lon="8.040137">
        <ele>388.614780</ele>
        <time>2021-11-21T14:17:43.038Z</time>
      </trkpt>
      <trkpt lat="47.569814" lon="8.040942">
        <ele>391.246687</ele>
        <time>2021-11-21T14:18:01.969Z</time>
      </trkpt>
      <trkpt lat="47.569913" lon="8.041464">
        <ele>393.130760</ele>
        <time>2021-11-21T14:18:14.234Z</time>
      </trkpt>
      <trkpt lat="47.569947" lon="8.041607">
        <ele>393.657586</ele>
        <time>2021-11-21T14:18:17.625Z</time>
      </trkpt>
      <trkpt lat="47.570037" lon="8.042001">
        <ele>395.102936</ele>
        <time>2021-11-21T14:18:29.129Z</time>
      </trkpt>
      <trkpt lat="47.570472" lon="8.043006">
        <ele>398.989846</ele>
        <time>2021-11-21T14:18:58.046Z</time>
      </trkpt>
      <trkpt lat="47.570550" lon="8.043505">
        <ele>400.036855</ele>
        <time>2021-11-21T14:19:09.297Z</time>
      </trkpt>
      <trkpt lat="47.570553" lon="8.043603">
        <ele>400.237380</ele>
        <time>2021-11-21T14:19:13.151Z</time>
      </trkpt>
      <trkpt lat="47.570556" lon="8.043717">
        <ele>400.470581</ele>
        <time>2021-11-21T14:19:15.416Z</time>
      </trkpt>
      <trkpt lat="47.570458" lon="8.044327">
        <ele>401.752328</ele>
        <time>2021-11-21T14:19:26.957Z</time>
      </trkpt>
      <trkpt lat="47.570449" lon="8.044391">
        <ele>401.885960</ele>
        <time>2021-11-21T14:19:28.012Z</time>
      </trkpt>
      <trkpt lat="47.570407" lon="8.044709">
        <ele>402.548313</ele>
        <time>2021-11-21T14:19:33.953Z</time>
      </trkpt>
      <trkpt lat="47.570401" lon="8.044853">
        <ele>402.843221</ele>
        <time>2021-11-21T14:19:35.567Z</time>
      </trkpt>
      <trkpt lat="47.570393" lon="8.045065">
        <ele>403.277242</ele>
        <time>2021-11-21T14:19:37.831Z</time>
      </trkpt>
      <trkpt lat="47.570405" lon="8.045482">
        <ele>404.035665</ele>
        <time>2021-11-21T14:19:44.062Z</time>
      </trkpt>
      <trkpt lat="47.570410" lon="8.045595">
        <ele>403.932388</ele>
        <time>2021-11-21T14:19:44.949Z</time>
      </trkpt>
      <trkpt lat="47.570454" lon="8.045878">
        <ele>403.667529</ele>
        <time>2021-11-21T14:19:49.240Z</time>
      </trkpt>
      <trkpt lat="47.570703" lon="8.046690">
        <ele>402.854090</ele>
        <time>2021-11-21T14:19:55.758Z</time>
      </trkpt>
      <trkpt lat="47.570990" lon="8.047289">
        <ele>402.184071</ele>
        <time>2021-11-21T14:20:01.139Z</time>
      </trkpt>
      <trkpt lat="47.571053" lon="8.047570">
        <ele>401.914024</ele>
        <time>2021-11-21T14:20:03.232Z</time>
      </trkpt>
      <trkpt lat="47.571035" lon="8.047613">
        <ele>401.867874</ele>
        <time>2021-11-21T14:20:03.584Z</time>
      </trkpt>
      <trkpt lat="47.571041" lon="8.047802">
        <ele>401.695318</ele>
        <time>2021-11-21T14:20:05.071Z</time>
      </trkpt>
      <trkpt lat="47.571051" lon="8.047825">
        <ele>401.670364</ele>
        <time>2021-11-21T14:20:05.254Z</time>
      </trkpt>
      <trkpt lat="47.571060" lon="8.047840">
        <ele>401.652057</ele>
        <time>2021-11-21T14:20:05.386Z</time>
      </trkpt>
      <trkpt lat="47.571146" lon="8.047904">
        <ele>401.537813</ele>
        <time>2021-11-21T14:20:06.444Z</time>
      </trkpt>
      <trkpt lat="47.571173" lon="8.047904">
        <ele>401.506494</ele>
        <time>2021-11-21T14:20:06.716Z</time>
      </trkpt>
      <trkpt lat="47.571192" lon="8.047900">
        <ele>401.484233</ele>
        <time>2021-11-21T14:20:06.931Z</time>
      </trkpt>
      <trkpt lat="47.571216" lon="8.047888">
        <ele>401.454853</ele>
        <time>2021-11-21T14:20:07.231Z</time>
      </trkpt>
      <trkpt lat="47.571230" lon="8.047878">
        <ele>401.436826</ele>
        <time>2021-11-21T14:20:07.393Z</time>
      </trkpt>
      <trkpt lat="47.571328" lon="8.047952">
        <ele>401.309247</ele>
        <time>2021-11-21T14:20:08.711Z</time>
      </trkpt>
      <trkpt lat="47.571393" lon="8.048046">
        <ele>401.203906</ele>
        <time>2021-11-21T14:20:09.686Z</time>
      </trkpt>
      <trkpt lat="47.571420" lon="8.048138">
        <ele>401.125390</ele>
        <time>2021-11-21T14:20:10.416Z</time>
      </trkpt>
      <trkpt lat="47.571850" lon="8.050064">
        <ele>399.553359</ele>
        <time>2021-11-21T14:20:26.926Z</time>
      </trkpt>
      <trkpt lat="47.572078" lon="8.050690">
        <ele>399.913117</ele>
        <time>2021-11-21T14:20:35.038Z</time>
      </trkpt>
      <trkpt lat="47.572428" lon="8.051523">
        <ele>400.409382</ele>
        <time>2021-11-21T14:20:48.841Z</time>
      </trkpt>
      <trkpt lat="47.572498" lon="8.051744">
        <ele>400.532847</ele>
        <time>2021-11-21T14:20:52.556Z</time>
      </trkpt>
      <trkpt lat="47.572645" lon="8.052612">
        <ele>400.725186</ele>
        <time>2021-11-21T14:21:03.217Z</time>
      </trkpt>
      <trkpt lat="47.572728" lon="8.053331">
        <ele>400.027305</ele>
        <time>2021-11-21T14:21:11.101Z</time>
      </trkpt>
      <trkpt lat="47.572769" lon="8.053639">
        <ele>399.726953</ele>
        <time>2021-11-21T14:21:13.674Z</time>
      </trkpt>
      <trkpt lat="47.572855" lon="8.053943">
        <ele>399.411575</ele>
        <time>2021-11-21T14:21:16.409Z</time>
      </trkpt>
      <trkpt lat="47.573098" lon="8.054422">
        <ele>398.838202</ele>
        <time>2021-11-21T14:21:20.722Z</time>
      </trkpt>
      <trkpt lat="47.573806" lon="8.055119">
        <ele>396.604596</ele>
        <time>2021-11-21T14:21:29.062Z</time>
      </trkpt>
      <trkpt lat="47.573993" lon="8.055472">
        <ele>395.554928</ele>
        <time>2021-11-21T14:21:31.880Z</time>
      </trkpt>
      <trkpt lat="47.574121" lon="8.056069">
        <ele>394.089901</ele>
        <time>2021-11-21T14:21:35.994Z</time>
      </trkpt>
      <trkpt lat="47.574181" lon="8.057386">
        <ele>392.173962</ele>
        <time>2021-11-21T14:21:45.559Z</time>
      </trkpt>
      <trkpt lat="47.574225" lon="8.057606">
        <ele>392.205193</ele>
        <time>2021-11-21T14:21:47.263Z</time>
      </trkpt>
      <trkpt lat="47.574360" lon="8.057968">
        <ele>392.261488</ele>
        <time>2021-11-21T14:21:51.484Z</time>
      </trkpt>
      <trkpt lat="47.574691" lon="8.058686">
        <ele>392.379846</ele>
        <time>2021-11-21T14:22:02.705Z</time>
      </trkpt>
      <trkpt lat="47.575062" lon="8.059032">
        <ele>392.468273</ele>
        <time>2021-11-21T14:22:13.171Z</time>
      </trkpt>
      <trkpt lat="47.575229" lon="8.059329">
        <ele>392.688541</ele>
        <time>2021-11-21T14:22:19.081Z</time>
      </trkpt>
      <trkpt lat="47.575626" lon="8.060407">
        <ele>393.433736</ele>
        <time>2021-11-21T14:22:36.044Z</time>
      </trkpt>
      <trkpt lat="47.575642" lon="8.060451">
        <ele>393.464064</ele>
        <time>2021-11-21T14:22:37.391Z</time>
      </trkpt>
      <trkpt lat="47.575791" lon="8.060748">
        <ele>393.688636</ele>
        <time>2021-11-21T14:22:40.886Z</time>
      </trkpt>
      <trkpt lat="47.576045" lon="8.061150">
        <ele>394.022825</ele>
        <time>2021-11-21T14:22:46.180Z</time>
      </trkpt>
      <trkpt lat="47.576551" lon="8.062025">
        <ele>393.614054</ele>
        <time>2021-11-21T14:22:55.932Z</time>
      </trkpt>
      <trkpt lat="47.576712" lon="8.062700">
        <ele>393.286823</ele>
        <time>2021-11-21T14:23:01.463Z</time>
      </trkpt>
      <trkpt lat="47.576741" lon="8.063055">
        <ele>393.123382</ele>
        <time>2021-11-21T14:23:04.539Z</time>
      </trkpt>
      <trkpt lat="47.576746" lon="8.063355">
        <ele>392.986223</ele>
        <time>2021-11-21T14:23:07.132Z</time>
      </trkpt>
      <trkpt lat="47.576746" lon="8.063401">
        <ele>392.965198</ele>
        <time>2021-11-21T14:23:07.795Z</time>
      </trkpt>
      <trkpt lat="47.576737" lon="8.063729">
        <ele>392.929212</ele>
        <time>2021-11-21T14:23:11.083Z</time>
      </trkpt>
      <trkpt lat="47.576750" lon="8.064033">
        <ele>393.071839</ele>
        <time>2021-11-21T14:23:14.608Z</time>
      </trkpt>
      <trkpt lat="47.576848" lon="8.064544">
        <ele>393.320582</ele>
        <time>2021-11-21T14:23:20.744Z</time>
      </trkpt>
      <trkpt lat="47.576978" lon="8.064848">
        <ele>393.489112</ele>
        <time>2021-11-21T14:23:25.000Z</time>
      </trkpt>
      <trkpt lat="47.577043" lon="8.064953">
        <ele>393.555838</ele>
        <time>2021-11-21T14:23:27.612Z</time>
      </trkpt>
      <trkpt lat="47.577380" lon="8.065302">
        <ele>393.841169</ele>
        <time>2021-11-21T14:23:35.574Z</time>
      </trkpt>
      <trkpt lat="47.577609" lon="8.065406">
        <ele>394.007404</ele>
        <time>2021-11-21T14:23:39.961Z</time>
      </trkpt>
      <trkpt lat="47.577839" lon="8.065448">
        <ele>394.184718</ele>
        <time>2021-11-21T14:23:43.564Z</time>
      </trkpt>
      <trkpt lat="47.578177" lon="8.065370">
        <ele>394.503005</ele>
        <time>2021-11-21T14:23:49.186Z</time>
      </trkpt>
      <trkpt lat="47.578363" lon="8.065294">
        <ele>394.682526</ele>
        <time>2021-11-21T14:23:53.593Z</time>
      </trkpt>
      <trkpt lat="47.578623" lon="8.065188">
        <ele>394.933431</ele>
        <time>2021-11-21T14:23:57.686Z</time>
      </trkpt>
      <trkpt lat="47.579003" lon="8.065169">
        <ele>395.287211</ele>
        <time>2021-11-21T14:24:04.420Z</time>
      </trkpt>
      <trkpt lat="47.579104" lon="8.065203">
        <ele>395.383581</ele>
        <time>2021-11-21T14:24:06.576Z</time>
      </trkpt>
      <trkpt lat="47.579181" lon="8.065229">
        <ele>395.457062</ele>
        <time>2021-11-21T14:24:07.627Z</time>
      </trkpt>
      <trkpt lat="47.579504" lon="8.065414">
        <ele>395.779256</ele>
        <time>2021-11-21T14:24:14.652Z</time>
      </trkpt>
      <trkpt lat="47.579627" lon="8.065529">
        <ele>396.270231</ele>
        <time>2021-11-21T14:24:17.480Z</time>
      </trkpt>
      <trkpt lat="47.579737" lon="8.065632">
        <ele>396.746877</ele>
        <time>2021-11-21T14:24:21.073Z</time>
      </trkpt>
      <trkpt lat="47.579947" lon="8.065949">
        <ele>397.844874</ele>
        <time>2021-11-21T14:24:27.400Z</time>
      </trkpt>
      <trkpt lat="47.580169" lon="8.066489">
        <ele>399.407665</ele>
        <time>2021-11-21T14:24:38.611Z</time>
      </trkpt>
      <trkpt lat="47.580436" lon="8.068266">
        <ele>404.889734</ele>
        <time>2021-11-21T14:25:23.497Z</time>
      </trkpt>
      <trkpt lat="47.580540" lon="8.068640">
        <ele>406.534333</ele>
        <time>2021-11-21T14:25:36.110Z</time>
      </trkpt>
      <trkpt lat="47.581072" lon="8.070001">
        <ele>412.929220</ele>
        <time>2021-11-21T14:26:18.462Z</time>
      </trkpt>
      <trkpt lat="47.581200" lon="8.070445">
        <ele>414.237069</ele>
        <time>2021-11-21T14:26:29.750Z</time>
      </trkpt>
      <trkpt lat="47.581302" lon="8.070775">
        <ele>415.133589</ele>
        <time>2021-11-21T14:26:38.007Z</time>
      </trkpt>
      <trkpt lat="47.581397" lon="8.071044">
        <ele>415.883507</ele>
        <time>2021-11-21T14:26:43.821Z</time>
      </trkpt>
      <trkpt lat="47.581509" lon="8.071314">
        <ele>416.666348</ele>
        <time>2021-11-21T14:26:50.694Z</time>
      </trkpt>
      <trkpt lat="47.581542" lon="8.071281">
        <ele>416.812094</ele>
        <time>2021-11-21T14:26:51.186Z</time>
      </trkpt>
      <trkpt lat="47.581788" lon="8.071022">
        <ele>417.916835</ele>
        <time>2021-11-21T14:27:00.290Z</time>
      </trkpt>
      <trkpt lat="47.582315" lon="8.070091">
        <ele>420.840875</ele>
        <time>2021-11-21T14:27:18.848Z</time>
      </trkpt>
      <trkpt lat="47.582538" lon="8.069833">
        <ele>421.804115</ele>
        <time>2021-11-21T14:27:25.573Z</time>
      </trkpt>
      <trkpt lat="47.583517" lon="8.069235">
        <ele>425.409732</ele>
        <time>2021-11-21T14:27:57.469Z</time>
      </trkpt>
      <trkpt lat="47.584024" lon="8.068613">
        <ele>428.134969</ele>
        <time>2021-11-21T14:28:19.360Z</time>
      </trkpt>
      <trkpt lat="47.584143" lon="8.068422">
        <ele>428.900618</ele>
        <time>2021-11-21T14:28:26.060Z</time>
      </trkpt>
      <trkpt lat="47.584215" lon="8.068264">
        <ele>429.462100</ele>
        <time>2021-11-21T14:28:29.736Z</time>
      </trkpt>
      <trkpt lat="47.584279" lon="8.068165">
        <ele>429.865894</ele>
        <time>2021-11-21T14:28:32.669Z</time>
      </trkpt>
      <trkpt lat="47.584318" lon="8.068107">
        <ele>430.107052</ele>
        <time>2021-11-21T14:28:35.133Z</time>
      </trkpt>
      <trkpt lat="47.584874" lon="8.067572">
        <ele>433.000764</ele>
        <time>2021-11-21T14:28:55.851Z</time>
      </trkpt>
      <trkpt lat="47.585232" lon="8.067099">
        <ele>434.996278</ele>
        <time>2021-11-21T14:29:11.214Z</time>
      </trkpt>
      <trkpt lat="47.585530" lon="8.066367">
        <ele>437.325469</ele>
        <time>2021-11-21T14:29:26.564Z</time>
      </trkpt>
      <trkpt lat="47.586171" lon="8.065140">
        <ele>441.927002</ele>
        <time>2021-11-21T14:29:59.249Z</time>
      </trkpt>
      <trkpt lat="47.586300" lon="8.064866">
        <ele>443.513137</ele>
        <time>2021-11-21T14:30:08.068Z</time>
      </trkpt>
      <trkpt lat="47.586526" lon="8.064430">
        <ele>446.123303</ele>
        <time>2021-11-21T14:30:23.405Z</time>
      </trkpt>
      <trkpt lat="47.586768" lon="8.064082">
        <ele>448.495917</ele>
        <time>2021-11-21T14:30:38.213Z</time>
      </trkpt>
      <trkpt lat="47.587322" lon="8.063441">
        <ele>453.441520</ele>
        <time>2021-11-21T14:31:11.809Z</time>
      </trkpt>
      <trkpt lat="47.588385" lon="8.062490">
        <ele>463.888609</ele>
        <time>2021-11-21T14:32:14.989Z</time>
      </trkpt>
      <trkpt lat="47.588982" lon="8.062103">
        <ele>469.289027</ele>
        <time>2021-11-21T14:32:45.473Z</time>
      </trkpt>
      <trkpt lat="47.589304" lon="8.061913">
        <ele>471.541910</ele>
        <time>2021-11-21T14:33:00.613Z</time>
      </trkpt>
      <trkpt lat="47.589379" lon="8.061884">
        <ele>472.045766</ele>
        <time>2021-11-21T14:33:03.819Z</time>
      </trkpt>
      <trkpt lat="47.589565" lon="8.061807">
        <ele>473.301135</ele>
        <time>2021-11-21T14:33:11.770Z</time>
      </trkpt>
      <trkpt lat="47.589831" lon="8.061768">
        <ele>475.038747</ele>
        <time>2021-11-21T14:33:22.367Z</time>
      </trkpt>
      <trkpt lat="47.589938" lon="8.061742">
        <ele>475.743597</ele>
        <time>2021-11-21T14:33:26.390Z</time>
      </trkpt>
      <trkpt lat="47.590004" lon="8.061716">
        <ele>476.187526</ele>
        <time>2021-11-21T14:33:29.104Z</time>
      </trkpt>
      <trkpt lat="47.590534" lon="8.061506">
        <ele>479.753777</ele>
        <time>2021-11-21T14:33:51.405Z</time>
      </trkpt>
      <trkpt lat="47.590649" lon="8.061473">
        <ele>480.515226</ele>
        <time>2021-11-21T14:33:55.429Z</time>
      </trkpt>
      <trkpt lat="47.590749" lon="8.061458">
        <ele>481.068552</ele>
        <time>2021-11-21T14:33:59.294Z</time>
      </trkpt>
      <trkpt lat="47.590896" lon="8.061451">
        <ele>481.852124</ele>
        <time>2021-11-21T14:34:04.907Z</time>
      </trkpt>
      <trkpt lat="47.591117" lon="8.061554">
        <ele>483.086334</ele>
        <time>2021-11-21T14:34:12.890Z</time>
      </trkpt>
      <trkpt lat="47.591357" lon="8.061643">
        <ele>484.404358</ele>
        <time>2021-11-21T14:34:20.975Z</time>
      </trkpt>
      <trkpt lat="47.591418" lon="8.061708">
        <ele>484.804561</ele>
        <time>2021-11-21T14:34:23.651Z</time>
      </trkpt>
      <trkpt lat="47.591483" lon="8.061686">
        <ele>485.159767</ele>
        <time>2021-11-21T14:34:26.771Z</time>
      </trkpt>
      <trkpt lat="47.592349" lon="8.061287">
        <ele>489.991134</ele>
        <time>2021-11-21T14:34:57.992Z</time>
      </trkpt>
      <trkpt lat="47.592684" lon="8.061253">
        <ele>492.095959</ele>
        <time>2021-11-21T14:35:10.829Z</time>
      </trkpt>
      <trkpt lat="47.593024" lon="8.061322">
        <ele>494.288987</ele>
        <time>2021-11-21T14:35:24.638Z</time>
      </trkpt>
      <trkpt lat="47.593334" lon="8.061386">
        <ele>496.289154</ele>
        <time>2021-11-21T14:35:37.145Z</time>
      </trkpt>
      <trkpt lat="47.593551" lon="8.061391">
        <ele>497.676062</ele>
        <time>2021-11-21T14:35:44.688Z</time>
      </trkpt>
      <trkpt lat="47.593682" lon="8.061366">
        <ele>498.520123</ele>
        <time>2021-11-21T14:35:51.043Z</time>
      </trkpt>
      <trkpt lat="47.593887" lon="8.061332">
        <ele>499.838346</ele>
        <time>2021-11-21T14:35:59.178Z</time>
      </trkpt>
      <trkpt lat="47.594006" lon="8.061362">
        <ele>500.609729</ele>
        <time>2021-11-21T14:36:05.137Z</time>
      </trkpt>
      <trkpt lat="47.594338" lon="8.061466">
        <ele>503.012738</ele>
        <time>2021-11-21T14:36:20.605Z</time>
      </trkpt>
      <trkpt lat="47.594403" lon="8.061507">
        <ele>503.561511</ele>
        <time>2021-11-21T14:36:24.377Z</time>
      </trkpt>
      <trkpt lat="47.594519" lon="8.061486">
        <ele>504.469405</ele>
        <time>2021-11-21T14:36:28.924Z</time>
      </trkpt>
      <trkpt lat="47.594606" lon="8.061501">
        <ele>505.149861</ele>
        <time>2021-11-21T14:36:32.566Z</time>
      </trkpt>
      <trkpt lat="47.594683" lon="8.061515">
        <ele>505.752554</ele>
        <time>2021-11-21T14:36:36.703Z</time>
      </trkpt>
      <trkpt lat="47.595027" lon="8.061716">
        <ele>508.625078</ele>
        <time>2021-11-21T14:36:53.695Z</time>
      </trkpt>
      <trkpt lat="47.595102" lon="8.061781">
        <ele>509.299971</ele>
        <time>2021-11-21T14:36:58.096Z</time>
      </trkpt>
      <trkpt lat="47.595208" lon="8.061913">
        <ele>510.375349</ele>
        <time>2021-11-21T14:37:03.721Z</time>
      </trkpt>
      <trkpt lat="47.595349" lon="8.062082">
        <ele>511.783865</ele>
        <time>2021-11-21T14:37:12.876Z</time>
      </trkpt>
      <trkpt lat="47.595363" lon="8.062099">
        <ele>511.924444</ele>
        <time>2021-11-21T14:37:13.821Z</time>
      </trkpt>
      <trkpt lat="47.595583" lon="8.062360">
        <ele>514.113301</ele>
        <time>2021-11-21T14:37:26.349Z</time>
      </trkpt>
      <trkpt lat="47.595791" lon="8.062463">
        <ele>515.815114</ele>
        <time>2021-11-21T14:37:36.681Z</time>
      </trkpt>
      <trkpt lat="47.595976" lon="8.062483">
        <ele>517.238636</ele>
        <time>2021-11-21T14:37:45.624Z</time>
      </trkpt>
      <trkpt lat="47.596147" lon="8.062473">
        <ele>518.551969</ele>
        <time>2021-11-21T14:37:53.202Z</time>
      </trkpt>
      <trkpt lat="47.596472" lon="8.062411">
        <ele>521.066685</ele>
        <time>2021-11-21T14:38:07.983Z</time>
      </trkpt>
      <trkpt lat="47.596613" lon="8.062312">
        <ele>522.263931</ele>
        <time>2021-11-21T14:38:15.452Z</time>
      </trkpt>
      <trkpt lat="47.596843" lon="8.062143">
        <ele>524.233830</ele>
        <time>2021-11-21T14:38:26.809Z</time>
      </trkpt>
      <trkpt lat="47.597167" lon="8.061926">
        <ele>526.962155</ele>
        <time>2021-11-21T14:38:43.031Z</time>
      </trkpt>
      <trkpt lat="47.598008" lon="8.061370">
        <ele>534.428266</ele>
        <time>2021-11-21T14:39:24.644Z</time>
      </trkpt>
      <trkpt lat="47.598305" lon="8.061203">
        <ele>537.079502</ele>
        <time>2021-11-21T14:39:38.168Z</time>
      </trkpt>
      <trkpt lat="47.598433" lon="8.061131">
        <ele>538.222176</ele>
        <time>2021-11-21T14:39:45.352Z</time>
      </trkpt>
      <trkpt lat="47.598574" lon="8.061034">
        <ele>539.519552</ele>
        <time>2021-11-21T14:39:53.155Z</time>
      </trkpt>
      <trkpt lat="47.598585" lon="8.061025">
        <ele>539.624414</ele>
        <time>2021-11-21T14:39:53.770Z</time>
      </trkpt>
      <trkpt lat="47.598681" lon="8.060936">
        <ele>540.569408</ele>
        <time>2021-11-21T14:39:58.626Z</time>
      </trkpt>
      <trkpt lat="47.598778" lon="8.060822">
        <ele>541.602477</ele>
        <time>2021-11-21T14:40:05.693Z</time>
      </trkpt>
      <trkpt lat="47.599152" lon="8.060267">
        <ele>546.453260</ele>
        <time>2021-11-21T14:40:32.502Z</time>
      </trkpt>
      <trkpt lat="47.599476" lon="8.060117">
        <ele>550.086983</ele>
        <time>2021-11-21T14:40:52.366Z</time>
      </trkpt>
      <trkpt lat="47.599584" lon="8.060139">
        <ele>551.254049</ele>
        <time>2021-11-21T14:40:58.401Z</time>
      </trkpt>
      <trkpt lat="47.599744" lon="8.060234">
        <ele>553.099138</ele>
        <time>2021-11-21T14:41:11.086Z</time>
      </trkpt>
      <trkpt lat="47.599932" lon="8.060524">
        <ele>556.003175</ele>
        <time>2021-11-21T14:41:26.939Z</time>
      </trkpt>
      <trkpt lat="47.600005" lon="8.060808">
        <ele>558.197233</ele>
        <time>2021-11-21T14:41:37.220Z</time>
      </trkpt>
      <trkpt lat="47.600119" lon="8.061435">
        <ele>562.885096</ele>
        <time>2021-11-21T14:42:02.409Z</time>
      </trkpt>
      <trkpt lat="47.600146" lon="8.061582">
        <ele>563.952958</ele>
        <time>2021-11-21T14:42:10.694Z</time>
      </trkpt>
      <trkpt lat="47.600274" lon="8.061963">
        <ele>566.630132</ele>
        <time>2021-11-21T14:42:25.896Z</time>
      </trkpt>
      <trkpt lat="47.600310" lon="8.062040">
        <ele>567.219429</ele>
        <time>2021-11-21T14:42:31.726Z</time>
      </trkpt>
      <trkpt lat="47.600544" lon="8.062457">
        <ele>570.631434</ele>
        <time>2021-11-21T14:42:51.573Z</time>
      </trkpt>
      <trkpt lat="47.601621" lon="8.064000">
        <ele>584.189605</ele>
        <time>2021-11-21T14:44:03.101Z</time>
      </trkpt>
      <trkpt lat="47.601951" lon="8.064377">
        <ele>587.685958</ele>
        <time>2021-11-21T14:44:23.260Z</time>
      </trkpt>
      <trkpt lat="47.602193" lon="8.064568">
        <ele>589.986901</ele>
        <time>2021-11-21T14:44:36.113Z</time>
      </trkpt>
      <trkpt lat="47.602464" lon="8.064709">
        <ele>592.397445</ele>
        <time>2021-11-21T14:44:50.111Z</time>
      </trkpt>
      <trkpt lat="47.602708" lon="8.064730">
        <ele>594.448896</ele>
        <time>2021-11-21T14:45:03.032Z</time>
      </trkpt>
      <trkpt lat="47.603157" lon="8.064743">
        <ele>598.106349</ele>
        <time>2021-11-21T14:45:24.865Z</time>
      </trkpt>
      <trkpt lat="47.604643" lon="8.064490">
        <ele>610.098067</ele>
        <time>2021-11-21T14:46:36.916Z</time>
      </trkpt>
      <trkpt lat="47.604826" lon="8.064383">
        <ele>611.076127</ele>
        <time>2021-11-21T14:46:44.255Z</time>
      </trkpt>
      <trkpt lat="47.605007" lon="8.064219">
        <ele>612.130739</ele>
        <time>2021-11-21T14:46:52.036Z</time>
      </trkpt>
      <trkpt lat="47.605208" lon="8.063962">
        <ele>613.450251</ele>
        <time>2021-11-21T14:47:01.093Z</time>
      </trkpt>
      <trkpt lat="47.605582" lon="8.063236">
        <ele>616.513196</ele>
        <time>2021-11-21T14:47:21.206Z</time>
      </trkpt>
      <trkpt lat="47.606046" lon="8.061983">
        <ele>620.508806</ele>
        <time>2021-11-21T14:47:50.677Z</time>
      </trkpt>
      <trkpt lat="47.606225" lon="8.061315">
        <ele>622.085075</ele>
        <time>2021-11-21T14:48:04.053Z</time>
      </trkpt>
      <trkpt lat="47.606493" lon="8.060596">
        <ele>623.886622</ele>
        <time>2021-11-21T14:48:19.379Z</time>
      </trkpt>
      <trkpt lat="47.606732" lon="8.060223">
        <ele>624.935934</ele>
        <time>2021-11-21T14:48:28.250Z</time>
      </trkpt>
      <trkpt lat="47.607298" lon="8.059551">
        <ele>626.151198</ele>
        <time>2021-11-21T14:48:45.577Z</time>
      </trkpt>
      <trkpt lat="47.607484" lon="8.059398">
        <ele>626.507711</ele>
        <time>2021-11-21T14:48:50.236Z</time>
      </trkpt>
      <trkpt lat="47.607659" lon="8.059344">
        <ele>626.807331</ele>
        <time>2021-11-21T14:48:53.776Z</time>
      </trkpt>
      <trkpt lat="47.607922" lon="8.059421">
        <ele>627.256683</ele>
        <time>2021-11-21T14:48:59.006Z</time>
      </trkpt>
      <trkpt lat="47.608022" lon="8.059501">
        <ele>627.447132</ele>
        <time>2021-11-21T14:49:00.643Z</time>
      </trkpt>
      <trkpt lat="47.608687" lon="8.059898">
        <ele>628.219684</ele>
        <time>2021-11-21T14:49:13.207Z</time>
      </trkpt>
      <trkpt lat="47.608928" lon="8.059951">
        <ele>628.403997</ele>
        <time>2021-11-21T14:49:17.690Z</time>
      </trkpt>
      <trkpt lat="47.609573" lon="8.059819">
        <ele>628.896573</ele>
        <time>2021-11-21T14:49:28.112Z</time>
      </trkpt>
      <trkpt lat="47.609993" lon="8.059799">
        <ele>629.214473</ele>
        <time>2021-11-21T14:49:36.628Z</time>
      </trkpt>
      <trkpt lat="47.610551" lon="8.059949">
        <ele>630.260355</ele>
        <time>2021-11-21T14:49:47.922Z</time>
      </trkpt>
      <trkpt lat="47.610950" lon="8.059922">
        <ele>631.010577</ele>
        <time>2021-11-21T14:49:56.494Z</time>
      </trkpt>
      <trkpt lat="47.611222" lon="8.060034">
        <ele>631.540795</ele>
        <time>2021-11-21T14:50:02.653Z</time>
      </trkpt>
      <trkpt lat="47.611314" lon="8.060105">
        <ele>631.735587</ele>
        <time>2021-11-21T14:50:05.018Z</time>
      </trkpt>
      <trkpt lat="47.611373" lon="8.060182">
        <ele>631.883194</ele>
        <time>2021-11-21T14:50:07.237Z</time>
      </trkpt>
      <trkpt lat="47.611788" lon="8.061004">
        <ele>633.767476</ele>
        <time>2021-11-21T14:50:24.721Z</time>
      </trkpt>
      <trkpt lat="47.612021" lon="8.061323">
        <ele>634.964971</ele>
        <time>2021-11-21T14:50:33.687Z</time>
      </trkpt>
      <trkpt lat="47.612171" lon="8.061421">
        <ele>635.583988</ele>
        <time>2021-11-21T14:50:38.756Z</time>
      </trkpt>
      <trkpt lat="47.612531" lon="8.061447">
        <ele>636.945205</ele>
        <time>2021-11-21T14:50:50.131Z</time>
      </trkpt>
      <trkpt lat="47.612751" lon="8.061412">
        <ele>637.780840</ele>
        <time>2021-11-21T14:50:56.743Z</time>
      </trkpt>
      <trkpt lat="47.613627" lon="8.061178">
        <ele>641.607081</ele>
        <time>2021-11-21T14:51:26.213Z</time>
      </trkpt>
      <trkpt lat="47.613978" lon="8.060933">
        <ele>643.462525</ele>
        <time>2021-11-21T14:51:40.427Z</time>
      </trkpt>
      <trkpt lat="47.614147" lon="8.060535">
        <ele>644.979199</ele>
        <time>2021-11-21T14:51:51.973Z</time>
      </trkpt>
      <trkpt lat="47.614239" lon="8.060060">
        <ele>646.572744</ele>
        <time>2021-11-21T14:52:03.939Z</time>
      </trkpt>
      <trkpt lat="47.614248" lon="8.059802">
        <ele>647.405747</ele>
        <time>2021-11-21T14:52:09.544Z</time>
      </trkpt>
      <trkpt lat="47.614399" lon="8.059755">
        <ele>648.067301</ele>
        <time>2021-11-21T14:52:14.636Z</time>
      </trkpt>
      <trkpt lat="47.614565" lon="8.059680">
        <ele>648.450108</ele>
        <time>2021-11-21T14:52:19.741Z</time>
      </trkpt>
      <trkpt lat="47.615048" lon="8.059219">
        <ele>649.717109</ele>
        <time>2021-11-21T14:52:35.691Z</time>
      </trkpt>
      <trkpt lat="47.615348" lon="8.059227">
        <ele>650.379022</ele>
        <time>2021-11-21T14:52:42.810Z</time>
      </trkpt>
      <trkpt lat="47.615451" lon="8.059291">
        <ele>650.625369</ele>
        <time>2021-11-21T14:52:45.980Z</time>
      </trkpt>
      <trkpt lat="47.615486" lon="8.059322">
        <ele>650.715295</ele>
        <time>2021-11-21T14:52:46.455Z</time>
      </trkpt>
      <trkpt lat="47.615627" lon="8.059482">
        <ele>651.106912</ele>
        <time>2021-11-21T14:52:50.071Z</time>
      </trkpt>
      <trkpt lat="47.615672" lon="8.059665">
        <ele>651.396588</ele>
        <time>2021-11-21T14:52:52.958Z</time>
      </trkpt>
      <trkpt lat="47.615560" lon="8.060605">
        <ele>651.472166</ele>
        <time>2021-11-21T14:53:01.198Z</time>
      </trkpt>
      <trkpt lat="47.615649" lon="8.061223">
        <ele>650.919722</ele>
        <time>2021-11-21T14:53:06.663Z</time>
      </trkpt>
      <trkpt lat="47.615893" lon="8.061708">
        <ele>650.390677</ele>
        <time>2021-11-21T14:53:11.143Z</time>
      </trkpt>
      <trkpt lat="47.616006" lon="8.062039">
        <ele>650.066329</ele>
        <time>2021-11-21T14:53:13.925Z</time>
      </trkpt>
      <trkpt lat="47.616151" lon="8.062583">
        <ele>649.469323</ele>
        <time>2021-11-21T14:53:18.221Z</time>
      </trkpt>
      <trkpt lat="47.616304" lon="8.062945">
        <ele>648.706958</ele>
        <time>2021-11-21T14:53:21.301Z</time>
      </trkpt>
      <trkpt lat="47.616475" lon="8.063255">
        <ele>647.992248</ele>
        <time>2021-11-21T14:53:24.157Z</time>
      </trkpt>
      <trkpt lat="47.616877" lon="8.063786">
        <ele>646.567514</ele>
        <time>2021-11-21T14:53:29.835Z</time>
      </trkpt>
      <trkpt lat="47.616970" lon="8.064104">
        <ele>645.949026</ele>
        <time>2021-11-21T14:53:32.292Z</time>
      </trkpt>
      <trkpt lat="47.616911" lon="8.064532">
        <ele>645.169565</ele>
        <time>2021-11-21T14:53:35.321Z</time>
      </trkpt>
      <trkpt lat="47.616546" lon="8.065501">
        <ele>642.929311</ele>
        <time>2021-11-21T14:53:42.765Z</time>
      </trkpt>
      <trkpt lat="47.616370" lon="8.066435">
        <ele>640.932605</ele>
        <time>2021-11-21T14:53:49.391Z</time>
      </trkpt>
      <trkpt lat="47.616340" lon="8.066594">
        <ele>640.592662</ele>
        <time>2021-11-21T14:53:50.474Z</time>
      </trkpt>
      <trkpt lat="47.616393" lon="8.067205">
        <ele>639.359380</ele>
        <time>2021-11-21T14:53:54.815Z</time>
      </trkpt>
      <trkpt lat="47.616682" lon="8.068707">
        <ele>638.073441</ele>
        <time>2021-11-21T14:54:06.674Z</time>
      </trkpt>
      <trkpt lat="47.616924" lon="8.069947">
        <ele>637.169179</ele>
        <time>2021-11-21T14:54:19.102Z</time>
      </trkpt>
      <trkpt lat="47.616982" lon="8.070184">
        <ele>637.149216</ele>
        <time>2021-11-21T14:54:21.854Z</time>
      </trkpt>
      <trkpt lat="47.617122" lon="8.070498">
        <ele>637.119410</ele>
        <time>2021-11-21T14:54:25.525Z</time>
      </trkpt>
      <trkpt lat="47.617222" lon="8.070610">
        <ele>637.104693</ele>
        <time>2021-11-21T14:54:27.591Z</time>
      </trkpt>
      <trkpt lat="47.617356" lon="8.070721">
        <ele>637.086667</ele>
        <time>2021-11-21T14:54:29.768Z</time>
      </trkpt>
      <trkpt lat="47.617487" lon="8.070818">
        <ele>637.069471</ele>
        <time>2021-11-21T14:54:32.186Z</time>
      </trkpt>
      <trkpt lat="47.617681" lon="8.070905">
        <ele>637.045667</ele>
        <time>2021-11-21T14:54:35.068Z</time>
      </trkpt>
      <trkpt lat="47.617806" lon="8.070985">
        <ele>637.029677</ele>
        <time>2021-11-21T14:54:37.179Z</time>
      </trkpt>
      <trkpt lat="47.618063" lon="8.071006">
        <ele>636.999446</ele>
        <time>2021-11-21T14:54:40.751Z</time>
      </trkpt>
      <trkpt lat="47.618447" lon="8.070893">
        <ele>636.807665</ele>
        <time>2021-11-21T14:54:46.005Z</time>
      </trkpt>
      <trkpt lat="47.618628" lon="8.070987">
        <ele>636.631134</ele>
        <time>2021-11-21T14:54:48.401Z</time>
      </trkpt>
      <trkpt lat="47.618909" lon="8.071464">
        <ele>636.238054</ele>
        <time>2021-11-21T14:54:53.723Z</time>
      </trkpt>
      <trkpt lat="47.619109" lon="8.072083">
        <ele>635.812123</ele>
        <time>2021-11-21T14:54:59.494Z</time>
      </trkpt>
      <trkpt lat="47.619154" lon="8.072283">
        <ele>635.681294</ele>
        <time>2021-11-21T14:55:01.080Z</time>
      </trkpt>
      <trkpt lat="47.619210" lon="8.072542">
        <ele>635.512521</ele>
        <time>2021-11-21T14:55:03.504Z</time>
      </trkpt>
      <trkpt lat="47.619203" lon="8.072857">
        <ele>635.316031</ele>
        <time>2021-11-21T14:55:05.961Z</time>
      </trkpt>
      <trkpt lat="47.619212" lon="8.073576">
        <ele>634.673883</ele>
        <time>2021-11-21T14:55:11.561Z</time>
      </trkpt>
      <trkpt lat="47.619310" lon="8.074140">
        <ele>634.153791</ele>
        <time>2021-11-21T14:55:15.841Z</time>
      </trkpt>
      <trkpt lat="47.619299" lon="8.074448">
        <ele>633.878375</ele>
        <time>2021-11-21T14:55:18.075Z</time>
      </trkpt>
      <trkpt lat="47.619279" lon="8.075018">
        <ele>633.368700</ele>
        <time>2021-11-21T14:55:22.885Z</time>
      </trkpt>
      <trkpt lat="47.619231" lon="8.075298">
        <ele>633.110713</ele>
        <time>2021-11-21T14:55:25.485Z</time>
      </trkpt>
      <trkpt lat="47.619187" lon="8.075531">
        <ele>632.936863</ele>
        <time>2021-11-21T14:55:27.487Z</time>
      </trkpt>
      <trkpt lat="47.619141" lon="8.075753">
        <ele>632.939608</ele>
        <time>2021-11-21T14:55:29.656Z</time>
      </trkpt>
      <trkpt lat="47.619092" lon="8.075973">
        <ele>632.942346</ele>
        <time>2021-11-21T14:55:31.593Z</time>
      </trkpt>
      <trkpt lat="47.619067" lon="8.076161">
        <ele>632.944610</ele>
        <time>2021-11-21T14:55:33.367Z</time>
      </trkpt>
      <trkpt lat="47.619067" lon="8.076308">
        <ele>632.946347</ele>
        <time>2021-11-21T14:55:34.916Z</time>
      </trkpt>
      <trkpt lat="47.619094" lon="8.076402">
        <ele>632.947555</ele>
        <time>2021-11-21T14:55:35.930Z</time>
      </trkpt>
      <trkpt lat="47.619137" lon="8.076502">
        <ele>632.948956</ele>
        <time>2021-11-21T14:55:36.883Z</time>
      </trkpt>
      <trkpt lat="47.619188" lon="8.076589">
        <ele>632.950319</ele>
        <time>2021-11-21T14:55:37.873Z</time>
      </trkpt>
      <trkpt lat="47.619301" lon="8.076688">
        <ele>632.952619</ele>
        <time>2021-11-21T14:55:39.983Z</time>
      </trkpt>
      <trkpt lat="47.619883" lon="8.077003">
        <ele>632.963480</ele>
        <time>2021-11-21T14:55:49.169Z</time>
      </trkpt>
      <trkpt lat="47.620283" lon="8.076996">
        <ele>633.024023</ele>
        <time>2021-11-21T14:55:56.758Z</time>
      </trkpt>
      <trkpt lat="47.620440" lon="8.077023">
        <ele>633.082779</ele>
        <time>2021-11-21T14:56:00.471Z</time>
      </trkpt>
      <trkpt lat="47.620607" lon="8.077057">
        <ele>633.145445</ele>
        <time>2021-11-21T14:56:03.853Z</time>
      </trkpt>
      <trkpt lat="47.620982" lon="8.077127">
        <ele>633.285952</ele>
        <time>2021-11-21T14:56:11.229Z</time>
      </trkpt>
      <trkpt lat="47.621574" lon="8.077230">
        <ele>633.507540</ele>
        <time>2021-11-21T14:56:20.948Z</time>
      </trkpt>
      <trkpt lat="47.622283" lon="8.077256">
        <ele>633.292387</ele>
        <time>2021-11-21T14:56:29.785Z</time>
      </trkpt>
      <trkpt lat="47.622504" lon="8.077241">
        <ele>633.082273</ele>
        <time>2021-11-21T14:56:32.135Z</time>
      </trkpt>
      <trkpt lat="47.623376" lon="8.077254">
        <ele>632.254050</ele>
        <time>2021-11-21T14:56:43.401Z</time>
      </trkpt>
      <trkpt lat="47.623471" lon="8.077274">
        <ele>632.162920</ele>
        <time>2021-11-21T14:56:44.418Z</time>
      </trkpt>
      <trkpt lat="47.623552" lon="8.077247">
        <ele>632.084073</ele>
        <time>2021-11-21T14:56:45.266Z</time>
      </trkpt>
      <trkpt lat="47.623879" lon="8.077124">
        <ele>631.665591</ele>
        <time>2021-11-21T14:56:49.522Z</time>
      </trkpt>
      <trkpt lat="47.624103" lon="8.076894">
        <ele>631.252659</ele>
        <time>2021-11-21T14:56:53.375Z</time>
      </trkpt>
      <trkpt lat="47.624180" lon="8.076759">
        <ele>631.071973</ele>
        <time>2021-11-21T14:56:54.595Z</time>
      </trkpt>
      <trkpt lat="47.624269" lon="8.076430">
        <ele>630.709779</ele>
        <time>2021-11-21T14:56:58.063Z</time>
      </trkpt>
      <trkpt lat="47.624407" lon="8.075284">
        <ele>629.520406</ele>
        <time>2021-11-21T14:57:06.996Z</time>
      </trkpt>
      <trkpt lat="47.624441" lon="8.075001">
        <ele>629.226716</ele>
        <time>2021-11-21T14:57:09.213Z</time>
      </trkpt>
      <trkpt lat="47.624863" lon="8.073640">
        <ele>624.354604</ele>
        <time>2021-11-21T14:57:19.254Z</time>
      </trkpt>
      <trkpt lat="47.624905" lon="8.073105">
        <ele>622.583032</ele>
        <time>2021-11-21T14:57:22.561Z</time>
      </trkpt>
      <trkpt lat="47.624836" lon="8.072281">
        <ele>619.384505</ele>
        <time>2021-11-21T14:57:27.584Z</time>
      </trkpt>
      <trkpt lat="47.624723" lon="8.072004">
        <ele>617.449485</ele>
        <time>2021-11-21T14:57:29.482Z</time>
      </trkpt>
      <trkpt lat="47.624599" lon="8.071870">
        <ele>616.089261</ele>
        <time>2021-11-21T14:57:30.899Z</time>
      </trkpt>
      <trkpt lat="47.624483" lon="8.071745">
        <ele>614.818040</ele>
        <time>2021-11-21T14:57:32.130Z</time>
      </trkpt>
      <trkpt lat="47.624296" lon="8.071666">
        <ele>613.094012</ele>
        <time>2021-11-21T14:57:33.934Z</time>
      </trkpt>
      <trkpt lat="47.624222" lon="8.071648">
        <ele>612.429096</ele>
        <time>2021-11-21T14:57:34.585Z</time>
      </trkpt>
      <trkpt lat="47.624153" lon="8.071526">
        <ele>611.477300</ele>
        <time>2021-11-21T14:57:35.509Z</time>
      </trkpt>
      <trkpt lat="47.624160" lon="8.071361">
        <ele>610.489265</ele>
        <time>2021-11-21T14:57:36.489Z</time>
      </trkpt>
      <trkpt lat="47.624227" lon="8.071252">
        <ele>609.607632</ele>
        <time>2021-11-21T14:57:37.391Z</time>
      </trkpt>
      <trkpt lat="47.624276" lon="8.071247">
        <ele>609.172124</ele>
        <time>2021-11-21T14:57:37.801Z</time>
      </trkpt>
      <trkpt lat="47.624369" lon="8.071278">
        <ele>608.326941</ele>
        <time>2021-11-21T14:57:38.602Z</time>
      </trkpt>
      <trkpt lat="47.624713" lon="8.071579">
        <ele>604.785785</ele>
        <time>2021-11-21T14:57:42.023Z</time>
      </trkpt>
      <trkpt lat="47.624764" lon="8.071624">
        <ele>604.226893</ele>
        <time>2021-11-21T14:57:42.540Z</time>
      </trkpt>
      <trkpt lat="47.625345" lon="8.071941">
        <ele>597.905530</ele>
        <time>2021-11-21T14:57:47.828Z</time>
      </trkpt>
      <trkpt lat="47.625442" lon="8.072011">
        <ele>596.804060</ele>
        <time>2021-11-21T14:57:48.763Z</time>
      </trkpt>
      <trkpt lat="47.625533" lon="8.072131">
        <ele>595.560840</ele>
        <time>2021-11-21T14:57:49.871Z</time>
      </trkpt>
      <trkpt lat="47.625636" lon="8.072295">
        <ele>594.018037</ele>
        <time>2021-11-21T14:57:51.134Z</time>
      </trkpt>
      <trkpt lat="47.626074" lon="8.072927">
        <ele>587.779129</ele>
        <time>2021-11-21T14:57:56.461Z</time>
      </trkpt>
      <trkpt lat="47.626246" lon="8.073821">
        <ele>582.086284</ele>
        <time>2021-11-21T14:58:01.772Z</time>
      </trkpt>
      <trkpt lat="47.626738" lon="8.074978">
        <ele>574.076322</ele>
        <time>2021-11-21T14:58:09.839Z</time>
      </trkpt>
      <trkpt lat="47.626767" lon="8.075031">
        <ele>573.676613</ele>
        <time>2021-11-21T14:58:10.229Z</time>
      </trkpt>
      <trkpt lat="47.626796" lon="8.075092">
        <ele>573.239543</ele>
        <time>2021-11-21T14:58:10.724Z</time>
      </trkpt>
      <trkpt lat="47.626997" lon="8.074933">
        <ele>571.260706</ele>
        <time>2021-11-21T14:58:12.776Z</time>
      </trkpt>
      <trkpt lat="47.627035" lon="8.074922">
        <ele>570.924359</ele>
        <time>2021-11-21T14:58:13.132Z</time>
      </trkpt>
      <trkpt lat="47.627163" lon="8.074907">
        <ele>570.207162</ele>
        <time>2021-11-21T14:58:14.305Z</time>
      </trkpt>
      <trkpt lat="47.627226" lon="8.074926">
        <ele>569.978637</ele>
        <time>2021-11-21T14:58:14.875Z</time>
      </trkpt>
      <trkpt lat="47.627282" lon="8.074981">
        <ele>569.739917</ele>
        <time>2021-11-21T14:58:15.505Z</time>
      </trkpt>
      <trkpt lat="47.627315" lon="8.075027">
        <ele>569.578968</ele>
        <time>2021-11-21T14:58:15.927Z</time>
      </trkpt>
      <trkpt lat="47.627417" lon="8.075251">
        <ele>568.931329</ele>
        <time>2021-11-21T14:58:17.618Z</time>
      </trkpt>
      <trkpt lat="47.627470" lon="8.075586">
        <ele>568.106961</ele>
        <time>2021-11-21T14:58:19.772Z</time>
      </trkpt>
      <trkpt lat="47.627530" lon="8.076797">
        <ele>565.197973</ele>
        <time>2021-11-21T14:58:27.939Z</time>
      </trkpt>
      <trkpt lat="47.627646" lon="8.077902">
        <ele>565.429864</ele>
        <time>2021-11-21T14:58:41.325Z</time>
      </trkpt>
      <trkpt lat="47.627700" lon="8.077989">
        <ele>565.671711</ele>
        <time>2021-11-21T14:58:42.867Z</time>
      </trkpt>
      <trkpt lat="47.627778" lon="8.077982">
        <ele>565.908799</ele>
        <time>2021-11-21T14:58:44.469Z</time>
      </trkpt>
      <trkpt lat="47.627795" lon="8.077963">
        <ele>565.973372</ele>
        <time>2021-11-21T14:58:44.661Z</time>
      </trkpt>
      <trkpt lat="47.627807" lon="8.077901">
        <ele>566.105273</ele>
        <time>2021-11-21T14:58:46.753Z</time>
      </trkpt>
      <trkpt lat="47.627729" lon="8.077183">
        <ele>567.592373</ele>
        <time>2021-11-21T14:58:58.643Z</time>
      </trkpt>
      <trkpt lat="47.627803" lon="8.076266">
        <ele>569.480826</ele>
        <time>2021-11-21T14:59:19.526Z</time>
      </trkpt>
      <trkpt lat="47.627933" lon="8.075583">
        <ele>573.946661</ele>
        <time>2021-11-21T14:59:43.560Z</time>
      </trkpt>
      <trkpt lat="47.628218" lon="8.074738">
        <ele>580.082737</ele>
        <time>2021-11-21T15:00:15.305Z</time>
      </trkpt>
      <trkpt lat="47.628276" lon="8.074619">
        <ele>581.036408</ele>
        <time>2021-11-21T15:00:23.062Z</time>
      </trkpt>
      <trkpt lat="47.628458" lon="8.074266">
        <ele>583.922588</ele>
        <time>2021-11-21T15:00:39.751Z</time>
      </trkpt>
      <trkpt lat="47.628518" lon="8.074136">
        <ele>584.945767</ele>
        <time>2021-11-21T15:00:47.822Z</time>
      </trkpt>
      <trkpt lat="47.629078" lon="8.073298">
        <ele>593.341237</ele>
        <time>2021-11-21T15:01:37.847Z</time>
      </trkpt>
      <trkpt lat="47.629235" lon="8.073162">
        <ele>595.316654</ele>
        <time>2021-11-21T15:01:49.193Z</time>
      </trkpt>
      <trkpt lat="47.629440" lon="8.073070">
        <ele>597.643871</ele>
        <time>2021-11-21T15:02:03.357Z</time>
      </trkpt>
      <trkpt lat="47.629607" lon="8.072989">
        <ele>599.553007</ele>
        <time>2021-11-21T15:02:14.082Z</time>
      </trkpt>
      <trkpt lat="47.629784" lon="8.072768">
        <ele>602.066618</ele>
        <time>2021-11-21T15:02:26.306Z</time>
      </trkpt>
      <trkpt lat="47.629869" lon="8.072569">
        <ele>603.791926</ele>
        <time>2021-11-21T15:02:35.044Z</time>
      </trkpt>
      <trkpt lat="47.630177" lon="8.071986">
        <ele>608.445138</ele>
        <time>2021-11-21T15:02:58.403Z</time>
      </trkpt>
      <trkpt lat="47.630397" lon="8.071513">
        <ele>611.491933</ele>
        <time>2021-11-21T15:03:16.831Z</time>
      </trkpt>
      <trkpt lat="47.630509" lon="8.071288">
        <ele>612.974852</ele>
        <time>2021-11-21T15:03:25.744Z</time>
      </trkpt>
      <trkpt lat="47.630634" lon="8.071025">
        <ele>614.680980</ele>
        <time>2021-11-21T15:03:33.499Z</time>
      </trkpt>
      <trkpt lat="47.630661" lon="8.070938">
        <ele>615.188753</ele>
        <time>2021-11-21T15:03:36.952Z</time>
      </trkpt>
      <trkpt lat="47.630810" lon="8.070444">
        <ele>618.057950</ele>
        <time>2021-11-21T15:03:53.186Z</time>
      </trkpt>
      <trkpt lat="47.630961" lon="8.070003">
        <ele>620.690515</ele>
        <time>2021-11-21T15:04:08.372Z</time>
      </trkpt>
      <trkpt lat="47.631008" lon="8.069932">
        <ele>621.267485</ele>
        <time>2021-11-21T15:04:11.762Z</time>
      </trkpt>
      <trkpt lat="47.631061" lon="8.069919">
        <ele>621.729607</ele>
        <time>2021-11-21T15:04:14.696Z</time>
      </trkpt>
      <trkpt lat="47.631280" lon="8.070030">
        <ele>623.720432</ele>
        <time>2021-11-21T15:04:25.026Z</time>
      </trkpt>
      <trkpt lat="47.631351" lon="8.070073">
        <ele>624.380124</ele>
        <time>2021-11-21T15:04:29.702Z</time>
      </trkpt>
      <trkpt lat="47.631455" lon="8.070023">
        <ele>625.320574</ele>
        <time>2021-11-21T15:04:35.688Z</time>
      </trkpt>
      <trkpt lat="47.631553" lon="8.069983">
        <ele>626.194933</ele>
        <time>2021-11-21T15:04:39.640Z</time>
      </trkpt>
      <trkpt lat="47.631653" lon="8.070013">
        <ele>627.072592</ele>
        <time>2021-11-21T15:04:44.648Z</time>
      </trkpt>
      <trkpt lat="47.632000" lon="8.070310">
        <ele>630.518633</ele>
        <time>2021-11-21T15:05:04.598Z</time>
      </trkpt>
      <trkpt lat="47.632052" lon="8.070390">
        <ele>631.162987</ele>
        <time>2021-11-21T15:05:08.472Z</time>
      </trkpt>
      <trkpt lat="47.632052" lon="8.070390">
        <ele>631.162987</ele>
        <time>2021-11-21T15:05:08.658Z</time>
      </trkpt>
      <trkpt lat="47.632081" lon="8.070488">
        <ele>631.783470</ele>
        <time>2021-11-21T15:05:11.867Z</time>
      </trkpt>
      <trkpt lat="47.632159" lon="8.070941">
        <ele>634.493950</ele>
        <time>2021-11-21T15:05:27.690Z</time>
      </trkpt>
      <trkpt lat="47.632204" lon="8.071159">
        <ele>635.815688</ele>
        <time>2021-11-21T15:05:34.021Z</time>
      </trkpt>
      <trkpt lat="47.632237" lon="8.071288">
        <ele>636.530195</ele>
        <time>2021-11-21T15:05:39.136Z</time>
      </trkpt>
      <trkpt lat="47.632306" lon="8.071469">
        <ele>637.555643</ele>
        <time>2021-11-21T15:05:47.996Z</time>
      </trkpt>
      <trkpt lat="47.632452" lon="8.071633">
        <ele>638.895556</ele>
        <time>2021-11-21T15:05:56.587Z</time>
      </trkpt>
      <trkpt lat="47.632702" lon="8.071664">
        <ele>640.731292</ele>
        <time>2021-11-21T15:06:09.707Z</time>
      </trkpt>
      <trkpt lat="47.632880" lon="8.071504">
        <ele>642.254117</ele>
        <time>2021-11-21T15:06:18.442Z</time>
      </trkpt>
      <trkpt lat="47.633316" lon="8.070774">
        <ele>647.064134</ele>
        <time>2021-11-21T15:06:46.850Z</time>
      </trkpt>
      <trkpt lat="47.633424" lon="8.070724">
        <ele>647.891984</ele>
        <time>2021-11-21T15:06:51.431Z</time>
      </trkpt>
      <trkpt lat="47.633465" lon="8.070820">
        <ele>648.452426</ele>
        <time>2021-11-21T15:06:54.997Z</time>
      </trkpt>
      <trkpt lat="47.633602" lon="8.070959">
        <ele>649.385309</ele>
        <time>2021-11-21T15:06:59.117Z</time>
      </trkpt>
      <trkpt lat="47.633800" lon="8.071024">
        <ele>649.963823</ele>
        <time>2021-11-21T15:07:07.288Z</time>
      </trkpt>
      <trkpt lat="47.634040" lon="8.070944">
        <ele>650.665559</ele>
        <time>2021-11-21T15:07:14.014Z</time>
      </trkpt>
      <trkpt lat="47.634117" lon="8.070874">
        <ele>650.923167</ele>
        <time>2021-11-21T15:07:18.119Z</time>
      </trkpt>
      <trkpt lat="47.634145" lon="8.070841">
        <ele>651.025173</ele>
        <time>2021-11-21T15:07:19.104Z</time>
      </trkpt>
      <trkpt lat="47.634167" lon="8.070797">
        <ele>651.130500</ele>
        <time>2021-11-21T15:07:19.954Z</time>
      </trkpt>
      <trkpt lat="47.634207" lon="8.070680">
        <ele>651.382713</ele>
        <time>2021-11-21T15:07:21.960Z</time>
      </trkpt>
      <trkpt lat="47.634455" lon="8.069272">
        <ele>654.180385</ele>
        <time>2021-11-21T15:07:46.329Z</time>
      </trkpt>
      <trkpt lat="47.634714" lon="8.068924">
        <ele>653.427299</ele>
        <time>2021-11-21T15:07:50.585Z</time>
      </trkpt>
      <trkpt lat="47.635007" lon="8.068709">
        <ele>652.418475</ele>
        <time>2021-11-21T15:07:53.990Z</time>
      </trkpt>
      <trkpt lat="47.635064" lon="8.068670">
        <ele>652.224753</ele>
        <time>2021-11-21T15:07:54.657Z</time>
      </trkpt>
      <trkpt lat="47.635593" lon="8.068280">
        <ele>650.401679</ele>
        <time>2021-11-21T15:08:00.441Z</time>
      </trkpt>
      <trkpt lat="47.636030" lon="8.067758">
        <ele>648.601935</ele>
        <time>2021-11-21T15:08:05.732Z</time>
      </trkpt>
      <trkpt lat="47.636255" lon="8.067645">
        <ele>647.433106</ele>
        <time>2021-11-21T15:08:07.943Z</time>
      </trkpt>
      <trkpt lat="47.636473" lon="8.067576">
        <ele>646.336277</ele>
        <time>2021-11-21T15:08:09.971Z</time>
      </trkpt>
      <trkpt lat="47.637095" lon="8.067604">
        <ele>643.274219</ele>
        <time>2021-11-21T15:08:15.763Z</time>
      </trkpt>
      <trkpt lat="47.637446" lon="8.067533">
        <ele>641.531098</ele>
        <time>2021-11-21T15:08:19.136Z</time>
      </trkpt>
      <trkpt lat="47.637907" lon="8.066783">
        <ele>639.015433</ele>
        <time>2021-11-21T15:08:25.918Z</time>
      </trkpt>
      <trkpt lat="47.638098" lon="8.066683">
        <ele>638.497669</ele>
        <time>2021-11-21T15:08:27.893Z</time>
      </trkpt>
      <trkpt lat="47.638245" lon="8.066779">
        <ele>638.087105</ele>
        <time>2021-11-21T15:08:29.718Z</time>
      </trkpt>
      <trkpt lat="47.638315" lon="8.066947">
        <ele>637.746863</ele>
        <time>2021-11-21T15:08:31.038Z</time>
      </trkpt>
      <trkpt lat="47.638358" lon="8.067054">
        <ele>637.532262</ele>
        <time>2021-11-21T15:08:31.894Z</time>
      </trkpt>
      <trkpt lat="47.638398" lon="8.067564">
        <ele>636.647847</ele>
        <time>2021-11-21T15:08:35.620Z</time>
      </trkpt>
      <trkpt lat="47.638387" lon="8.067918">
        <ele>636.037428</ele>
        <time>2021-11-21T15:08:38.433Z</time>
      </trkpt>
      <trkpt lat="47.638331" lon="8.068124">
        <ele>635.654800</ele>
        <time>2021-11-21T15:08:40.073Z</time>
      </trkpt>
      <trkpt lat="47.637673" lon="8.068998">
        <ele>635.417921</ele>
        <time>2021-11-21T15:08:50.966Z</time>
      </trkpt>
      <trkpt lat="47.637473" lon="8.069474">
        <ele>635.458360</ele>
        <time>2021-11-21T15:08:56.337Z</time>
      </trkpt>
      <trkpt lat="47.637243" lon="8.070350">
        <ele>635.526135</ele>
        <time>2021-11-21T15:09:07.826Z</time>
      </trkpt>
      <trkpt lat="47.637005" lon="8.071906">
        <ele>639.601592</ele>
        <time>2021-11-21T15:09:37.679Z</time>
      </trkpt>
      <trkpt lat="47.637014" lon="8.072696">
        <ele>641.673154</ele>
        <time>2021-11-21T15:09:56.301Z</time>
      </trkpt>
      <trkpt lat="47.637086" lon="8.073086">
        <ele>642.886909</ele>
        <time>2021-11-21T15:10:06.585Z</time>
      </trkpt>
      <trkpt lat="47.637325" lon="8.073264">
        <ele>644.704271</ele>
        <time>2021-11-21T15:10:16.935Z</time>
      </trkpt>
      <trkpt lat="47.638036" lon="8.073031">
        <ele>649.652791</ele>
        <time>2021-11-21T15:10:46.850Z</time>
      </trkpt>
      <trkpt lat="47.638244" lon="8.073065">
        <ele>651.074955</ele>
        <time>2021-11-21T15:10:56.681Z</time>
      </trkpt>
      <trkpt lat="47.638400" lon="8.073182">
        <ele>652.262858</ele>
        <time>2021-11-21T15:11:04.164Z</time>
      </trkpt>
      <trkpt lat="47.638597" lon="8.073597">
        <ele>654.587542</ele>
        <time>2021-11-21T15:11:19.926Z</time>
      </trkpt>
      <trkpt lat="47.638677" lon="8.074518">
        <ele>659.159716</ele>
        <time>2021-11-21T15:11:48.084Z</time>
      </trkpt>
      <trkpt lat="47.638725" lon="8.074712">
        <ele>660.180114</ele>
        <time>2021-11-21T15:11:54.629Z</time>
      </trkpt>
      <trkpt lat="47.638803" lon="8.074901">
        <ele>661.274416</ele>
        <time>2021-11-21T15:12:01.313Z</time>
      </trkpt>
      <trkpt lat="47.639086" lon="8.075219">
        <ele>663.875493</ele>
        <time>2021-11-21T15:12:17.238Z</time>
      </trkpt>
      <trkpt lat="47.639260" lon="8.075325">
        <ele>665.253748</ele>
        <time>2021-11-21T15:12:25.695Z</time>
      </trkpt>
      <trkpt lat="47.639372" lon="8.075344">
        <ele>666.079795</ele>
        <time>2021-11-21T15:12:30.668Z</time>
      </trkpt>
      <trkpt lat="47.639498" lon="8.075360">
        <ele>667.006460</ele>
        <time>2021-11-21T15:12:35.660Z</time>
      </trkpt>
      <trkpt lat="47.639645" lon="8.075337">
        <ele>668.020106</ele>
        <time>2021-11-21T15:12:42.365Z</time>
      </trkpt>
      <trkpt lat="47.639818" lon="8.075303">
        <ele>668.736314</ele>
        <time>2021-11-21T15:12:49.476Z</time>
      </trkpt>
      <trkpt lat="47.639948" lon="8.075277">
        <ele>669.274670</ele>
        <time>2021-11-21T15:12:54.992Z</time>
      </trkpt>
      <trkpt lat="47.640299" lon="8.075205">
        <ele>670.728903</ele>
        <time>2021-11-21T15:13:08.391Z</time>
      </trkpt>
      <trkpt lat="47.640423" lon="8.075250">
        <ele>671.252805</ele>
        <time>2021-11-21T15:13:12.527Z</time>
      </trkpt>
      <trkpt lat="47.640552" lon="8.075324">
        <ele>671.820403</ele>
        <time>2021-11-21T15:13:16.408Z</time>
      </trkpt>
      <trkpt lat="47.640704" lon="8.075518">
        <ele>672.643170</ele>
        <time>2021-11-21T15:13:22.792Z</time>
      </trkpt>
      <trkpt lat="47.640775" lon="8.075712">
        <ele>673.253659</ele>
        <time>2021-11-21T15:13:26.275Z</time>
      </trkpt>
      <trkpt lat="47.640836" lon="8.075921">
        <ele>673.883489</ele>
        <time>2021-11-21T15:13:29.982Z</time>
      </trkpt>
      <trkpt lat="47.641006" lon="8.076502">
        <ele>675.377465</ele>
        <time>2021-11-21T15:13:39.070Z</time>
      </trkpt>
      <trkpt lat="47.641038" lon="8.076611">
        <ele>675.442914</ele>
        <time>2021-11-21T15:13:40.602Z</time>
      </trkpt>
      <trkpt lat="47.641055" lon="8.076690">
        <ele>675.488565</ele>
        <time>2021-11-21T15:13:41.638Z</time>
      </trkpt>
      <trkpt lat="47.641113" lon="8.077040">
        <ele>675.686971</ele>
        <time>2021-11-21T15:13:46.696Z</time>
      </trkpt>
      <trkpt lat="47.641140" lon="8.077438">
        <ele>675.907165</ele>
        <time>2021-11-21T15:13:51.595Z</time>
      </trkpt>
      <trkpt lat="47.641168" lon="8.077834">
        <ele>676.126347</ele>
        <time>2021-11-21T15:13:56.630Z</time>
      </trkpt>
      <trkpt lat="47.641173" lon="8.078162">
        <ele>676.306947</ele>
        <time>2021-11-21T15:14:00.285Z</time>
      </trkpt>
      <trkpt lat="47.641183" lon="8.078369">
        <ele>676.421186</ele>
        <time>2021-11-21T15:14:02.600Z</time>
      </trkpt>
      <trkpt lat="47.641234" lon="8.078534">
        <ele>676.521114</ele>
        <time>2021-11-21T15:14:04.391Z</time>
      </trkpt>
      <trkpt lat="47.641346" lon="8.078436">
        <ele>676.627336</ele>
        <time>2021-11-21T15:14:06.486Z</time>
      </trkpt>
      <trkpt lat="47.641535" lon="8.078330">
        <ele>676.778602</ele>
        <time>2021-11-21T15:14:09.395Z</time>
      </trkpt>
      <trkpt lat="47.641566" lon="8.078312">
        <ele>676.766199</ele>
        <time>2021-11-21T15:14:09.844Z</time>
      </trkpt>
      <trkpt lat="47.641645" lon="8.078278">
        <ele>676.735551</ele>
        <time>2021-11-21T15:14:11.088Z</time>
      </trkpt>
      <trkpt lat="47.642173" lon="8.078036">
        <ele>676.529651</ele>
        <time>2021-11-21T15:14:19.711Z</time>
      </trkpt>
      <trkpt lat="47.642278" lon="8.077985">
        <ele>676.488487</ele>
        <time>2021-11-21T15:14:21.221Z</time>
      </trkpt>
      <trkpt lat="47.642338" lon="8.077947">
        <ele>676.464181</ele>
        <time>2021-11-21T15:14:22.204Z</time>
      </trkpt>
      <trkpt lat="47.642505" lon="8.077864">
        <ele>676.398561</ele>
        <time>2021-11-21T15:14:24.880Z</time>
      </trkpt>
      <trkpt lat="47.642673" lon="8.077700">
        <ele>676.323638</ele>
        <time>2021-11-21T15:14:27.594Z</time>
      </trkpt>
      <trkpt lat="47.642756" lon="8.077585">
        <ele>676.281332</ele>
        <time>2021-11-21T15:14:29.204Z</time>
      </trkpt>
      <trkpt lat="47.642783" lon="8.077565">
        <ele>676.270088</ele>
        <time>2021-11-21T15:14:29.550Z</time>
      </trkpt>
      <trkpt lat="47.642883" lon="8.077532">
        <ele>676.231918</ele>
        <time>2021-11-21T15:14:30.687Z</time>
      </trkpt>
      <trkpt lat="47.642958" lon="8.077563">
        <ele>676.202910</ele>
        <time>2021-11-21T15:14:31.519Z</time>
      </trkpt>
      <trkpt lat="47.643023" lon="8.077678">
        <ele>676.165227</ele>
        <time>2021-11-21T15:14:32.642Z</time>
      </trkpt>
      <trkpt lat="47.643089" lon="8.077859">
        <ele>676.113561</ele>
        <time>2021-11-21T15:14:34.468Z</time>
      </trkpt>
      <trkpt lat="47.643222" lon="8.078217">
        <ele>676.412871</ele>
        <time>2021-11-21T15:14:37.549Z</time>
      </trkpt>
      <trkpt lat="47.643394" lon="8.078693">
        <ele>676.812547</ele>
        <time>2021-11-21T15:14:42.276Z</time>
      </trkpt>
      <trkpt lat="47.643585" lon="8.079161">
        <ele>677.217421</ele>
        <time>2021-11-21T15:14:49.358Z</time>
      </trkpt>
      <trkpt lat="47.643706" lon="8.079483">
        <ele>677.490238</ele>
        <time>2021-11-21T15:14:54.620Z</time>
      </trkpt>
      <trkpt lat="47.643796" lon="8.079638">
        <ele>677.641646</ele>
        <time>2021-11-21T15:14:57.737Z</time>
      </trkpt>
      <trkpt lat="47.643796" lon="8.079638">
        <ele>677.641646</ele>
        <time>2021-11-21T15:14:57.901Z</time>
      </trkpt>
      <trkpt lat="47.643914" lon="8.079755">
        <ele>677.797498</ele>
        <time>2021-11-21T15:15:01.011Z</time>
      </trkpt>
      <trkpt lat="47.644263" lon="8.079812">
        <ele>678.537781</ele>
        <time>2021-11-21T15:15:10.889Z</time>
      </trkpt>
      <trkpt lat="47.644475" lon="8.079742">
        <ele>679.667147</ele>
        <time>2021-11-21T15:15:17.195Z</time>
      </trkpt>
      <trkpt lat="47.644537" lon="8.079719">
        <ele>679.999469</ele>
        <time>2021-11-21T15:15:19.669Z</time>
      </trkpt>
      <trkpt lat="47.644785" lon="8.079581">
        <ele>681.376737</ele>
        <time>2021-11-21T15:15:28.972Z</time>
      </trkpt>
      <trkpt lat="47.644963" lon="8.079483">
        <ele>682.363976</ele>
        <time>2021-11-21T15:15:35.637Z</time>
      </trkpt>
      <trkpt lat="47.645434" lon="8.079222">
        <ele>684.978334</ele>
        <time>2021-11-21T15:15:57.121Z</time>
      </trkpt>
      <trkpt lat="47.645677" lon="8.079047">
        <ele>686.382831</ele>
        <time>2021-11-21T15:16:07.769Z</time>
      </trkpt>
      <trkpt lat="47.645889" lon="8.078784">
        <ele>687.647196</ele>
        <time>2021-11-21T15:16:18.096Z</time>
      </trkpt>
      <trkpt lat="47.645950" lon="8.078629">
        <ele>687.989537</ele>
        <time>2021-11-21T15:16:23.034Z</time>
      </trkpt>
      <trkpt lat="47.645950" lon="8.078629">
        <ele>687.989537</ele>
        <time>2021-11-21T15:16:23.060Z</time>
      </trkpt>
      <trkpt lat="47.645989" lon="8.078503">
        <ele>688.253979</ele>
        <time>2021-11-21T15:16:25.982Z</time>
      </trkpt>
      <trkpt lat="47.646023" lon="8.078200">
        <ele>688.839792</ele>
        <time>2021-11-21T15:16:31.956Z</time>
      </trkpt>
      <trkpt lat="47.646012" lon="8.077846">
        <ele>689.515624</ele>
        <time>2021-11-21T15:16:38.586Z</time>
      </trkpt>
      <trkpt lat="47.645976" lon="8.077110">
        <ele>690.922946</ele>
        <time>2021-11-21T15:16:51.378Z</time>
      </trkpt>
      <trkpt lat="47.645969" lon="8.076522">
        <ele>692.044499</ele>
        <time>2021-11-21T15:16:59.048Z</time>
      </trkpt>
      <trkpt lat="47.646103" lon="8.074933">
        <ele>692.904682</ele>
        <time>2021-11-21T15:17:15.718Z</time>
      </trkpt>
      <trkpt lat="47.646078" lon="8.074303">
        <ele>693.079151</ele>
        <time>2021-11-21T15:17:21.767Z</time>
      </trkpt>
      <trkpt lat="47.646056" lon="8.073911">
        <ele>693.187898</ele>
        <time>2021-11-21T15:17:26.225Z</time>
      </trkpt>
      <trkpt lat="47.646054" lon="8.073484">
        <ele>693.504804</ele>
        <time>2021-11-21T15:17:31.386Z</time>
      </trkpt>
      <trkpt lat="47.646089" lon="8.073135">
        <ele>694.154479</ele>
        <time>2021-11-21T15:17:35.961Z</time>
      </trkpt>
      <trkpt lat="47.646124" lon="8.072937">
        <ele>694.531385</ele>
        <time>2021-11-21T15:17:38.874Z</time>
      </trkpt>
      <trkpt lat="47.646186" lon="8.072687">
        <ele>695.021893</ele>
        <time>2021-11-21T15:17:42.626Z</time>
      </trkpt>
      <trkpt lat="47.646327" lon="8.072312">
        <ele>695.812612</ele>
        <time>2021-11-21T15:17:49.361Z</time>
      </trkpt>
      <trkpt lat="47.647075" lon="8.070722">
        <ele>700.780889</ele>
        <time>2021-11-21T15:18:30.126Z</time>
      </trkpt>
      <trkpt lat="47.647265" lon="8.070085">
        <ele>703.561473</ele>
        <time>2021-11-21T15:18:48.132Z</time>
      </trkpt>
      <trkpt lat="47.647321" lon="8.068746">
        <ele>708.952953</ele>
        <time>2021-11-21T15:19:24.846Z</time>
      </trkpt>
      <trkpt lat="47.647376" lon="8.068531">
        <ele>710.329919</ele>
        <time>2021-11-21T15:19:32.373Z</time>
      </trkpt>
      <trkpt lat="47.647469" lon="8.068356">
        <ele>711.664465</ele>
        <time>2021-11-21T15:19:39.359Z</time>
      </trkpt>
      <trkpt lat="47.647725" lon="8.068128">
        <ele>714.317759</ele>
        <time>2021-11-21T15:19:55.268Z</time>
      </trkpt>
      <trkpt lat="47.648545" lon="8.067800">
        <ele>721.865396</ele>
        <time>2021-11-21T15:20:38.988Z</time>
      </trkpt>
      <trkpt lat="47.648738" lon="8.067667">
        <ele>723.756493</ele>
        <time>2021-11-21T15:20:50.771Z</time>
      </trkpt>
      <trkpt lat="47.648808" lon="8.067613">
        <ele>724.457606</ele>
        <time>2021-11-21T15:20:54.500Z</time>
      </trkpt>
      <trkpt lat="47.649093" lon="8.067348">
        <ele>727.577646</ele>
        <time>2021-11-21T15:21:12.397Z</time>
      </trkpt>
      <trkpt lat="47.649584" lon="8.066823">
        <ele>733.225127</ele>
        <time>2021-11-21T15:21:44.833Z</time>
      </trkpt>
      <trkpt lat="47.649937" lon="8.066330">
        <ele>737.748530</ele>
        <time>2021-11-21T15:22:11.244Z</time>
      </trkpt>
      <trkpt lat="47.650216" lon="8.065792">
        <ele>741.972440</ele>
        <time>2021-11-21T15:22:33.536Z</time>
      </trkpt>
      <trkpt lat="47.650692" lon="8.064505">
        <ele>750.177286</ele>
        <time>2021-11-21T15:23:21.555Z</time>
      </trkpt>
      <trkpt lat="47.650976" lon="8.063919">
        <ele>754.211433</ele>
        <time>2021-11-21T15:23:44.745Z</time>
      </trkpt>
      <trkpt lat="47.651272" lon="8.063423">
        <ele>757.655120</ele>
        <time>2021-11-21T15:24:05.791Z</time>
      </trkpt>
      <trkpt lat="47.651438" lon="8.063140">
        <ele>759.357795</ele>
        <time>2021-11-21T15:24:16.929Z</time>
      </trkpt>
      <trkpt lat="47.651791" lon="8.062577">
        <ele>762.847672</ele>
        <time>2021-11-21T15:24:39.525Z</time>
      </trkpt>
      <trkpt lat="47.652042" lon="8.062098">
        <ele>765.601220</ele>
        <time>2021-11-21T15:24:56.564Z</time>
      </trkpt>
      <trkpt lat="47.652355" lon="8.061236">
        <ele>769.593897</ele>
        <time>2021-11-21T15:25:20.871Z</time>
      </trkpt>
      <trkpt lat="47.652675" lon="8.059647">
        <ele>774.686677</ele>
        <time>2021-11-21T15:25:56.994Z</time>
      </trkpt>
      <trkpt lat="47.652712" lon="8.059466">
        <ele>775.267506</ele>
        <time>2021-11-21T15:26:00.813Z</time>
      </trkpt>
      <trkpt lat="47.653089" lon="8.057595">
        <ele>782.145900</ele>
        <time>2021-11-21T15:26:42.571Z</time>
      </trkpt>
      <trkpt lat="47.653505" lon="8.056149">
        <ele>787.886648</ele>
        <time>2021-11-21T15:27:27.841Z</time>
      </trkpt>
      <trkpt lat="47.653801" lon="8.055612">
        <ele>790.337416</ele>
        <time>2021-11-21T15:27:47.816Z</time>
      </trkpt>
      <trkpt lat="47.653924" lon="8.055478">
        <ele>791.137381</ele>
        <time>2021-11-21T15:27:52.950Z</time>
      </trkpt>
      <trkpt lat="47.654091" lon="8.055337">
        <ele>792.144739</ele>
        <time>2021-11-21T15:28:00.740Z</time>
      </trkpt>
      <trkpt lat="47.654374" lon="8.055215">
        <ele>793.689916</ele>
        <time>2021-11-21T15:28:10.375Z</time>
      </trkpt>
      <trkpt lat="47.654649" lon="8.055178">
        <ele>795.137759</ele>
        <time>2021-11-21T15:28:17.888Z</time>
      </trkpt>
      <trkpt lat="47.654776" lon="8.055166">
        <ele>795.805017</ele>
        <time>2021-11-21T15:28:22.682Z</time>
      </trkpt>
      <trkpt lat="47.654902" lon="8.055142">
        <ele>796.203712</ele>
        <time>2021-11-21T15:28:25.198Z</time>
      </trkpt>
      <trkpt lat="47.655044" lon="8.055120">
        <ele>796.386841</ele>
        <time>2021-11-21T15:28:29.366Z</time>
      </trkpt>
      <trkpt lat="47.655228" lon="8.055083">
        <ele>796.625008</ele>
        <time>2021-11-21T15:28:33.988Z</time>
      </trkpt>
      <trkpt lat="47.655663" lon="8.054877">
        <ele>797.210671</ele>
        <time>2021-11-21T15:28:43.436Z</time>
      </trkpt>
      <trkpt lat="47.656028" lon="8.054401">
        <ele>797.833826</ele>
        <time>2021-11-21T15:28:50.297Z</time>
      </trkpt>
      <trkpt lat="47.656691" lon="8.052442">
        <ele>801.127071</ele>
        <time>2021-11-21T15:29:15.901Z</time>
      </trkpt>
      <trkpt lat="47.657233" lon="8.051128">
        <ele>805.095604</ele>
        <time>2021-11-21T15:29:51.560Z</time>
      </trkpt>
      <trkpt lat="47.657270" lon="8.051054">
        <ele>805.554173</ele>
        <time>2021-11-21T15:29:55.281Z</time>
      </trkpt>
      <trkpt lat="47.657744" lon="8.050107">
        <ele>811.424801</ele>
        <time>2021-11-21T15:30:29.848Z</time>
      </trkpt>
      <trkpt lat="47.658710" lon="8.048656">
        <ele>823.052173</ele>
        <time>2021-11-21T15:31:38.072Z</time>
      </trkpt>
      <trkpt lat="47.658773" lon="8.048582">
        <ele>823.817971</ele>
        <time>2021-11-21T15:31:43.280Z</time>
      </trkpt>
      <trkpt lat="47.659082" lon="8.048252">
        <ele>827.446540</ele>
        <time>2021-11-21T15:32:03.003Z</time>
      </trkpt>
      <trkpt lat="47.659595" lon="8.047880">
        <ele>832.889037</ele>
        <time>2021-11-21T15:32:34.712Z</time>
      </trkpt>
      <trkpt lat="47.660086" lon="8.047760">
        <ele>837.594351</ele>
        <time>2021-11-21T15:33:03.301Z</time>
      </trkpt>
      <trkpt lat="47.660317" lon="8.047787">
        <ele>839.782058</ele>
        <time>2021-11-21T15:33:15.055Z</time>
      </trkpt>
      <trkpt lat="47.660542" lon="8.047857">
        <ele>841.952504</ele>
        <time>2021-11-21T15:33:27.426Z</time>
      </trkpt>
      <trkpt lat="47.660542" lon="8.047857">
        <ele>841.952504</ele>
        <time>2021-11-21T15:33:27.693Z</time>
      </trkpt>
      <trkpt lat="47.660692" lon="8.047924">
        <ele>843.431409</ele>
        <time>2021-11-21T15:33:33.695Z</time>
      </trkpt>
      <trkpt lat="47.660765" lon="8.047957">
        <ele>844.151867</ele>
        <time>2021-11-21T15:33:37.294Z</time>
      </trkpt>
      <trkpt lat="47.661276" lon="8.048259">
        <ele>849.344569</ele>
        <time>2021-11-21T15:34:07.073Z</time>
      </trkpt>
      <trkpt lat="47.661724" lon="8.048774">
        <ele>853.575483</ele>
        <time>2021-11-21T15:34:34.894Z</time>
      </trkpt>
      <trkpt lat="47.661762" lon="8.048820">
        <ele>853.911246</ele>
        <time>2021-11-21T15:34:38.321Z</time>
      </trkpt>
      <trkpt lat="47.661813" lon="8.048882">
        <ele>854.362643</ele>
        <time>2021-11-21T15:34:42.334Z</time>
      </trkpt>
      <trkpt lat="47.662121" lon="8.049064">
        <ele>856.632808</ele>
        <time>2021-11-21T15:34:56.058Z</time>
      </trkpt>
      <trkpt lat="47.662274" lon="8.049092">
        <ele>857.688520</ele>
        <time>2021-11-21T15:35:01.417Z</time>
      </trkpt>
      <trkpt lat="47.662352" lon="8.049105">
        <ele>858.226038</ele>
        <time>2021-11-21T15:35:04.038Z</time>
      </trkpt>
      <trkpt lat="47.662508" lon="8.049079">
        <ele>859.301075</ele>
        <time>2021-11-21T15:35:11.398Z</time>
      </trkpt>
      <trkpt lat="47.662870" lon="8.048875">
        <ele>861.952692</ele>
        <time>2021-11-21T15:35:25.407Z</time>
      </trkpt>
      <trkpt lat="47.662987" lon="8.048787">
        <ele>862.850874</ele>
        <time>2021-11-21T15:35:29.451Z</time>
      </trkpt>
      <trkpt lat="47.663168" lon="8.048652">
        <ele>863.686147</ele>
        <time>2021-11-21T15:35:37.335Z</time>
      </trkpt>
      <trkpt lat="47.663538" lon="8.048209">
        <ele>865.557836</ele>
        <time>2021-11-21T15:35:50.767Z</time>
      </trkpt>
      <trkpt lat="47.663701" lon="8.047882">
        <ele>866.636767</ele>
        <time>2021-11-21T15:35:59.073Z</time>
      </trkpt>
      <trkpt lat="47.663756" lon="8.047691">
        <ele>867.187673</ele>
        <time>2021-11-21T15:36:03.122Z</time>
      </trkpt>
      <trkpt lat="47.663810" lon="8.047427">
        <ele>867.919400</ele>
        <time>2021-11-21T15:36:08.428Z</time>
      </trkpt>
      <trkpt lat="47.663895" lon="8.046633">
        <ele>870.054980</ele>
        <time>2021-11-21T15:36:24.275Z</time>
      </trkpt>
      <trkpt lat="47.663939" lon="8.046061">
        <ele>871.758864</ele>
        <time>2021-11-21T15:36:35.383Z</time>
      </trkpt>
      <trkpt lat="47.664016" lon="8.045043">
        <ele>874.790652</ele>
        <time>2021-11-21T15:36:58.274Z</time>
      </trkpt>
      <trkpt lat="47.664042" lon="8.044519">
        <ele>876.345671</ele>
        <time>2021-11-21T15:37:10.543Z</time>
      </trkpt>
      <trkpt lat="47.663981" lon="8.043746">
        <ele>878.417117</ele>
        <time>2021-11-21T15:37:28.644Z</time>
      </trkpt>
      <trkpt lat="47.663905" lon="8.043336">
        <ele>879.271737</ele>
        <time>2021-11-21T15:37:38.427Z</time>
      </trkpt>
      <trkpt lat="47.663729" lon="8.042678">
        <ele>880.694603</ele>
        <time>2021-11-21T15:37:51.598Z</time>
      </trkpt>
      <trkpt lat="47.663654" lon="8.042301">
        <ele>881.484630</ele>
        <time>2021-11-21T15:37:58.200Z</time>
      </trkpt>
      <trkpt lat="47.663632" lon="8.041681">
        <ele>882.732383</ele>
        <time>2021-11-21T15:38:07.490Z</time>
      </trkpt>
      <trkpt lat="47.663626" lon="8.041348">
        <ele>883.335462</ele>
        <time>2021-11-21T15:38:12.605Z</time>
      </trkpt>
      <trkpt lat="47.663604" lon="8.040960">
        <ele>883.637894</ele>
        <time>2021-11-21T15:38:17.228Z</time>
      </trkpt>
      <trkpt lat="47.663465" lon="8.040394">
        <ele>884.105830</ele>
        <time>2021-11-21T15:38:24.407Z</time>
      </trkpt>
      <trkpt lat="47.663389" lon="8.040182">
        <ele>884.292369</ele>
        <time>2021-11-21T15:38:27.199Z</time>
      </trkpt>
      <trkpt lat="47.663346" lon="8.040076">
        <ele>884.388483</ele>
        <time>2021-11-21T15:38:28.735Z</time>
      </trkpt>
      <trkpt lat="47.663165" lon="8.039787">
        <ele>884.695015</ele>
        <time>2021-11-21T15:38:33.452Z</time>
      </trkpt>
      <trkpt lat="47.662994" lon="8.039590">
        <ele>884.944625</ele>
        <time>2021-11-21T15:38:37.838Z</time>
      </trkpt>
      <trkpt lat="47.662607" lon="8.039318">
        <ele>885.499983</ele>
        <time>2021-11-21T15:38:45.723Z</time>
      </trkpt>
      <trkpt lat="47.662539" lon="8.039274">
        <ele>885.660287</ele>
        <time>2021-11-21T15:38:47.323Z</time>
      </trkpt>
      <trkpt lat="47.662271" lon="8.039086">
        <ele>886.300849</ele>
        <time>2021-11-21T15:38:54.172Z</time>
      </trkpt>
      <trkpt lat="47.661891" lon="8.038641">
        <ele>887.346754</ele>
        <time>2021-11-21T15:39:06.811Z</time>
      </trkpt>
      <trkpt lat="47.661789" lon="8.038453">
        <ele>887.698134</ele>
        <time>2021-11-21T15:39:11.282Z</time>
      </trkpt>
      <trkpt lat="47.661689" lon="8.038216">
        <ele>888.105196</ele>
        <time>2021-11-21T15:39:16.122Z</time>
      </trkpt>
      <trkpt lat="47.661582" lon="8.037913">
        <ele>888.603164</ele>
        <time>2021-11-21T15:39:22.160Z</time>
      </trkpt>
      <trkpt lat="47.661241" lon="8.036936">
        <ele>889.221097</ele>
        <time>2021-11-21T15:39:38.070Z</time>
      </trkpt>
      <trkpt lat="47.660975" lon="8.036110">
        <ele>889.173480</ele>
        <time>2021-11-21T15:39:48.099Z</time>
      </trkpt>
      <trkpt lat="47.660914" lon="8.035843">
        <ele>889.158816</ele>
        <time>2021-11-21T15:39:50.351Z</time>
      </trkpt>
      <trkpt lat="47.660862" lon="8.035538">
        <ele>889.142453</ele>
        <time>2021-11-21T15:39:53.070Z</time>
      </trkpt>
      <trkpt lat="47.660815" lon="8.035030">
        <ele>889.108776</ele>
        <time>2021-11-21T15:39:56.900Z</time>
      </trkpt>
      <trkpt lat="47.660720" lon="8.034012">
        <ele>888.011652</ele>
        <time>2021-11-21T15:40:04.134Z</time>
      </trkpt>
      <trkpt lat="47.660704" lon="8.033736">
        <ele>887.715925</ele>
        <time>2021-11-21T15:40:06.119Z</time>
      </trkpt>
      <trkpt lat="47.660712" lon="8.033348">
        <ele>887.301530</ele>
        <time>2021-11-21T15:40:09.020Z</time>
      </trkpt>
      <trkpt lat="47.660722" lon="8.032994">
        <ele>886.923293</ele>
        <time>2021-11-21T15:40:11.728Z</time>
      </trkpt>
      <trkpt lat="47.660779" lon="8.031884">
        <ele>886.630111</ele>
        <time>2021-11-21T15:40:22.048Z</time>
      </trkpt>
      <trkpt lat="47.660771" lon="8.031434">
        <ele>886.960645</ele>
        <time>2021-11-21T15:40:27.050Z</time>
      </trkpt>
      <trkpt lat="47.660640" lon="8.030360">
        <ele>887.762071</ele>
        <time>2021-11-21T15:40:43.367Z</time>
      </trkpt>
      <trkpt lat="47.660555" lon="8.029987">
        <ele>888.051204</ele>
        <time>2021-11-21T15:40:49.876Z</time>
      </trkpt>
      <trkpt lat="47.660457" lon="8.029615">
        <ele>888.298396</ele>
        <time>2021-11-21T15:40:55.856Z</time>
      </trkpt>
      <trkpt lat="47.660383" lon="8.029332">
        <ele>888.434462</ele>
        <time>2021-11-21T15:41:00.017Z</time>
      </trkpt>
      <trkpt lat="47.660363" lon="8.029257">
        <ele>888.470616</ele>
        <time>2021-11-21T15:41:01.262Z</time>
      </trkpt>
      <trkpt lat="47.660281" lon="8.028754">
        <ele>888.702573</ele>
        <time>2021-11-21T15:41:07.892Z</time>
      </trkpt>
      <trkpt lat="47.660275" lon="8.028464">
        <ele>888.832614</ele>
        <time>2021-11-21T15:41:11.509Z</time>
      </trkpt>
      <trkpt lat="47.660285" lon="8.028026">
        <ele>889.029042</ele>
        <time>2021-11-21T15:41:16.697Z</time>
      </trkpt>
      <trkpt lat="47.660294" lon="8.027599">
        <ele>889.220519</ele>
        <time>2021-11-21T15:41:21.030Z</time>
      </trkpt>
      <trkpt lat="47.660254" lon="8.027140">
        <ele>889.408696</ele>
        <time>2021-11-21T15:41:25.431Z</time>
      </trkpt>
      <trkpt lat="47.660118" lon="8.026493">
        <ele>888.511595</ele>
        <time>2021-11-21T15:41:30.984Z</time>
      </trkpt>
      <trkpt lat="47.660079" lon="8.026313">
        <ele>888.261324</ele>
        <time>2021-11-21T15:41:32.501Z</time>
      </trkpt>
      <trkpt lat="47.660046" lon="8.026048">
        <ele>887.904626</ele>
        <time>2021-11-21T15:41:34.637Z</time>
      </trkpt>
      <trkpt lat="47.659981" lon="8.025033">
        <ele>886.555115</ele>
        <time>2021-11-21T15:41:42.117Z</time>
      </trkpt>
      <trkpt lat="47.659926" lon="8.024521">
        <ele>885.848154</ele>
        <time>2021-11-21T15:41:45.593Z</time>
      </trkpt>
      <trkpt lat="47.659919" lon="8.024478">
        <ele>885.727663</ele>
        <time>2021-11-21T15:41:45.908Z</time>
      </trkpt>
      <trkpt lat="47.659904" lon="8.024399">
        <ele>885.504103</ele>
        <time>2021-11-21T15:41:46.403Z</time>
      </trkpt>
      <trkpt lat="47.659572" lon="8.023543">
        <ele>882.813674</ele>
        <time>2021-11-21T15:41:52.921Z</time>
      </trkpt>
      <trkpt lat="47.659265" lon="8.023143">
        <ele>881.161925</ele>
        <time>2021-11-21T15:41:56.804Z</time>
      </trkpt>
      <trkpt lat="47.659130" lon="8.023024">
        <ele>880.527026</ele>
        <time>2021-11-21T15:41:58.278Z</time>
      </trkpt>
      <trkpt lat="47.659037" lon="8.022943">
        <ele>880.091005</ele>
        <time>2021-11-21T15:41:59.443Z</time>
      </trkpt>
      <trkpt lat="47.658991" lon="8.022915">
        <ele>879.889957</ele>
        <time>2021-11-21T15:41:59.940Z</time>
      </trkpt>
      <trkpt lat="47.658648" lon="8.022676">
        <ele>878.375838</ele>
        <time>2021-11-21T15:42:03.665Z</time>
      </trkpt>
      <trkpt lat="47.658383" lon="8.022443">
        <ele>877.218083</ele>
        <time>2021-11-21T15:42:06.653Z</time>
      </trkpt>
      <trkpt lat="47.658243" lon="8.022254">
        <ele>876.506765</ele>
        <time>2021-11-21T15:42:08.456Z</time>
      </trkpt>
      <trkpt lat="47.658056" lon="8.022001">
        <ele>875.555709</ele>
        <time>2021-11-21T15:42:11.021Z</time>
      </trkpt>
      <trkpt lat="47.658001" lon="8.021883">
        <ele>875.192374</ele>
        <time>2021-11-21T15:42:11.896Z</time>
      </trkpt>
      <trkpt lat="47.657916" lon="8.021656">
        <ele>874.534766</ele>
        <time>2021-11-21T15:42:13.585Z</time>
      </trkpt>
      <trkpt lat="47.657842" lon="8.021387">
        <ele>873.799044</ele>
        <time>2021-11-21T15:42:15.497Z</time>
      </trkpt>
      <trkpt lat="47.657823" lon="8.021288">
        <ele>873.538400</ele>
        <time>2021-11-21T15:42:16.309Z</time>
      </trkpt>
      <trkpt lat="47.657753" lon="8.020920">
        <ele>872.570182</ele>
        <time>2021-11-21T15:42:18.863Z</time>
      </trkpt>
      <trkpt lat="47.657753" lon="8.020920">
        <ele>872.570182</ele>
        <time>2021-11-21T15:42:19.014Z</time>
      </trkpt>
      <trkpt lat="47.657753" lon="8.020920">
        <ele>872.570182</ele>
        <time>2021-11-21T15:42:19.074Z</time>
      </trkpt>
      <trkpt lat="47.657726" lon="8.020717">
        <ele>872.046261</ele>
        <time>2021-11-21T15:42:20.587Z</time>
      </trkpt>
      <trkpt lat="47.657717" lon="8.020646">
        <ele>871.863333</ele>
        <time>2021-11-21T15:42:21.045Z</time>
      </trkpt>
      <trkpt lat="47.657668" lon="8.019942">
        <ele>871.038769</ele>
        <time>2021-11-21T15:42:26.031Z</time>
      </trkpt>
      <trkpt lat="47.657664" lon="8.019541">
        <ele>870.574549</ele>
        <time>2021-11-21T15:42:28.904Z</time>
      </trkpt>
      <trkpt lat="47.657680" lon="8.019137">
        <ele>870.106100</ele>
        <time>2021-11-21T15:42:32.261Z</time>
      </trkpt>
      <trkpt lat="47.657833" lon="8.017983">
        <ele>868.752578</ele>
        <time>2021-11-21T15:42:41.831Z</time>
      </trkpt>
      <trkpt lat="47.657881" lon="8.017777">
        <ele>868.612031</ele>
        <time>2021-11-21T15:42:43.635Z</time>
      </trkpt>
      <trkpt lat="47.658036" lon="8.017215">
        <ele>868.220466</ele>
        <time>2021-11-21T15:42:48.866Z</time>
      </trkpt>
      <trkpt lat="47.658084" lon="8.017056">
        <ele>868.108121</ele>
        <time>2021-11-21T15:42:50.812Z</time>
      </trkpt>
      <trkpt lat="47.658204" lon="8.016720">
        <ele>867.862907</ele>
        <time>2021-11-21T15:42:54.422Z</time>
      </trkpt>
      <trkpt lat="47.658385" lon="8.016199">
        <ele>867.484930</ele>
        <time>2021-11-21T15:42:59.522Z</time>
      </trkpt>
      <trkpt lat="47.658623" lon="8.015519">
        <ele>866.909394</ele>
        <time>2021-11-21T15:43:05.281Z</time>
      </trkpt>
      <trkpt lat="47.658807" lon="8.014878">
        <ele>865.726866</ele>
        <time>2021-11-21T15:43:10.547Z</time>
      </trkpt>
      <trkpt lat="47.658859" lon="8.014690">
        <ele>865.381953</ele>
        <time>2021-11-21T15:43:12.034Z</time>
      </trkpt>
      <trkpt lat="47.659203" lon="8.013313">
        <ele>862.889466</ele>
        <time>2021-11-21T15:43:22.221Z</time>
      </trkpt>
      <trkpt lat="47.658947" lon="8.013116">
        <ele>862.037270</ele>
        <time>2021-11-21T15:43:25.178Z</time>
      </trkpt>
      <trkpt lat="47.658746" lon="8.012848">
        <ele>861.109179</ele>
        <time>2021-11-21T15:43:27.892Z</time>
      </trkpt>
      <trkpt lat="47.658620" lon="8.012560">
        <ele>860.314539</ele>
        <time>2021-11-21T15:43:30.257Z</time>
      </trkpt>
      <trkpt lat="47.658460" lon="8.012239">
        <ele>859.390516</ele>
        <time>2021-11-21T15:43:32.844Z</time>
      </trkpt>
      <trkpt lat="47.658202" lon="8.011892">
        <ele>858.194581</ele>
        <time>2021-11-21T15:43:36.332Z</time>
      </trkpt>
      <trkpt lat="47.657873" lon="8.011642">
        <ele>856.924904</ele>
        <time>2021-11-21T15:43:40.147Z</time>
      </trkpt>
      <trkpt lat="47.657300" lon="8.011543">
        <ele>855.173836</ele>
        <time>2021-11-21T15:43:45.806Z</time>
      </trkpt>
      <trkpt lat="47.657021" lon="8.011540">
        <ele>854.374812</ele>
        <time>2021-11-21T15:43:48.502Z</time>
      </trkpt>
      <trkpt lat="47.656912" lon="8.011553">
        <ele>854.061651</ele>
        <time>2021-11-21T15:43:49.689Z</time>
      </trkpt>
      <trkpt lat="47.656296" lon="8.011585">
        <ele>852.296465</ele>
        <time>2021-11-21T15:43:56.211Z</time>
      </trkpt>
      <trkpt lat="47.656095" lon="8.011596">
        <ele>851.720448</ele>
        <time>2021-11-21T15:43:58.448Z</time>
      </trkpt>
      <trkpt lat="47.655654" lon="8.011463">
        <ele>850.413397</ele>
        <time>2021-11-21T15:44:03.278Z</time>
      </trkpt>
      <trkpt lat="47.655421" lon="8.011331">
        <ele>849.681686</ele>
        <time>2021-11-21T15:44:06.099Z</time>
      </trkpt>
      <trkpt lat="47.655159" lon="8.011068">
        <ele>848.753738</ele>
        <time>2021-11-21T15:44:09.675Z</time>
      </trkpt>
      <trkpt lat="47.654909" lon="8.010618">
        <ele>847.600925</ele>
        <time>2021-11-21T15:44:13.904Z</time>
      </trkpt>
      <trkpt lat="47.654667" lon="8.009807">
        <ele>845.760833</ele>
        <time>2021-11-21T15:44:19.836Z</time>
      </trkpt>
      <trkpt lat="47.654406" lon="8.009271">
        <ele>842.329915</ele>
        <time>2021-11-21T15:44:23.916Z</time>
      </trkpt>
      <trkpt lat="47.653890" lon="8.008724">
        <ele>837.447007</ele>
        <time>2021-11-21T15:44:29.493Z</time>
      </trkpt>
      <trkpt lat="47.653433" lon="8.008511">
        <ele>833.758209</ele>
        <time>2021-11-21T15:44:33.639Z</time>
      </trkpt>
      <trkpt lat="47.653079" lon="8.008399">
        <ele>830.840340</ele>
        <time>2021-11-21T15:44:36.781Z</time>
      </trkpt>
      <trkpt lat="47.652961" lon="8.008365">
        <ele>829.802747</ele>
        <time>2021-11-21T15:44:37.841Z</time>
      </trkpt>
      <trkpt lat="47.652247" lon="8.008164">
        <ele>823.529608</ele>
        <time>2021-11-21T15:44:44.157Z</time>
      </trkpt>
      <trkpt lat="47.652087" lon="8.008133">
        <ele>822.136763</ele>
        <time>2021-11-21T15:44:45.561Z</time>
      </trkpt>
      <trkpt lat="47.651879" lon="8.008189">
        <ele>820.312002</ele>
        <time>2021-11-21T15:44:47.400Z</time>
      </trkpt>
      <trkpt lat="47.651438" lon="8.008748">
        <ele>815.794167</ele>
        <time>2021-11-21T15:44:52.517Z</time>
      </trkpt>
      <trkpt lat="47.651228" lon="8.008918">
        <ele>814.556767</ele>
        <time>2021-11-21T15:44:54.778Z</time>
      </trkpt>
      <trkpt lat="47.651195" lon="8.008934">
        <ele>814.377178</ele>
        <time>2021-11-21T15:44:55.083Z</time>
      </trkpt>
      <trkpt lat="47.651119" lon="8.008974">
        <ele>813.960037</ele>
        <time>2021-11-21T15:44:55.780Z</time>
      </trkpt>
      <trkpt lat="47.650513" lon="8.009097">
        <ele>810.795927</ele>
        <time>2021-11-21T15:45:01.705Z</time>
      </trkpt>
      <trkpt lat="47.650285" lon="8.009248">
        <ele>809.504381</ele>
        <time>2021-11-21T15:45:04.045Z</time>
      </trkpt>
      <trkpt lat="47.648808" lon="8.011136">
        <ele>801.701498</ele>
        <time>2021-11-21T15:45:23.284Z</time>
      </trkpt>
      <trkpt lat="47.648498" lon="8.011376">
        <ele>800.500371</ele>
        <time>2021-11-21T15:45:26.814Z</time>
      </trkpt>
      <trkpt lat="47.648139" lon="8.011511">
        <ele>799.643566</ele>
        <time>2021-11-21T15:45:30.592Z</time>
      </trkpt>
      <trkpt lat="47.647931" lon="8.011553">
        <ele>799.157914</ele>
        <time>2021-11-21T15:45:32.741Z</time>
      </trkpt>
      <trkpt lat="47.647700" lon="8.011578">
        <ele>798.622063</ele>
        <time>2021-11-21T15:45:35.197Z</time>
      </trkpt>
      <trkpt lat="47.647461" lon="8.011563">
        <ele>798.068628</ele>
        <time>2021-11-21T15:45:37.803Z</time>
      </trkpt>
      <trkpt lat="47.647254" lon="8.011528">
        <ele>797.586624</ele>
        <time>2021-11-21T15:45:40.070Z</time>
      </trkpt>
      <trkpt lat="47.647129" lon="8.011490">
        <ele>797.291427</ele>
        <time>2021-11-21T15:45:41.528Z</time>
      </trkpt>
      <trkpt lat="47.646783" lon="8.011351">
        <ele>796.473429</ele>
        <time>2021-11-21T15:45:45.632Z</time>
      </trkpt>
      <trkpt lat="47.646418" lon="8.011132">
        <ele>796.415091</ele>
        <time>2021-11-21T15:45:50.308Z</time>
      </trkpt>
      <trkpt lat="47.646246" lon="8.010992">
        <ele>796.386024</ele>
        <time>2021-11-21T15:45:52.846Z</time>
      </trkpt>
      <trkpt lat="47.646056" lon="8.010808">
        <ele>796.352407</ele>
        <time>2021-11-21T15:45:56.061Z</time>
      </trkpt>
      <trkpt lat="47.645893" lon="8.010578">
        <ele>796.319081</ele>
        <time>2021-11-21T15:45:59.220Z</time>
      </trkpt>
      <trkpt lat="47.645752" lon="8.010251">
        <ele>796.280322</ele>
        <time>2021-11-21T15:46:03.419Z</time>
      </trkpt>
      <trkpt lat="47.645630" lon="8.009847">
        <ele>796.236124</ele>
        <time>2021-11-21T15:46:08.622Z</time>
      </trkpt>
      <trkpt lat="47.645380" lon="8.008349">
        <ele>797.616959</ele>
        <time>2021-11-21T15:46:28.727Z</time>
      </trkpt>
      <trkpt lat="47.645208" lon="8.007812">
        <ele>798.282893</ele>
        <time>2021-11-21T15:46:37.709Z</time>
      </trkpt>
      <trkpt lat="47.645005" lon="8.007361">
        <ele>798.890361</ele>
        <time>2021-11-21T15:46:46.181Z</time>
      </trkpt>
      <trkpt lat="47.644813" lon="8.006998">
        <ele>799.668410</ele>
        <time>2021-11-21T15:46:53.767Z</time>
      </trkpt>
      <trkpt lat="47.645009" lon="8.006748">
        <ele>800.633490</ele>
        <time>2021-11-21T15:47:00.941Z</time>
      </trkpt>
      <trkpt lat="47.645066" lon="8.006638">
        <ele>800.982637</ele>
        <time>2021-11-21T15:47:03.039Z</time>
      </trkpt>
      <trkpt lat="47.645050" lon="8.006418">
        <ele>801.539365</ele>
        <time>2021-11-21T15:47:07.381Z</time>
      </trkpt>
      <trkpt lat="47.644976" lon="8.006338">
        <ele>801.881242</ele>
        <time>2021-11-21T15:47:09.972Z</time>
      </trkpt>
      <trkpt lat="47.644496" lon="8.006280">
        <ele>803.679696</ele>
        <time>2021-11-21T15:47:23.531Z</time>
      </trkpt>
      <trkpt lat="47.644406" lon="8.006203">
        <ele>804.067631</ele>
        <time>2021-11-21T15:47:26.857Z</time>
      </trkpt>
      <trkpt lat="47.644332" lon="8.006091">
        <ele>804.462314</ele>
        <time>2021-11-21T15:47:30.252Z</time>
      </trkpt>
      <trkpt lat="47.644186" lon="8.005517">
        <ele>806.095262</ele>
        <time>2021-11-21T15:47:43.519Z</time>
      </trkpt>
      <trkpt lat="47.643726" lon="8.005069">
        <ele>810.156738</ele>
        <time>2021-11-21T15:48:06.128Z</time>
      </trkpt>
      <trkpt lat="47.643447" lon="8.004400">
        <ele>814.069908</ele>
        <time>2021-11-21T15:48:30.234Z</time>
      </trkpt>
      <trkpt lat="47.643178" lon="8.003944">
        <ele>817.084354</ele>
        <time>2021-11-21T15:48:48.481Z</time>
      </trkpt>
      <trkpt lat="47.643093" lon="8.003754">
        <ele>818.218690</ele>
        <time>2021-11-21T15:48:55.701Z</time>
      </trkpt>
      <trkpt lat="47.643066" lon="8.003659">
        <ele>818.731502</ele>
        <time>2021-11-21T15:49:01.445Z</time>
      </trkpt>
      <trkpt lat="47.643046" lon="8.003223">
        <ele>821.237930</ele>
        <time>2021-11-21T15:49:15.439Z</time>
      </trkpt>
      <trkpt lat="47.643241" lon="8.002879">
        <ele>823.908452</ele>
        <time>2021-11-21T15:49:32.581Z</time>
      </trkpt>
      <trkpt lat="47.643341" lon="8.002817">
        <ele>824.863967</ele>
        <time>2021-11-21T15:49:39.278Z</time>
      </trkpt>
      <trkpt lat="47.644033" lon="8.002850">
        <ele>830.968365</ele>
        <time>2021-11-21T15:50:15.465Z</time>
      </trkpt>
      <trkpt lat="47.644119" lon="8.002821">
        <ele>831.745935</ele>
        <time>2021-11-21T15:50:22.017Z</time>
      </trkpt>
      <trkpt lat="47.644240" lon="8.002748">
        <ele>832.897533</ele>
        <time>2021-11-21T15:50:27.297Z</time>
      </trkpt>
      <trkpt lat="47.644349" lon="8.002643">
        <ele>834.043227</ele>
        <time>2021-11-21T15:50:31.337Z</time>
      </trkpt>
      <trkpt lat="47.644444" lon="8.002552">
        <ele>835.040108</ele>
        <time>2021-11-21T15:50:37.285Z</time>
      </trkpt>
      <trkpt lat="47.644473" lon="8.002508">
        <ele>835.246901</ele>
        <time>2021-11-21T15:50:39.303Z</time>
      </trkpt>
      <trkpt lat="47.645398" lon="8.001143">
        <ele>841.604254</ele>
        <time>2021-11-21T15:51:25.745Z</time>
      </trkpt>
      <trkpt lat="47.645740" lon="8.000610">
        <ele>843.961667</ele>
        <time>2021-11-21T15:51:38.157Z</time>
      </trkpt>
      <trkpt lat="47.645825" lon="8.000415">
        <ele>844.501931</ele>
        <time>2021-11-21T15:51:41.733Z</time>
      </trkpt>
      <trkpt lat="47.645900" lon="8.000202">
        <ele>845.060992</ele>
        <time>2021-11-21T15:51:46.068Z</time>
      </trkpt>
      <trkpt lat="47.646124" lon="7.999072">
        <ele>847.800958</ele>
        <time>2021-11-21T15:52:08.146Z</time>
      </trkpt>
      <trkpt lat="47.646322" lon="7.998514">
        <ele>849.267972</ele>
        <time>2021-11-21T15:52:21.866Z</time>
      </trkpt>
      <trkpt lat="47.646428" lon="7.998315">
        <ele>849.858078</ele>
        <time>2021-11-21T15:52:27.829Z</time>
      </trkpt>
      <trkpt lat="47.646626" lon="7.997988">
        <ele>850.638852</ele>
        <time>2021-11-21T15:52:36.615Z</time>
      </trkpt>
      <trkpt lat="47.646802" lon="7.997752">
        <ele>851.225642</ele>
        <time>2021-11-21T15:52:42.808Z</time>
      </trkpt>
      <trkpt lat="47.646998" lon="7.997715">
        <ele>851.714456</ele>
        <time>2021-11-21T15:52:48.855Z</time>
      </trkpt>
      <trkpt lat="47.647123" lon="7.997773">
        <ele>852.038465</ele>
        <time>2021-11-21T15:52:51.168Z</time>
      </trkpt>
      <trkpt lat="47.647314" lon="7.997912">
        <ele>852.564740</ele>
        <time>2021-11-21T15:52:57.488Z</time>
      </trkpt>
      <trkpt lat="47.647486" lon="7.997973">
        <ele>853.002248</ele>
        <time>2021-11-21T15:53:00.732Z</time>
      </trkpt>
      <trkpt lat="47.647654" lon="7.997949">
        <ele>853.419804</ele>
        <time>2021-11-21T15:53:05.447Z</time>
      </trkpt>
      <trkpt lat="47.648402" lon="7.997659">
        <ele>854.898496</ele>
        <time>2021-11-21T15:53:19.991Z</time>
      </trkpt>
      <trkpt lat="47.648430" lon="7.997629">
        <ele>854.940582</ele>
        <time>2021-11-21T15:53:20.314Z</time>
      </trkpt>
      <trkpt lat="47.648540" lon="7.997501">
        <ele>855.110930</ele>
        <time>2021-11-21T15:53:23.104Z</time>
      </trkpt>
      <trkpt lat="47.648943" lon="7.996727">
        <ele>855.914109</ele>
        <time>2021-11-21T15:53:33.589Z</time>
      </trkpt>
      <trkpt lat="47.649000" lon="7.996557">
        <ele>856.070020</ele>
        <time>2021-11-21T15:53:36.608Z</time>
      </trkpt>
      <trkpt lat="47.649036" lon="7.996383">
        <ele>856.219468</ele>
        <time>2021-11-21T15:53:39.106Z</time>
      </trkpt>
      <trkpt lat="47.649052" lon="7.996133">
        <ele>856.425654</ele>
        <time>2021-11-21T15:53:42.680Z</time>
      </trkpt>
      <trkpt lat="47.649001" lon="7.995162">
        <ele>858.576430</ele>
        <time>2021-11-21T15:53:59.158Z</time>
      </trkpt>
      <trkpt lat="47.649038" lon="7.995009">
        <ele>859.034222</ele>
        <time>2021-11-21T15:54:02.676Z</time>
      </trkpt>
      <trkpt lat="47.649113" lon="7.994889">
        <ele>859.495198</ele>
        <time>2021-11-21T15:54:06.109Z</time>
      </trkpt>
      <trkpt lat="47.649298" lon="7.994769">
        <ele>860.339168</ele>
        <time>2021-11-21T15:54:12.050Z</time>
      </trkpt>
      <trkpt lat="47.649427" lon="7.994686">
        <ele>860.926906</ele>
        <time>2021-11-21T15:54:16.776Z</time>
      </trkpt>
      <trkpt lat="47.649526" lon="7.994608">
        <ele>861.395439</ele>
        <time>2021-11-21T15:54:20.075Z</time>
      </trkpt>
      <trkpt lat="47.649609" lon="7.994509">
        <ele>861.840537</ele>
        <time>2021-11-21T15:54:23.769Z</time>
      </trkpt>
      <trkpt lat="47.649717" lon="7.994345">
        <ele>862.486392</ele>
        <time>2021-11-21T15:54:30.094Z</time>
      </trkpt>
      <trkpt lat="47.649934" lon="7.993901">
        <ele>864.031146</ele>
        <time>2021-11-21T15:54:44.182Z</time>
      </trkpt>
      <trkpt lat="47.650491" lon="7.992757">
        <ele>869.375553</ele>
        <time>2021-11-21T15:55:19.434Z</time>
      </trkpt>
      <trkpt lat="47.650522" lon="7.992647">
        <ele>869.831776</ele>
        <time>2021-11-21T15:55:22.810Z</time>
      </trkpt>
      <trkpt lat="47.650570" lon="7.992409">
        <ele>870.782336</ele>
        <time>2021-11-21T15:55:29.434Z</time>
      </trkpt>
      <trkpt lat="47.650648" lon="7.991764">
        <ele>873.289654</ele>
        <time>2021-11-21T15:55:45.048Z</time>
      </trkpt>
      <trkpt lat="47.650965" lon="7.990892">
        <ele>877.197748</ele>
        <time>2021-11-21T15:56:10.371Z</time>
      </trkpt>
      <trkpt lat="47.651085" lon="7.990554">
        <ele>878.723423</ele>
        <time>2021-11-21T15:56:21.032Z</time>
      </trkpt>
      <trkpt lat="47.651177" lon="7.990271">
        <ele>879.978203</ele>
        <time>2021-11-21T15:56:29.045Z</time>
      </trkpt>
      <trkpt lat="47.651306" lon="7.989748">
        <ele>882.202229</ele>
        <time>2021-11-21T15:56:43.046Z</time>
      </trkpt>
      <trkpt lat="47.651331" lon="7.989520">
        <ele>883.124655</ele>
        <time>2021-11-21T15:56:48.994Z</time>
      </trkpt>
      <trkpt lat="47.651466" lon="7.987627">
        <ele>891.466405</ele>
        <time>2021-11-21T15:57:40.160Z</time>
      </trkpt>
      <trkpt lat="47.651542" lon="7.986566">
        <ele>896.284402</ele>
        <time>2021-11-21T15:58:11.750Z</time>
      </trkpt>
      <trkpt lat="47.651572" lon="7.986401">
        <ele>897.056127</ele>
        <time>2021-11-21T15:58:18.103Z</time>
      </trkpt>
      <trkpt lat="47.651585" lon="7.986334">
        <ele>897.321247</ele>
        <time>2021-11-21T15:58:20.489Z</time>
      </trkpt>
      <trkpt lat="47.651807" lon="7.985695">
        <ele>899.917888</ele>
        <time>2021-11-21T15:58:39.692Z</time>
      </trkpt>
      <trkpt lat="47.651880" lon="7.985568">
        <ele>900.520842</ele>
        <time>2021-11-21T15:58:43.887Z</time>
      </trkpt>
      <trkpt lat="47.651945" lon="7.985453">
        <ele>901.063006</ele>
        <time>2021-11-21T15:58:48.822Z</time>
      </trkpt>
      <trkpt lat="47.652523" lon="7.984756">
        <ele>905.055419</ele>
        <time>2021-11-21T15:59:14.424Z</time>
      </trkpt>
      <trkpt lat="47.652604" lon="7.984546">
        <ele>905.929368</ele>
        <time>2021-11-21T15:59:19.898Z</time>
      </trkpt>
      <trkpt lat="47.652633" lon="7.984339">
        <ele>906.692948</ele>
        <time>2021-11-21T15:59:23.195Z</time>
      </trkpt>
      <trkpt lat="47.652643" lon="7.983778">
        <ele>907.617448</ele>
        <time>2021-11-21T15:59:33.598Z</time>
      </trkpt>
      <trkpt lat="47.652505" lon="7.982801">
        <ele>909.188932</ele>
        <time>2021-11-21T15:59:49.413Z</time>
      </trkpt>
      <trkpt lat="47.652508" lon="7.982678">
        <ele>909.382691</ele>
        <time>2021-11-21T15:59:50.533Z</time>
      </trkpt>
      <trkpt lat="47.652510" lon="7.982613">
        <ele>909.485123</ele>
        <time>2021-11-21T15:59:52.678Z</time>
      </trkpt>
      <trkpt lat="47.652576" lon="7.982196">
        <ele>910.159459</ele>
        <time>2021-11-21T15:59:58.199Z</time>
      </trkpt>
      <trkpt lat="47.652765" lon="7.981492">
        <ele>911.302284</ele>
        <time>2021-11-21T16:00:09.290Z</time>
      </trkpt>
      <trkpt lat="47.653193" lon="7.980022">
        <ele>913.493147</ele>
        <time>2021-11-21T16:00:34.043Z</time>
      </trkpt>
      <trkpt lat="47.653397" lon="7.979529">
        <ele>914.284685</ele>
        <time>2021-11-21T16:00:43.256Z</time>
      </trkpt>
      <trkpt lat="47.653520" lon="7.979391">
        <ele>914.597803</ele>
        <time>2021-11-21T16:00:46.918Z</time>
      </trkpt>
      <trkpt lat="47.653749" lon="7.979154">
        <ele>915.447808</ele>
        <time>2021-11-21T16:00:53.596Z</time>
      </trkpt>
      <trkpt lat="47.653862" lon="7.978904">
        <ele>916.074477</ele>
        <time>2021-11-21T16:00:58.163Z</time>
      </trkpt>
      <trkpt lat="47.653868" lon="7.978760">
        <ele>916.374785</ele>
        <time>2021-11-21T16:01:00.667Z</time>
      </trkpt>
      <trkpt lat="47.653855" lon="7.978549">
        <ele>916.815814</ele>
        <time>2021-11-21T16:01:04.040Z</time>
      </trkpt>
      <trkpt lat="47.653810" lon="7.978101">
        <ele>917.758634</ele>
        <time>2021-11-21T16:01:11.942Z</time>
      </trkpt>
      <trkpt lat="47.653813" lon="7.977977">
        <ele>918.016906</ele>
        <time>2021-11-21T16:01:13.876Z</time>
      </trkpt>
      <trkpt lat="47.653843" lon="7.977840">
        <ele>918.316760</ele>
        <time>2021-11-21T16:01:16.455Z</time>
      </trkpt>
      <trkpt lat="47.653830" lon="7.977761">
        <ele>918.486034</ele>
        <time>2021-11-21T16:01:23.591Z</time>
      </trkpt>
      <trkpt lat="47.653991" lon="7.976390">
        <ele>922.644858</ele>
        <time>2021-11-21T16:03:23.061Z</time>
      </trkpt>
      <trkpt lat="47.654015" lon="7.976182">
        <ele>923.544971</ele>
        <time>2021-11-21T16:03:43.020Z</time>
      </trkpt>
      <trkpt lat="47.654039" lon="7.974990">
        <ele>928.631525</ele>
        <time>2021-11-21T16:05:33.839Z</time>
      </trkpt>
      <trkpt lat="47.654068" lon="7.974892">
        <ele>929.088085</ele>
        <time>2021-11-21T16:05:44.551Z</time>
      </trkpt>
      <trkpt lat="47.654064" lon="7.974789">
        <ele>929.528144</ele>
        <time>2021-11-21T16:05:47.233Z</time>
      </trkpt>
      <trkpt lat="47.654051" lon="7.974524">
        <ele>930.661452</ele>
        <time>2021-11-21T16:05:55.479Z</time>
      </trkpt>
      <trkpt lat="47.654073" lon="7.974336">
        <ele>931.475345</ele>
        <time>2021-11-21T16:06:01.686Z</time>
      </trkpt>
      <trkpt lat="47.654129" lon="7.974161">
        <ele>932.359142</ele>
        <time>2021-11-21T16:06:07.460Z</time>
      </trkpt>
      <trkpt lat="47.654258" lon="7.973979">
        <ele>933.574335</ele>
        <time>2021-11-21T16:06:15.965Z</time>
      </trkpt>
      <trkpt lat="47.655003" lon="7.973149">
        <ele>939.934618</ele>
        <time>2021-11-21T16:06:57.138Z</time>
      </trkpt>
      <trkpt lat="47.655150" lon="7.972945">
        <ele>941.308650</ele>
        <time>2021-11-21T16:07:05.512Z</time>
      </trkpt>
      <trkpt lat="47.655950" lon="7.971412">
        <ele>948.969713</ele>
        <time>2021-11-21T16:07:52.426Z</time>
      </trkpt>
      <trkpt lat="47.656102" lon="7.971198">
        <ele>950.117855</ele>
        <time>2021-11-21T16:08:00.497Z</time>
      </trkpt>
      <trkpt lat="47.656340" lon="7.970890">
        <ele>951.848331</ele>
        <time>2021-11-21T16:08:10.741Z</time>
      </trkpt>
      <trkpt lat="47.656815" lon="7.970288">
        <ele>955.872006</ele>
        <time>2021-11-21T16:08:33.727Z</time>
      </trkpt>
      <trkpt lat="47.656989" lon="7.969970">
        <ele>957.966030</ele>
        <time>2021-11-21T16:08:45.705Z</time>
      </trkpt>
      <trkpt lat="47.657032" lon="7.969793">
        <ele>958.927733</ele>
        <time>2021-11-21T16:08:51.530Z</time>
      </trkpt>
      <trkpt lat="47.657039" lon="7.969626">
        <ele>959.782933</ele>
        <time>2021-11-21T16:08:56.914Z</time>
      </trkpt>
      <trkpt lat="47.656962" lon="7.969271">
        <ele>961.689120</ele>
        <time>2021-11-21T16:09:08.095Z</time>
      </trkpt>
      <trkpt lat="47.656773" lon="7.968937">
        <ele>963.918688</ele>
        <time>2021-11-21T16:09:21.249Z</time>
      </trkpt>
      <trkpt lat="47.656696" lon="7.968854">
        <ele>964.640732</ele>
        <time>2021-11-21T16:09:25.415Z</time>
      </trkpt>
      <trkpt lat="47.656511" lon="7.968670">
        <ele>966.330428</ele>
        <time>2021-11-21T16:09:36.193Z</time>
      </trkpt>
      <trkpt lat="47.655957" lon="7.968245">
        <ele>972.290481</ele>
        <time>2021-11-21T16:10:11.097Z</time>
      </trkpt>
      <trkpt lat="47.655779" lon="7.968196">
        <ele>974.119556</ele>
        <time>2021-11-21T16:10:23.427Z</time>
      </trkpt>
      <trkpt lat="47.654885" lon="7.968206">
        <ele>983.152323</ele>
        <time>2021-11-21T16:11:13.546Z</time>
      </trkpt>
      <trkpt lat="47.654817" lon="7.968152">
        <ele>983.931476</ele>
        <time>2021-11-21T16:11:19.111Z</time>
      </trkpt>
      <trkpt lat="47.654750" lon="7.968047">
        <ele>984.915795</ele>
        <time>2021-11-21T16:11:24.684Z</time>
      </trkpt>
      <trkpt lat="47.654762" lon="7.967700">
        <ele>986.457447</ele>
        <time>2021-11-21T16:11:35.271Z</time>
      </trkpt>
      <trkpt lat="47.654821" lon="7.967589">
        <ele>986.967343</ele>
        <time>2021-11-21T16:11:41.056Z</time>
      </trkpt>
      <trkpt lat="47.655278" lon="7.967139">
        <ele>989.903172</ele>
        <time>2021-11-21T16:12:05.147Z</time>
      </trkpt>
      <trkpt lat="47.655941" lon="7.966294">
        <ele>994.581144</ele>
        <time>2021-11-21T16:12:33.529Z</time>
      </trkpt>
      <trkpt lat="47.656018" lon="7.966160">
        <ele>995.117611</ele>
        <time>2021-11-21T16:12:36.531Z</time>
      </trkpt>
      <trkpt lat="47.656122" lon="7.965934">
        <ele>994.405130</ele>
        <time>2021-11-21T16:12:38.442Z</time>
      </trkpt>
      <trkpt lat="47.656195" lon="7.965776">
        <ele>993.906387</ele>
        <time>2021-11-21T16:12:40.003Z</time>
      </trkpt>
      <trkpt lat="47.656243" lon="7.965641">
        <ele>993.509017</ele>
        <time>2021-11-21T16:12:41.267Z</time>
      </trkpt>
      <trkpt lat="47.656286" lon="7.965454">
        <ele>992.994658</ele>
        <time>2021-11-21T16:12:42.550Z</time>
      </trkpt>
      <trkpt lat="47.656383" lon="7.964840">
        <ele>991.352998</ele>
        <time>2021-11-21T16:12:46.752Z</time>
      </trkpt>
      <trkpt lat="47.656398" lon="7.964453">
        <ele>990.343943</ele>
        <time>2021-11-21T16:12:49.252Z</time>
      </trkpt>
      <trkpt lat="47.656385" lon="7.964283">
        <ele>989.898578</ele>
        <time>2021-11-21T16:12:50.292Z</time>
      </trkpt>
      <trkpt lat="47.656368" lon="7.964081">
        <ele>989.368669</ele>
        <time>2021-11-21T16:12:51.669Z</time>
      </trkpt>
      <trkpt lat="47.656368" lon="7.964081">
        <ele>989.368669</ele>
        <time>2021-11-21T16:12:51.680Z</time>
      </trkpt>
      <trkpt lat="47.656315" lon="7.963729">
        <ele>988.429774</ele>
        <time>2021-11-21T16:12:53.812Z</time>
      </trkpt>
      <trkpt lat="47.656081" lon="7.962896">
        <ele>982.891706</ele>
        <time>2021-11-21T16:12:59.134Z</time>
      </trkpt>
      <trkpt lat="47.655933" lon="7.962104">
        <ele>977.545686</ele>
        <time>2021-11-21T16:13:03.899Z</time>
      </trkpt>
      <trkpt lat="47.655850" lon="7.960949">
        <ele>969.843946</ele>
        <time>2021-11-21T16:13:10.584Z</time>
      </trkpt>
      <trkpt lat="47.655779" lon="7.960622">
        <ele>967.223531</ele>
        <time>2021-11-21T16:13:12.557Z</time>
      </trkpt>
      <trkpt lat="47.655127" lon="7.959601">
        <ele>956.492954</ele>
        <time>2021-11-21T16:13:20.644Z</time>
      </trkpt>
      <trkpt lat="47.654813" lon="7.959256">
        <ele>952.069676</ele>
        <time>2021-11-21T16:13:23.934Z</time>
      </trkpt>
      <trkpt lat="47.653936" lon="7.958486">
        <ele>940.567062</ele>
        <time>2021-11-21T16:13:32.563Z</time>
      </trkpt>
      <trkpt lat="47.653828" lon="7.958393">
        <ele>939.158231</ele>
        <time>2021-11-21T16:13:33.605Z</time>
      </trkpt>
      <trkpt lat="47.653181" lon="7.957841">
        <ele>930.737803</ele>
        <time>2021-11-21T16:13:40.002Z</time>
      </trkpt>
      <trkpt lat="47.653096" lon="7.957768">
        <ele>929.784377</ele>
        <time>2021-11-21T16:13:40.845Z</time>
      </trkpt>
      <trkpt lat="47.652772" lon="7.957441">
        <ele>926.610991</ele>
        <time>2021-11-21T16:13:44.244Z</time>
      </trkpt>
      <trkpt lat="47.652595" lon="7.957204">
        <ele>924.680305</ele>
        <time>2021-11-21T16:13:46.290Z</time>
      </trkpt>
      <trkpt lat="47.652507" lon="7.957087">
        <ele>923.723444</ele>
        <time>2021-11-21T16:13:47.307Z</time>
      </trkpt>
      <trkpt lat="47.652053" lon="7.956533">
        <ele>918.963229</ele>
        <time>2021-11-21T16:13:52.579Z</time>
      </trkpt>
      <trkpt lat="47.651719" lon="7.956399">
        <ele>916.160842</ele>
        <time>2021-11-21T16:13:55.729Z</time>
      </trkpt>
      <trkpt lat="47.651516" lon="7.956396">
        <ele>914.907996</ele>
        <time>2021-11-21T16:13:57.591Z</time>
      </trkpt>
      <trkpt lat="47.651292" lon="7.956406">
        <ele>913.743209</ele>
        <time>2021-11-21T16:13:59.652Z</time>
      </trkpt>
      <trkpt lat="47.651095" lon="7.956386">
        <ele>912.716891</ele>
        <time>2021-11-21T16:14:01.517Z</time>
      </trkpt>
      <trkpt lat="47.650842" lon="7.956246">
        <ele>911.313508</ele>
        <time>2021-11-21T16:14:04.091Z</time>
      </trkpt>
      <trkpt lat="47.650655" lon="7.955948">
        <ele>909.887544</ele>
        <time>2021-11-21T16:14:06.708Z</time>
      </trkpt>
      <trkpt lat="47.650609" lon="7.955764">
        <ele>909.200360</ele>
        <time>2021-11-21T16:14:07.952Z</time>
      </trkpt>
      <trkpt lat="47.650592" lon="7.955306">
        <ele>907.594305</ele>
        <time>2021-11-21T16:14:10.828Z</time>
      </trkpt>
      <trkpt lat="47.650715" lon="7.954086">
        <ele>903.175393</ele>
        <time>2021-11-21T16:14:18.717Z</time>
      </trkpt>
      <trkpt lat="47.650679" lon="7.953702">
        <ele>901.772590</ele>
        <time>2021-11-21T16:14:21.351Z</time>
      </trkpt>
      <trkpt lat="47.650657" lon="7.953661">
        <ele>901.582932</ele>
        <time>2021-11-21T16:14:21.665Z</time>
      </trkpt>
      <trkpt lat="47.650633" lon="7.953615">
        <ele>901.372410</ele>
        <time>2021-11-21T16:14:22.002Z</time>
      </trkpt>
      <trkpt lat="47.650482" lon="7.953573">
        <ele>900.547253</ele>
        <time>2021-11-21T16:14:23.498Z</time>
      </trkpt>
      <trkpt lat="47.650345" lon="7.953699">
        <ele>899.681621</ele>
        <time>2021-11-21T16:14:25.064Z</time>
      </trkpt>
      <trkpt lat="47.650118" lon="7.954645">
        <ele>895.942294</ele>
        <time>2021-11-21T16:14:31.172Z</time>
      </trkpt>
      <trkpt lat="47.650002" lon="7.954933">
        <ele>894.495433</ele>
        <time>2021-11-21T16:14:33.206Z</time>
      </trkpt>
      <trkpt lat="47.649724" lon="7.955623">
        <ele>891.028710</ele>
        <time>2021-11-21T16:14:38.101Z</time>
      </trkpt>
      <trkpt lat="47.649631" lon="7.955853">
        <ele>889.872036</ele>
        <time>2021-11-21T16:14:39.788Z</time>
      </trkpt>
      <trkpt lat="47.649584" lon="7.955970">
        <ele>889.284655</ele>
        <time>2021-11-21T16:14:40.604Z</time>
      </trkpt>
      <trkpt lat="47.649402" lon="7.956302">
        <ele>887.439002</ele>
        <time>2021-11-21T16:14:43.304Z</time>
      </trkpt>
      <trkpt lat="47.649197" lon="7.956371">
        <ele>886.093546</ele>
        <time>2021-11-21T16:14:45.224Z</time>
      </trkpt>
      <trkpt lat="47.649091" lon="7.956249">
        <ele>885.235018</ele>
        <time>2021-11-21T16:14:46.418Z</time>
      </trkpt>
      <trkpt lat="47.648999" lon="7.956144">
        <ele>884.478049</ele>
        <time>2021-11-21T16:14:47.450Z</time>
      </trkpt>
      <trkpt lat="47.648915" lon="7.955909">
        <ele>883.303606</ele>
        <time>2021-11-21T16:14:49.094Z</time>
      </trkpt>
      <trkpt lat="47.648843" lon="7.955710">
        <ele>882.306398</ele>
        <time>2021-11-21T16:14:50.441Z</time>
      </trkpt>
      <trkpt lat="47.648779" lon="7.955603">
        <ele>881.674707</ele>
        <time>2021-11-21T16:14:51.342Z</time>
      </trkpt>
      <trkpt lat="47.648720" lon="7.955532">
        <ele>881.176977</ele>
        <time>2021-11-21T16:14:52.039Z</time>
      </trkpt>
      <trkpt lat="47.648456" lon="7.955339">
        <ele>879.248507</ele>
        <time>2021-11-21T16:14:54.694Z</time>
      </trkpt>
      <trkpt lat="47.648185" lon="7.955328">
        <ele>877.471934</ele>
        <time>2021-11-21T16:14:57.218Z</time>
      </trkpt>
      <trkpt lat="47.648068" lon="7.955382">
        <ele>876.669006</ele>
        <time>2021-11-21T16:14:58.351Z</time>
      </trkpt>
      <trkpt lat="47.647946" lon="7.955473">
        <ele>875.774257</ele>
        <time>2021-11-21T16:14:59.577Z</time>
      </trkpt>
      <trkpt lat="47.646613" lon="7.957202">
        <ele>863.495869</ele>
        <time>2021-11-21T16:15:15.425Z</time>
      </trkpt>
      <trkpt lat="47.646155" lon="7.957498">
        <ele>860.070817</ele>
        <time>2021-11-21T16:15:19.913Z</time>
      </trkpt>
      <trkpt lat="47.645747" lon="7.957554">
        <ele>857.587227</ele>
        <time>2021-11-21T16:15:23.642Z</time>
      </trkpt>
      <trkpt lat="47.645406" lon="7.957496">
        <ele>855.506774</ele>
        <time>2021-11-21T16:15:26.783Z</time>
      </trkpt>
      <trkpt lat="47.644164" lon="7.956750">
        <ele>847.712638</ele>
        <time>2021-11-21T16:15:39.150Z</time>
      </trkpt>
      <trkpt lat="47.643910" lon="7.956673">
        <ele>846.359972</ele>
        <time>2021-11-21T16:15:41.643Z</time>
      </trkpt>
      <trkpt lat="47.643852" lon="7.956655">
        <ele>846.050799</ele>
        <time>2021-11-21T16:15:42.169Z</time>
      </trkpt>
      <trkpt lat="47.643476" lon="7.956624">
        <ele>844.085905</ele>
        <time>2021-11-21T16:15:45.735Z</time>
      </trkpt>
      <trkpt lat="47.642688" lon="7.956755">
        <ele>840.094055</ele>
        <time>2021-11-21T16:15:53.177Z</time>
      </trkpt>
      <trkpt lat="47.642280" lon="7.956756">
        <ele>838.734639</ele>
        <time>2021-11-21T16:15:56.998Z</time>
      </trkpt>
      <trkpt lat="47.641799" lon="7.956605">
        <ele>837.096540</ele>
        <time>2021-11-21T16:16:01.815Z</time>
      </trkpt>
      <trkpt lat="47.641512" lon="7.956418">
        <ele>836.052196</ele>
        <time>2021-11-21T16:16:04.990Z</time>
      </trkpt>
      <trkpt lat="47.641056" lon="7.956097">
        <ele>834.370617</ele>
        <time>2021-11-21T16:16:10.449Z</time>
      </trkpt>
      <trkpt lat="47.640501" lon="7.955695">
        <ele>835.160356</ele>
        <time>2021-11-21T16:16:20.524Z</time>
      </trkpt>
      <trkpt lat="47.640167" lon="7.955381">
        <ele>835.677088</ele>
        <time>2021-11-21T16:16:28.380Z</time>
      </trkpt>
      <trkpt lat="47.639795" lon="7.954985">
        <ele>836.275409</ele>
        <time>2021-11-21T16:16:39.039Z</time>
      </trkpt>
      <trkpt lat="47.639696" lon="7.954882">
        <ele>836.433424</ele>
        <time>2021-11-21T16:16:42.640Z</time>
      </trkpt>
      <trkpt lat="47.639497" lon="7.954714">
        <ele>836.777750</ele>
        <time>2021-11-21T16:16:48.900Z</time>
      </trkpt>
      <trkpt lat="47.639207" lon="7.954547">
        <ele>837.955970</ele>
        <time>2021-11-21T16:16:57.832Z</time>
      </trkpt>
      <trkpt lat="47.638760" lon="7.954525">
        <ele>839.649998</ele>
        <time>2021-11-21T16:17:10.806Z</time>
      </trkpt>
      <trkpt lat="47.637932" lon="7.954791">
        <ele>842.858842</ele>
        <time>2021-11-21T16:17:38.098Z</time>
      </trkpt>
      <trkpt lat="47.637714" lon="7.954725">
        <ele>843.757243</ele>
        <time>2021-11-21T16:17:44.656Z</time>
      </trkpt>
      <trkpt lat="47.637492" lon="7.954483">
        <ele>845.123328</ele>
        <time>2021-11-21T16:17:52.671Z</time>
      </trkpt>
      <trkpt lat="47.637400" lon="7.954079">
        <ele>846.548414</ele>
        <time>2021-11-21T16:18:01.470Z</time>
      </trkpt>
      <trkpt lat="47.637386" lon="7.953714">
        <ele>847.770133</ele>
        <time>2021-11-21T16:18:09.979Z</time>
      </trkpt>
      <trkpt lat="47.637371" lon="7.953324">
        <ele>849.075542</ele>
        <time>2021-11-21T16:18:19.767Z</time>
      </trkpt>
      <trkpt lat="47.637300" lon="7.951504">
        <ele>854.869857</ele>
        <time>2021-11-21T16:19:06.145Z</time>
      </trkpt>
      <trkpt lat="47.637306" lon="7.951326">
        <ele>855.400352</ele>
        <time>2021-11-21T16:19:10.867Z</time>
      </trkpt>
      <trkpt lat="47.637337" lon="7.951149">
        <ele>855.944713</ele>
        <time>2021-11-21T16:19:14.492Z</time>
      </trkpt>
      <trkpt lat="47.637383" lon="7.950993">
        <ele>856.451576</ele>
        <time>2021-11-21T16:19:17.443Z</time>
      </trkpt>
      <trkpt lat="47.637451" lon="7.950859">
        <ele>856.950899</ele>
        <time>2021-11-21T16:19:21.885Z</time>
      </trkpt>
      <trkpt lat="47.637598" lon="7.950642">
        <ele>857.866806</ele>
        <time>2021-11-21T16:19:27.718Z</time>
      </trkpt>
      <trkpt lat="47.637813" lon="7.950431">
        <ele>859.005440</ele>
        <time>2021-11-21T16:19:35.987Z</time>
      </trkpt>
      <trkpt lat="47.638433" lon="7.949786">
        <ele>860.852258</ele>
        <time>2021-11-21T16:19:56.856Z</time>
      </trkpt>
      <trkpt lat="47.638845" lon="7.949151">
        <ele>861.473832</ele>
        <time>2021-11-21T16:20:08.544Z</time>
      </trkpt>
      <trkpt lat="47.639038" lon="7.948758">
        <ele>861.816728</ele>
        <time>2021-11-21T16:20:13.447Z</time>
      </trkpt>
      <trkpt lat="47.639170" lon="7.948455">
        <ele>862.071139</ele>
        <time>2021-11-21T16:20:16.707Z</time>
      </trkpt>
      <trkpt lat="47.639254" lon="7.948202">
        <ele>862.268763</ele>
        <time>2021-11-21T16:20:19.258Z</time>
      </trkpt>
      <trkpt lat="47.639305" lon="7.947792">
        <ele>861.881808</ele>
        <time>2021-11-21T16:20:22.582Z</time>
      </trkpt>
      <trkpt lat="47.639245" lon="7.947417">
        <ele>861.524090</ele>
        <time>2021-11-21T16:20:25.535Z</time>
      </trkpt>
      <trkpt lat="47.639171" lon="7.947230">
        <ele>861.322815</ele>
        <time>2021-11-21T16:20:27.384Z</time>
      </trkpt>
      <trkpt lat="47.639079" lon="7.947097">
        <ele>861.145908</ele>
        <time>2021-11-21T16:20:28.644Z</time>
      </trkpt>
      <trkpt lat="47.638936" lon="7.946910">
        <ele>860.883382</ele>
        <time>2021-11-21T16:20:30.997Z</time>
      </trkpt>
      <trkpt lat="47.638801" lon="7.946735">
        <ele>860.636483</ele>
        <time>2021-11-21T16:20:32.838Z</time>
      </trkpt>
      <trkpt lat="47.638633" lon="7.946522">
        <ele>860.332130</ele>
        <time>2021-11-21T16:20:35.588Z</time>
      </trkpt>
      <trkpt lat="47.638601" lon="7.946470">
        <ele>860.266769</ele>
        <time>2021-11-21T16:20:36.142Z</time>
      </trkpt>
      <trkpt lat="47.638490" lon="7.946296">
        <ele>860.044380</ele>
        <time>2021-11-21T16:20:37.808Z</time>
      </trkpt>
      <trkpt lat="47.638187" lon="7.945494">
        <ele>859.645147</ele>
        <time>2021-11-21T16:20:45.762Z</time>
      </trkpt>
      <trkpt lat="47.638180" lon="7.945471">
        <ele>859.639425</ele>
        <time>2021-11-21T16:20:45.904Z</time>
      </trkpt>
      <trkpt lat="47.638087" lon="7.945165">
        <ele>859.563310</ele>
        <time>2021-11-21T16:20:49.617Z</time>
      </trkpt>
      <trkpt lat="47.637977" lon="7.944887">
        <ele>859.490210</ele>
        <time>2021-11-21T16:20:52.306Z</time>
      </trkpt>
      <trkpt lat="47.637846" lon="7.944700">
        <ele>859.429045</ele>
        <time>2021-11-21T16:20:55.402Z</time>
      </trkpt>
      <trkpt lat="47.637690" lon="7.944520">
        <ele>859.362550</ele>
        <time>2021-11-21T16:20:57.771Z</time>
      </trkpt>
      <trkpt lat="47.637583" lon="7.944404">
        <ele>859.317960</ele>
        <time>2021-11-21T16:21:00.035Z</time>
      </trkpt>
      <trkpt lat="47.637442" lon="7.944256">
        <ele>859.259844</ele>
        <time>2021-11-21T16:21:02.305Z</time>
      </trkpt>
      <trkpt lat="47.637571" lon="7.944037">
        <ele>859.193887</ele>
        <time>2021-11-21T16:21:06.021Z</time>
      </trkpt>
      <trkpt lat="47.637613" lon="7.943952">
        <ele>859.218312</ele>
        <time>2021-11-21T16:21:07.337Z</time>
      </trkpt>
      <trkpt lat="47.637910" lon="7.943332">
        <ele>859.544468</ele>
        <time>2021-11-21T16:21:16.674Z</time>
      </trkpt>
      <trkpt lat="47.638082" lon="7.942969">
        <ele>859.734733</ele>
        <time>2021-11-21T16:21:22.627Z</time>
      </trkpt>
      <trkpt lat="47.638178" lon="7.942718">
        <ele>859.858477</ele>
        <time>2021-11-21T16:21:26.767Z</time>
      </trkpt>
      <trkpt lat="47.638425" lon="7.941930">
        <ele>860.231097</ele>
        <time>2021-11-21T16:21:37.022Z</time>
      </trkpt>
      <trkpt lat="47.638557" lon="7.941269">
        <ele>859.647494</ele>
        <time>2021-11-21T16:21:43.323Z</time>
      </trkpt>
      <trkpt lat="47.638649" lon="7.940702">
        <ele>858.773018</ele>
        <time>2021-11-21T16:21:48.446Z</time>
      </trkpt>
      <trkpt lat="47.638720" lon="7.939846">
        <ele>857.479825</ele>
        <time>2021-11-21T16:21:54.768Z</time>
      </trkpt>
      <trkpt lat="47.638539" lon="7.938594">
        <ele>854.275496</ele>
        <time>2021-11-21T16:22:02.973Z</time>
      </trkpt>
      <trkpt lat="47.638716" lon="7.938236">
        <ele>852.497475</ele>
        <time>2021-11-21T16:22:05.727Z</time>
      </trkpt>
      <trkpt lat="47.638865" lon="7.938060">
        <ele>851.365794</ele>
        <time>2021-11-21T16:22:07.484Z</time>
      </trkpt>
      <trkpt lat="47.638997" lon="7.937892">
        <ele>850.332415</ele>
        <time>2021-11-21T16:22:09.064Z</time>
      </trkpt>
      <trkpt lat="47.639124" lon="7.937579">
        <ele>848.869406</ele>
        <time>2021-11-21T16:22:11.321Z</time>
      </trkpt>
      <trkpt lat="47.639320" lon="7.936602">
        <ele>844.508311</ele>
        <time>2021-11-21T16:22:17.544Z</time>
      </trkpt>
      <trkpt lat="47.639308" lon="7.936143">
        <ele>842.066228</ele>
        <time>2021-11-21T16:22:20.299Z</time>
      </trkpt>
      <trkpt lat="47.639093" lon="7.935378">
        <ele>837.659526</ele>
        <time>2021-11-21T16:22:25.224Z</time>
      </trkpt>
      <trkpt lat="47.638983" lon="7.935124">
        <ele>836.054272</ele>
        <time>2021-11-21T16:22:27.065Z</time>
      </trkpt>
      <trkpt lat="47.638891" lon="7.934970">
        <ele>834.960072</ele>
        <time>2021-11-21T16:22:28.258Z</time>
      </trkpt>
      <trkpt lat="47.638822" lon="7.934800">
        <ele>833.904958</ele>
        <time>2021-11-21T16:22:29.437Z</time>
      </trkpt>
      <trkpt lat="47.638794" lon="7.934551">
        <ele>832.562843</ele>
        <time>2021-11-21T16:22:30.952Z</time>
      </trkpt>
      <trkpt lat="47.638943" lon="7.934020">
        <ele>829.068890</ele>
        <time>2021-11-21T16:22:34.332Z</time>
      </trkpt>
      <trkpt lat="47.639130" lon="7.933575">
        <ele>825.655253</ele>
        <time>2021-11-21T16:22:37.398Z</time>
      </trkpt>
      <trkpt lat="47.639165" lon="7.933477">
        <ele>824.933309</ele>
        <time>2021-11-21T16:22:38.017Z</time>
      </trkpt>
      <trkpt lat="47.639206" lon="7.933065">
        <ele>822.222527</ele>
        <time>2021-11-21T16:22:40.484Z</time>
      </trkpt>
      <trkpt lat="47.639161" lon="7.932537">
        <ele>818.758413</ele>
        <time>2021-11-21T16:22:43.584Z</time>
      </trkpt>
      <trkpt lat="47.639059" lon="7.932072">
        <ele>815.575393</ele>
        <time>2021-11-21T16:22:46.399Z</time>
      </trkpt>
      <trkpt lat="47.638875" lon="7.931601">
        <ele>812.100059</ele>
        <time>2021-11-21T16:22:49.520Z</time>
      </trkpt>
      <trkpt lat="47.638612" lon="7.931348">
        <ele>809.173881</ele>
        <time>2021-11-21T16:22:52.210Z</time>
      </trkpt>
      <trkpt lat="47.638146" lon="7.931131">
        <ele>804.613979</ele>
        <time>2021-11-21T16:22:56.493Z</time>
      </trkpt>
      <trkpt lat="47.637860" lon="7.930973">
        <ele>801.764768</ele>
        <time>2021-11-21T16:22:59.160Z</time>
      </trkpt>
      <trkpt lat="47.637092" lon="7.930719">
        <ele>794.370627</ele>
        <time>2021-11-21T16:23:06.028Z</time>
      </trkpt>
      <trkpt lat="47.636603" lon="7.930541">
        <ele>789.591120</ele>
        <time>2021-11-21T16:23:10.387Z</time>
      </trkpt>
      <trkpt lat="47.636022" lon="7.930655">
        <ele>784.027884</ele>
        <time>2021-11-21T16:23:15.463Z</time>
      </trkpt>
      <trkpt lat="47.635717" lon="7.930591">
        <ele>781.103821</ele>
        <time>2021-11-21T16:23:18.131Z</time>
      </trkpt>
      <trkpt lat="47.635488" lon="7.930306">
        <ele>777.826658</ele>
        <time>2021-11-21T16:23:20.708Z</time>
      </trkpt>
      <trkpt lat="47.635221" lon="7.929664">
        <ele>771.905765</ele>
        <time>2021-11-21T16:23:25.036Z</time>
      </trkpt>
      <trkpt lat="47.634762" lon="7.929013">
        <ele>764.511010</ele>
        <time>2021-11-21T16:23:30.405Z</time>
      </trkpt>
      <trkpt lat="47.634257" lon="7.928526">
        <ele>757.365210</ele>
        <time>2021-11-21T16:23:35.473Z</time>
      </trkpt>
      <trkpt lat="47.633595" lon="7.928236">
        <ele>748.726454</ele>
        <time>2021-11-21T16:23:41.271Z</time>
      </trkpt>
      <trkpt lat="47.632437" lon="7.928120">
        <ele>734.401582</ele>
        <time>2021-11-21T16:23:51.059Z</time>
      </trkpt>
      <trkpt lat="47.630399" lon="7.928619">
        <ele>710.205597</ele>
        <time>2021-11-21T16:24:08.632Z</time>
      </trkpt>
      <trkpt lat="47.629245" lon="7.928563">
        <ele>695.947853</ele>
        <time>2021-11-21T16:24:18.333Z</time>
      </trkpt>
      <trkpt lat="47.628543" lon="7.928608">
        <ele>688.254676</ele>
        <time>2021-11-21T16:24:24.264Z</time>
      </trkpt>
      <trkpt lat="47.628161" lon="7.928726">
        <ele>684.161901</ele>
        <time>2021-11-21T16:24:27.613Z</time>
      </trkpt>
      <trkpt lat="47.627834" lon="7.928864">
        <ele>680.595905</ele>
        <time>2021-11-21T16:24:30.579Z</time>
      </trkpt>
      <trkpt lat="47.626987" lon="7.929783">
        <ele>670.176541</ele>
        <time>2021-11-21T16:24:39.657Z</time>
      </trkpt>
      <trkpt lat="47.626886" lon="7.929825">
        <ele>669.197063</ele>
        <time>2021-11-21T16:24:40.553Z</time>
      </trkpt>
      <trkpt lat="47.626513" lon="7.929764">
        <ele>665.692892</ele>
        <time>2021-11-21T16:24:43.849Z</time>
      </trkpt>
      <trkpt lat="47.626414" lon="7.929713">
        <ele>664.714295</ele>
        <time>2021-11-21T16:24:44.802Z</time>
      </trkpt>
      <trkpt lat="47.626033" lon="7.929516">
        <ele>660.946675</ele>
        <time>2021-11-21T16:24:48.312Z</time>
      </trkpt>
      <trkpt lat="47.625522" lon="7.929345">
        <ele>655.905336</ele>
        <time>2021-11-21T16:24:52.807Z</time>
      </trkpt>
      <trkpt lat="47.624693" lon="7.929271">
        <ele>647.593397</ele>
        <time>2021-11-21T16:24:59.908Z</time>
      </trkpt>
      <trkpt lat="47.624516" lon="7.929342">
        <ele>645.758317</ele>
        <time>2021-11-21T16:25:01.484Z</time>
      </trkpt>
      <trkpt lat="47.624148" lon="7.929878">
        <ele>640.597149</ele>
        <time>2021-11-21T16:25:05.945Z</time>
      </trkpt>
      <trkpt lat="47.623898" lon="7.929981">
        <ele>638.085816</ele>
        <time>2021-11-21T16:25:08.270Z</time>
      </trkpt>
      <trkpt lat="47.623661" lon="7.929775">
        <ele>635.446546</ele>
        <time>2021-11-21T16:25:10.635Z</time>
      </trkpt>
      <trkpt lat="47.623515" lon="7.929516">
        <ele>633.259873</ele>
        <time>2021-11-21T16:25:12.591Z</time>
      </trkpt>
      <trkpt lat="47.623243" lon="7.929290">
        <ele>630.264384</ele>
        <time>2021-11-21T16:25:15.306Z</time>
      </trkpt>
      <trkpt lat="47.623184" lon="7.929263">
        <ele>629.671116</ele>
        <time>2021-11-21T16:25:15.832Z</time>
      </trkpt>
      <trkpt lat="47.623083" lon="7.929217">
        <ele>628.655942</ele>
        <time>2021-11-21T16:25:16.783Z</time>
      </trkpt>
      <trkpt lat="47.622989" lon="7.929175">
        <ele>627.712656</ele>
        <time>2021-11-21T16:25:17.667Z</time>
      </trkpt>
      <trkpt lat="47.622990" lon="7.929067">
        <ele>627.013148</ele>
        <time>2021-11-21T16:25:18.270Z</time>
      </trkpt>
      <trkpt lat="47.622913" lon="7.928884">
        <ele>625.615998</ele>
        <time>2021-11-21T16:25:19.538Z</time>
      </trkpt>
      <trkpt lat="47.621861" lon="7.928723">
        <ele>614.423552</ele>
        <time>2021-11-21T16:25:28.585Z</time>
      </trkpt>
      <trkpt lat="47.620672" lon="7.928903">
        <ele>601.537618</ele>
        <time>2021-11-21T16:25:38.748Z</time>
      </trkpt>
      <trkpt lat="47.620569" lon="7.928919">
        <ele>600.525940</ele>
        <time>2021-11-21T16:25:39.609Z</time>
      </trkpt>
      <trkpt lat="47.619928" lon="7.929124">
        <ele>594.120360</ele>
        <time>2021-11-21T16:25:45.301Z</time>
      </trkpt>
      <trkpt lat="47.619604" lon="7.929315">
        <ele>590.714584</ele>
        <time>2021-11-21T16:25:48.311Z</time>
      </trkpt>
      <trkpt lat="47.619329" lon="7.929527">
        <ele>587.687149</ele>
        <time>2021-11-21T16:25:50.996Z</time>
      </trkpt>
      <trkpt lat="47.618921" lon="7.930073">
        <ele>583.104299</ele>
        <time>2021-11-21T16:25:55.789Z</time>
      </trkpt>
      <trkpt lat="47.618761" lon="7.930033">
        <ele>581.898605</ele>
        <time>2021-11-21T16:25:57.294Z</time>
      </trkpt>
      <trkpt lat="47.618733" lon="7.929945">
        <ele>581.411189</ele>
        <time>2021-11-21T16:25:57.882Z</time>
      </trkpt>
      <trkpt lat="47.618734" lon="7.929873">
        <ele>581.050477</ele>
        <time>2021-11-21T16:25:58.293Z</time>
      </trkpt>
      <trkpt lat="47.618861" lon="7.929607">
        <ele>579.417768</ele>
        <time>2021-11-21T16:26:00.367Z</time>
      </trkpt>
      <trkpt lat="47.618918" lon="7.929541">
        <ele>578.880474</ele>
        <time>2021-11-21T16:26:01.027Z</time>
      </trkpt>
      <trkpt lat="47.619053" lon="7.929381">
        <ele>577.596502</ele>
        <time>2021-11-21T16:26:02.595Z</time>
      </trkpt>
      <trkpt lat="47.620384" lon="7.928242">
        <ele>564.092046</ele>
        <time>2021-11-21T16:26:16.269Z</time>
      </trkpt>
      <trkpt lat="47.620796" lon="7.927816">
        <ele>559.074274</ele>
        <time>2021-11-21T16:26:20.542Z</time>
      </trkpt>
      <trkpt lat="47.620873" lon="7.927631">
        <ele>557.609931</ele>
        <time>2021-11-21T16:26:21.781Z</time>
      </trkpt>
      <trkpt lat="47.620930" lon="7.927423">
        <ele>556.097740</ele>
        <time>2021-11-21T16:26:23.044Z</time>
      </trkpt>
      <trkpt lat="47.620993" lon="7.927078">
        <ele>553.547022</ele>
        <time>2021-11-21T16:26:25.080Z</time>
      </trkpt>
      <trkpt lat="47.621010" lon="7.926916">
        <ele>552.165407</ele>
        <time>2021-11-21T16:26:26.009Z</time>
      </trkpt>
      <trkpt lat="47.621008" lon="7.926716">
        <ele>550.479829</ele>
        <time>2021-11-21T16:26:27.146Z</time>
      </trkpt>
      <trkpt lat="47.621092" lon="7.926230">
        <ele>546.251821</ele>
        <time>2021-11-21T16:26:29.988Z</time>
      </trkpt>
      <trkpt lat="47.621290" lon="7.925709">
        <ele>541.211601</ele>
        <time>2021-11-21T16:26:33.373Z</time>
      </trkpt>
      <trkpt lat="47.621339" lon="7.925596">
        <ele>540.079320</ele>
        <time>2021-11-21T16:26:34.125Z</time>
      </trkpt>
      <trkpt lat="47.621723" lon="7.924936">
        <ele>532.732105</ele>
        <time>2021-11-21T16:26:39.066Z</time>
      </trkpt>
      <trkpt lat="47.623053" lon="7.924259">
        <ele>517.743612</ele>
        <time>2021-11-21T16:26:51.169Z</time>
      </trkpt>
      <trkpt lat="47.623206" lon="7.923969">
        <ele>515.124022</ele>
        <time>2021-11-21T16:26:53.334Z</time>
      </trkpt>
      <trkpt lat="47.623246" lon="7.923768">
        <ele>513.633283</ele>
        <time>2021-11-21T16:26:54.530Z</time>
      </trkpt>
      <trkpt lat="47.623227" lon="7.922954">
        <ele>507.384414</ele>
        <time>2021-11-21T16:26:59.199Z</time>
      </trkpt>
      <trkpt lat="47.623251" lon="7.922713">
        <ele>505.492226</ele>
        <time>2021-11-21T16:27:00.577Z</time>
      </trkpt>
      <trkpt lat="47.623298" lon="7.922501">
        <ele>503.758816</ele>
        <time>2021-11-21T16:27:01.860Z</time>
      </trkpt>
      <trkpt lat="47.623564" lon="7.921962">
        <ele>498.570120</ele>
        <time>2021-11-21T16:27:05.668Z</time>
      </trkpt>
      <trkpt lat="47.623626" lon="7.921633">
        <ele>495.916763</ele>
        <time>2021-11-21T16:27:07.627Z</time>
      </trkpt>
      <trkpt lat="47.623611" lon="7.921528">
        <ele>495.083107</ele>
        <time>2021-11-21T16:27:08.230Z</time>
      </trkpt>
      <trkpt lat="47.623588" lon="7.921368">
        <ele>493.812432</ele>
        <time>2021-11-21T16:27:09.164Z</time>
      </trkpt>
      <trkpt lat="47.623561" lon="7.920975">
        <ele>490.878784</ele>
        <time>2021-11-21T16:27:11.419Z</time>
      </trkpt>
      <trkpt lat="47.623430" lon="7.919875">
        <ele>483.086846</ele>
        <time>2021-11-21T16:27:17.886Z</time>
      </trkpt>
      <trkpt lat="47.623255" lon="7.919315">
        <ele>478.781093</ele>
        <time>2021-11-21T16:27:21.460Z</time>
      </trkpt>
      <trkpt lat="47.623010" lon="7.918947">
        <ele>475.172921</ele>
        <time>2021-11-21T16:27:24.442Z</time>
      </trkpt>
      <trkpt lat="47.622446" lon="7.918652">
        <ele>469.229330</ele>
        <time>2021-11-21T16:27:29.664Z</time>
      </trkpt>
      <trkpt lat="47.622366" lon="7.918470">
        <ele>467.796986</ele>
        <time>2021-11-21T16:27:30.917Z</time>
      </trkpt>
      <trkpt lat="47.622381" lon="7.918164">
        <ele>465.774482</ele>
        <time>2021-11-21T16:27:32.728Z</time>
      </trkpt>
      <trkpt lat="47.622424" lon="7.918069">
        <ele>465.020128</ele>
        <time>2021-11-21T16:27:33.384Z</time>
      </trkpt>
      <trkpt lat="47.622587" lon="7.917873">
        <ele>462.968097</ele>
        <time>2021-11-21T16:27:35.198Z</time>
      </trkpt>
      <trkpt lat="47.622656" lon="7.917625">
        <ele>461.199460</ele>
        <time>2021-11-21T16:27:36.761Z</time>
      </trkpt>
      <trkpt lat="47.622677" lon="7.917170">
        <ele>458.193057</ele>
        <time>2021-11-21T16:27:39.417Z</time>
      </trkpt>
      <trkpt lat="47.622647" lon="7.916647">
        <ele>454.717873</ele>
        <time>2021-11-21T16:27:42.453Z</time>
      </trkpt>
      <trkpt lat="47.622576" lon="7.916379">
        <ele>452.794201</ele>
        <time>2021-11-21T16:27:44.108Z</time>
      </trkpt>
      <trkpt lat="47.622393" lon="7.916077">
        <ele>450.081269</ele>
        <time>2021-11-21T16:27:46.443Z</time>
      </trkpt>
      <trkpt lat="47.621809" lon="7.915582">
        <ele>443.415034</ele>
        <time>2021-11-21T16:27:52.257Z</time>
      </trkpt>
      <trkpt lat="47.621530" lon="7.915222">
        <ele>439.750253</ele>
        <time>2021-11-21T16:27:55.463Z</time>
      </trkpt>
      <trkpt lat="47.621037" lon="7.914355">
        <ele>432.055874</ele>
        <time>2021-11-21T16:28:02.092Z</time>
      </trkpt>
      <trkpt lat="47.620869" lon="7.913635">
        <ele>426.864554</ele>
        <time>2021-11-21T16:28:06.456Z</time>
      </trkpt>
      <trkpt lat="47.620841" lon="7.913331">
        <ele>424.774008</ele>
        <time>2021-11-21T16:28:08.234Z</time>
      </trkpt>
      <trkpt lat="47.620822" lon="7.912670">
        <ele>420.266206</ele>
        <time>2021-11-21T16:28:12.063Z</time>
      </trkpt>
      <trkpt lat="47.620858" lon="7.912289">
        <ele>418.036263</ele>
        <time>2021-11-21T16:28:14.323Z</time>
      </trkpt>
      <trkpt lat="47.620910" lon="7.911951">
        <ele>416.093299</ele>
        <time>2021-11-21T16:28:16.338Z</time>
      </trkpt>
      <trkpt lat="47.620953" lon="7.911653">
        <ele>414.385382</ele>
        <time>2021-11-21T16:28:18.127Z</time>
      </trkpt>
      <trkpt lat="47.620946" lon="7.911321">
        <ele>412.523851</ele>
        <time>2021-11-21T16:28:20.098Z</time>
      </trkpt>
      <trkpt lat="47.620846" lon="7.911023">
        <ele>410.658248</ele>
        <time>2021-11-21T16:28:22.070Z</time>
      </trkpt>
      <trkpt lat="47.620625" lon="7.910808">
        <ele>408.460905</ele>
        <time>2021-11-21T16:28:24.399Z</time>
      </trkpt>
      <trkpt lat="47.620181" lon="7.910694">
        <ele>404.779746</ele>
        <time>2021-11-21T16:28:28.406Z</time>
      </trkpt>
      <trkpt lat="47.620162" lon="7.910587">
        <ele>404.383734</ele>
        <time>2021-11-21T16:28:29.074Z</time>
      </trkpt>
      <trkpt lat="47.620245" lon="7.910440">
        <ele>403.697436</ele>
        <time>2021-11-21T16:28:30.246Z</time>
      </trkpt>
      <trkpt lat="47.620712" lon="7.910483">
        <ele>401.213049</ele>
        <time>2021-11-21T16:28:34.700Z</time>
      </trkpt>
      <trkpt lat="47.621308" lon="7.910162">
        <ele>397.846411</ele>
        <time>2021-11-21T16:28:40.754Z</time>
      </trkpt>
      <trkpt lat="47.621461" lon="7.910146">
        <ele>397.032016</ele>
        <time>2021-11-21T16:28:42.166Z</time>
      </trkpt>
      <trkpt lat="47.622368" lon="7.910396">
        <ele>392.418903</ele>
        <time>2021-11-21T16:28:50.864Z</time>
      </trkpt>
      <trkpt lat="47.622666" lon="7.910254">
        <ele>390.904590</ele>
        <time>2021-11-21T16:28:53.879Z</time>
      </trkpt>
      <trkpt lat="47.622755" lon="7.910176">
        <ele>390.404478</ele>
        <time>2021-11-21T16:28:54.830Z</time>
      </trkpt>
      <trkpt lat="47.622850" lon="7.910055">
        <ele>389.798716</ele>
        <time>2021-11-21T16:28:56.043Z</time>
      </trkpt>
      <trkpt lat="47.623414" lon="7.909173">
        <ele>385.652289</ele>
        <time>2021-11-21T16:29:03.887Z</time>
      </trkpt>
      <trkpt lat="47.623851" lon="7.909030">
        <ele>383.000548</ele>
        <time>2021-11-21T16:29:08.060Z</time>
      </trkpt>
      <trkpt lat="47.624367" lon="7.909092">
        <ele>379.932904</ele>
        <time>2021-11-21T16:29:12.978Z</time>
      </trkpt>
      <trkpt lat="47.624823" lon="7.909229">
        <ele>377.175969</ele>
        <time>2021-11-21T16:29:17.190Z</time>
      </trkpt>
      <trkpt lat="47.624962" lon="7.909272">
        <ele>376.334592</ele>
        <time>2021-11-21T16:29:18.420Z</time>
      </trkpt>
      <trkpt lat="47.625366" lon="7.909623">
        <ele>372.177249</ele>
        <time>2021-11-21T16:29:22.540Z</time>
      </trkpt>
      <trkpt lat="47.625586" lon="7.909712">
        <ele>370.055120</ele>
        <time>2021-11-21T16:29:24.527Z</time>
      </trkpt>
      <trkpt lat="47.625630" lon="7.909700">
        <ele>369.638782</ele>
        <time>2021-11-21T16:29:24.899Z</time>
      </trkpt>
      <trkpt lat="47.625660" lon="7.909693">
        <ele>369.356161</ele>
        <time>2021-11-21T16:29:25.155Z</time>
      </trkpt>
      <trkpt lat="47.625738" lon="7.909657">
        <ele>368.595959</ele>
        <time>2021-11-21T16:29:25.902Z</time>
      </trkpt>
      <trkpt lat="47.625820" lon="7.909530">
        <ele>367.492841</ele>
        <time>2021-11-21T16:29:26.938Z</time>
      </trkpt>
      <trkpt lat="47.625875" lon="7.909372">
        <ele>366.377459</ele>
        <time>2021-11-21T16:29:27.943Z</time>
      </trkpt>
      <trkpt lat="47.626074" lon="7.908682">
        <ele>361.670068</ele>
        <time>2021-11-21T16:29:32.313Z</time>
      </trkpt>
      <trkpt lat="47.626373" lon="7.908242">
        <ele>358.343941</ele>
        <time>2021-11-21T16:29:35.944Z</time>
      </trkpt>
      <trkpt lat="47.626436" lon="7.907974">
        <ele>357.269743</ele>
        <time>2021-11-21T16:29:37.572Z</time>
      </trkpt>
      <trkpt lat="47.626446" lon="7.907798">
        <ele>356.601292</ele>
        <time>2021-11-21T16:29:38.653Z</time>
      </trkpt>
      <trkpt lat="47.626442" lon="7.907543">
        <ele>355.635959</ele>
        <time>2021-11-21T16:29:40.142Z</time>
      </trkpt>
      <trkpt lat="47.626436" lon="7.907187">
        <ele>354.288223</ele>
        <time>2021-11-21T16:29:42.373Z</time>
      </trkpt>
      <trkpt lat="47.626436" lon="7.907061">
        <ele>353.811365</ele>
        <time>2021-11-21T16:29:43.196Z</time>
      </trkpt>
      <trkpt lat="47.626436" lon="7.906623">
        <ele>352.153713</ele>
        <time>2021-11-21T16:29:46.062Z</time>
      </trkpt>
      <trkpt lat="47.626439" lon="7.906299">
        <ele>350.927390</ele>
        <time>2021-11-21T16:29:48.216Z</time>
      </trkpt>
      <trkpt lat="47.626443" lon="7.905945">
        <ele>349.587456</ele>
        <time>2021-11-21T16:29:50.768Z</time>
      </trkpt>
      <trkpt lat="47.626460" lon="7.905124">
        <ele>349.360350</ele>
        <time>2021-11-21T16:29:57.674Z</time>
      </trkpt>
      <trkpt lat="47.626440" lon="7.905007">
        <ele>349.397089</ele>
        <time>2021-11-21T16:29:59.470Z</time>
      </trkpt>
      <trkpt lat="47.626399" lon="7.904961">
        <ele>349.420302</ele>
        <time>2021-11-21T16:30:00.270Z</time>
      </trkpt>
      <trkpt lat="47.626221" lon="7.904920">
        <ele>349.501652</ele>
        <time>2021-11-21T16:30:03.302Z</time>
      </trkpt>
      <trkpt lat="47.626086" lon="7.904879">
        <ele>349.563883</ele>
        <time>2021-11-21T16:30:06.490Z</time>
      </trkpt>
      <trkpt lat="47.625742" lon="7.904774">
        <ele>349.722490</ele>
        <time>2021-11-21T16:30:14.114Z</time>
      </trkpt>
      <trkpt lat="47.625516" lon="7.904701">
        <ele>349.826945</ele>
        <time>2021-11-21T16:30:18.747Z</time>
      </trkpt>
      <trkpt lat="47.625088" lon="7.904563">
        <ele>349.976969</ele>
        <time>2021-11-21T16:30:28.069Z</time>
      </trkpt>
      <trkpt lat="47.624956" lon="7.904522">
        <ele>349.994182</ele>
        <time>2021-11-21T16:30:30.825Z</time>
      </trkpt>
      <trkpt lat="47.624761" lon="7.904481">
        <ele>350.019319</ele>
        <time>2021-11-21T16:30:33.996Z</time>
      </trkpt>
      <trkpt lat="47.624565" lon="7.904455">
        <ele>350.044436</ele>
        <time>2021-11-21T16:30:37.055Z</time>
      </trkpt>
      <trkpt lat="47.624472" lon="7.904367">
        <ele>350.058514</ele>
        <time>2021-11-21T16:30:38.742Z</time>
      </trkpt>
      <trkpt lat="47.624451" lon="7.904332">
        <ele>350.062545</ele>
        <time>2021-11-21T16:30:39.263Z</time>
      </trkpt>
      <trkpt lat="47.624399" lon="7.904386">
        <ele>350.070646</ele>
        <time>2021-11-21T16:30:40.180Z</time>
      </trkpt>
      <trkpt lat="47.624263" lon="7.904484">
        <ele>350.089944</ele>
        <time>2021-11-21T16:30:42.402Z</time>
      </trkpt>
      <trkpt lat="47.624120" lon="7.904530">
        <ele>350.108619</ele>
        <time>2021-11-21T16:30:44.574Z</time>
      </trkpt>
      <trkpt lat="47.623650" lon="7.904642">
        <ele>350.169377</ele>
        <time>2021-11-21T16:30:50.852Z</time>
      </trkpt>
      <trkpt lat="47.622648" lon="7.904863">
        <ele>349.034464</ele>
        <time>2021-11-21T16:31:03.262Z</time>
      </trkpt>
      <trkpt lat="47.622424" lon="7.904919">
        <ele>348.733115</ele>
        <time>2021-11-21T16:31:05.870Z</time>
      </trkpt>
      <trkpt lat="47.622235" lon="7.904957">
        <ele>348.480094</ele>
        <time>2021-11-21T16:31:08.032Z</time>
      </trkpt>
      <trkpt lat="47.621248" lon="7.905159">
        <ele>346.702424</ele>
        <time>2021-11-21T16:31:19.142Z</time>
      </trkpt>
      <trkpt lat="47.621107" lon="7.905191">
        <ele>346.379088</ele>
        <time>2021-11-21T16:31:20.710Z</time>
      </trkpt>
      <trkpt lat="47.620699" lon="7.905223">
        <ele>345.452944</ele>
        <time>2021-11-21T16:31:25.137Z</time>
      </trkpt>
      <trkpt lat="47.620426" lon="7.905244">
        <ele>344.833278</ele>
        <time>2021-11-21T16:31:28.102Z</time>
      </trkpt>
      <trkpt lat="47.619447" lon="7.905300">
        <ele>342.099981</ele>
        <time>2021-11-21T16:31:38.230Z</time>
      </trkpt>
      <trkpt lat="47.619299" lon="7.905308">
        <ele>341.609568</ele>
        <time>2021-11-21T16:31:39.632Z</time>
      </trkpt>
      <trkpt lat="47.619155" lon="7.905319">
        <ele>341.132094</ele>
        <time>2021-11-21T16:31:41.212Z</time>
      </trkpt>
      <trkpt lat="47.618976" lon="7.905535">
        <ele>340.368033</ele>
        <time>2021-11-21T16:31:43.452Z</time>
      </trkpt>
      <trkpt lat="47.618920" lon="7.906208">
        <ele>338.854442</ele>
        <time>2021-11-21T16:31:48.162Z</time>
      </trkpt>
      <trkpt lat="47.618888" lon="7.906392">
        <ele>338.430290</ele>
        <time>2021-11-21T16:31:49.413Z</time>
      </trkpt>
      <trkpt lat="47.618867" lon="7.906514">
        <ele>338.149237</ele>
        <time>2021-11-21T16:31:50.193Z</time>
      </trkpt>
      <trkpt lat="47.618719" lon="7.906838">
        <ele>337.334434</ele>
        <time>2021-11-21T16:31:52.921Z</time>
      </trkpt>
      <trkpt lat="47.618579" lon="7.906988">
        <ele>336.830818</ele>
        <time>2021-11-21T16:31:54.578Z</time>
      </trkpt>
      <trkpt lat="47.618470" lon="7.907083">
        <ele>336.462151</ele>
        <time>2021-11-21T16:31:55.893Z</time>
      </trkpt>
      <trkpt lat="47.618333" lon="7.907137">
        <ele>336.048765</ele>
        <time>2021-11-21T16:31:57.255Z</time>
      </trkpt>
      <trkpt lat="47.618157" lon="7.907206">
        <ele>335.517887</ele>
        <time>2021-11-21T16:31:59.227Z</time>
      </trkpt>
      <trkpt lat="47.617957" lon="7.907285">
        <ele>334.914318</ele>
        <time>2021-11-21T16:32:01.239Z</time>
      </trkpt>
      <trkpt lat="47.617238" lon="7.908130">
        <ele>332.411089</ele>
        <time>2021-11-21T16:32:11.089Z</time>
      </trkpt>
      <trkpt lat="47.617086" lon="7.908230">
        <ele>332.219640</ele>
        <time>2021-11-21T16:32:12.939Z</time>
      </trkpt>
      <trkpt lat="47.616832" lon="7.908284">
        <ele>331.924199</ele>
        <time>2021-11-21T16:32:15.853Z</time>
      </trkpt>
      <trkpt lat="47.616604" lon="7.908203">
        <ele>331.654259</ele>
        <time>2021-11-21T16:32:18.471Z</time>
      </trkpt>
      <trkpt lat="47.616124" lon="7.907729">
        <ele>330.990341</ele>
        <time>2021-11-21T16:32:25.291Z</time>
      </trkpt>
      <trkpt lat="47.616009" lon="7.907686">
        <ele>330.853790</ele>
        <time>2021-11-21T16:32:26.855Z</time>
      </trkpt>
      <trkpt lat="47.615946" lon="7.907692">
        <ele>330.781103</ele>
        <time>2021-11-21T16:32:27.622Z</time>
      </trkpt>
      <trkpt lat="47.615821" lon="7.907747">
        <ele>330.630981</ele>
        <time>2021-11-21T16:32:29.700Z</time>
      </trkpt>
      <trkpt lat="47.615669" lon="7.907870">
        <ele>330.463416</ele>
        <time>2021-11-21T16:32:32.380Z</time>
      </trkpt>
      <trkpt lat="47.615460" lon="7.908111">
        <ele>330.629294</ele>
        <time>2021-11-21T16:32:36.751Z</time>
      </trkpt>
      <trkpt lat="47.615374" lon="7.908222">
        <ele>330.700726</ele>
        <time>2021-11-21T16:32:38.669Z</time>
      </trkpt>
      <trkpt lat="47.615246" lon="7.908385">
        <ele>330.806434</ele>
        <time>2021-11-21T16:32:41.693Z</time>
      </trkpt>
      <trkpt lat="47.615085" lon="7.908567">
        <ele>330.933275</ele>
        <time>2021-11-21T16:32:45.104Z</time>
      </trkpt>
      <trkpt lat="47.614876" lon="7.908760">
        <ele>331.087543</ele>
        <time>2021-11-21T16:32:49.422Z</time>
      </trkpt>
      <trkpt lat="47.614784" lon="7.908839">
        <ele>331.154154</ele>
        <time>2021-11-21T16:32:51.227Z</time>
      </trkpt>
      <trkpt lat="47.614412" lon="7.909095">
        <ele>331.411122</ele>
        <time>2021-11-21T16:32:58.497Z</time>
      </trkpt>
      <trkpt lat="47.614063" lon="7.909285">
        <ele>331.708503</ele>
        <time>2021-11-21T16:33:05.576Z</time>
      </trkpt>
      <trkpt lat="47.613934" lon="7.909339">
        <ele>331.876020</ele>
        <time>2021-11-21T16:33:08.154Z</time>
      </trkpt>
      <trkpt lat="47.613360" lon="7.909602">
        <ele>332.626831</ele>
        <time>2021-11-21T16:33:20.958Z</time>
      </trkpt>
      <trkpt lat="47.613280" lon="7.909624">
        <ele>332.728517</ele>
        <time>2021-11-21T16:33:22.646Z</time>
      </trkpt>
      <trkpt lat="47.612897" lon="7.909812">
        <ele>333.232707</ele>
        <time>2021-11-21T16:33:31.203Z</time>
      </trkpt>
      <trkpt lat="47.612216" lon="7.910134">
        <ele>333.910540</ele>
        <time>2021-11-21T16:33:44.213Z</time>
      </trkpt>
      <trkpt lat="47.612131" lon="7.910214">
        <ele>333.945633</ele>
        <time>2021-11-21T16:33:46.105Z</time>
      </trkpt>
      <trkpt lat="47.612082" lon="7.910269">
        <ele>333.967055</ele>
        <time>2021-11-21T16:33:47.185Z</time>
      </trkpt>
      <trkpt lat="47.612020" lon="7.910364">
        <ele>333.998130</ele>
        <time>2021-11-21T16:33:48.744Z</time>
      </trkpt>
      <trkpt lat="47.611986" lon="7.910466">
        <ele>334.024872</ele>
        <time>2021-11-21T16:33:50.014Z</time>
      </trkpt>
      <trkpt lat="47.611981" lon="7.910534">
        <ele>334.040948</ele>
        <time>2021-11-21T16:33:50.640Z</time>
      </trkpt>
      <trkpt lat="47.611988" lon="7.910610">
        <ele>334.058975</ele>
        <time>2021-11-21T16:33:51.599Z</time>
      </trkpt>
      <trkpt lat="47.611994" lon="7.910676">
        <ele>334.074626</ele>
        <time>2021-11-21T16:33:52.526Z</time>
      </trkpt>
      <trkpt lat="47.612005" lon="7.910790">
        <ele>334.101692</ele>
        <time>2021-11-21T16:33:53.790Z</time>
      </trkpt>
      <trkpt lat="47.612029" lon="7.910940">
        <ele>334.137923</ele>
        <time>2021-11-21T16:33:55.678Z</time>
      </trkpt>
      <trkpt lat="47.611260" lon="7.911383">
        <ele>334.425515</ele>
        <time>2021-11-21T16:34:08.783Z</time>
      </trkpt>
      <trkpt lat="47.610416" lon="7.911983">
        <ele>333.588048</ele>
        <time>2021-11-21T16:34:20.685Z</time>
      </trkpt>
      <trkpt lat="47.609914" lon="7.912278">
        <ele>333.040116</ele>
        <time>2021-11-21T16:34:26.898Z</time>
      </trkpt>
      <trkpt lat="47.608679" lon="7.912703">
        <ele>331.406032</ele>
        <time>2021-11-21T16:34:41.619Z</time>
      </trkpt>
      <trkpt lat="47.608143" lon="7.912964">
        <ele>330.606274</ele>
        <time>2021-11-21T16:34:48.192Z</time>
      </trkpt>
      <trkpt lat="47.607663" lon="7.913198">
        <ele>329.922436</ele>
        <time>2021-11-21T16:34:53.967Z</time>
      </trkpt>
      <trkpt lat="47.607292" lon="7.913435">
        <ele>329.447982</ele>
        <time>2021-11-21T16:34:58.666Z</time>
      </trkpt>
      <trkpt lat="47.606938" lon="7.913697">
        <ele>328.983303</ele>
        <time>2021-11-21T16:35:03.439Z</time>
      </trkpt>
      <trkpt lat="47.606706" lon="7.913869">
        <ele>328.678663</ele>
        <time>2021-11-21T16:35:06.624Z</time>
      </trkpt>
      <trkpt lat="47.606558" lon="7.913988">
        <ele>328.480930</ele>
        <time>2021-11-21T16:35:08.712Z</time>
      </trkpt>
      <trkpt lat="47.606450" lon="7.914067">
        <ele>328.339491</ele>
        <time>2021-11-21T16:35:10.210Z</time>
      </trkpt>
      <trkpt lat="47.606200" lon="7.914255">
        <ele>328.010270</ele>
        <time>2021-11-21T16:35:13.623Z</time>
      </trkpt>
      <trkpt lat="47.605929" lon="7.914457">
        <ele>327.460805</ele>
        <time>2021-11-21T16:35:17.306Z</time>
      </trkpt>
      <trkpt lat="47.605648" lon="7.914613">
        <ele>326.890536</ele>
        <time>2021-11-21T16:35:20.870Z</time>
      </trkpt>
      <trkpt lat="47.605408" lon="7.914750">
        <ele>326.401763</ele>
        <time>2021-11-21T16:35:23.821Z</time>
      </trkpt>
      <trkpt lat="47.605105" lon="7.914869">
        <ele>325.806019</ele>
        <time>2021-11-21T16:35:27.391Z</time>
      </trkpt>
      <trkpt lat="47.604722" lon="7.914915">
        <ele>325.075688</ele>
        <time>2021-11-21T16:35:31.563Z</time>
      </trkpt>
      <trkpt lat="47.604393" lon="7.914885">
        <ele>324.323251</ele>
        <time>2021-11-21T16:35:34.981Z</time>
      </trkpt>
      <trkpt lat="47.604062" lon="7.914772">
        <ele>322.854916</ele>
        <time>2021-11-21T16:35:38.371Z</time>
      </trkpt>
      <trkpt lat="47.603884" lon="7.914671">
        <ele>322.031028</ele>
        <time>2021-11-21T16:35:40.159Z</time>
      </trkpt>
      <trkpt lat="47.603615" lon="7.914449">
        <ele>320.700225</ele>
        <time>2021-11-21T16:35:43.106Z</time>
      </trkpt>
      <trkpt lat="47.603373" lon="7.914188">
        <ele>319.406688</ele>
        <time>2021-11-21T16:35:45.950Z</time>
      </trkpt>
      <trkpt lat="47.603038" lon="7.913754">
        <ele>317.483765</ele>
        <time>2021-11-21T16:35:50.141Z</time>
      </trkpt>
      <trkpt lat="47.602861" lon="7.913538">
        <ele>316.525323</ele>
        <time>2021-11-21T16:35:52.346Z</time>
      </trkpt>
      <trkpt lat="47.602742" lon="7.913448">
        <ele>316.014907</ele>
        <time>2021-11-21T16:35:53.582Z</time>
      </trkpt>
      <trkpt lat="47.602118" lon="7.913280">
        <ele>313.591597</ele>
        <time>2021-11-21T16:35:59.637Z</time>
      </trkpt>
      <trkpt lat="47.600086" lon="7.913316">
        <ele>307.100565</ele>
        <time>2021-11-21T16:36:20.450Z</time>
      </trkpt>
      <trkpt lat="47.599361" lon="7.913211">
        <ele>305.187681</ele>
        <time>2021-11-21T16:36:28.299Z</time>
      </trkpt>
      <trkpt lat="47.598263" lon="7.912768">
        <ele>303.204196</ele>
        <time>2021-11-21T16:36:40.935Z</time>
      </trkpt>
      <trkpt lat="47.597324" lon="7.912182">
        <ele>301.638619</ele>
        <time>2021-11-21T16:36:52.743Z</time>
      </trkpt>
      <trkpt lat="47.596928" lon="7.912047">
        <ele>301.169266</ele>
        <time>2021-11-21T16:36:57.569Z</time>
      </trkpt>
      <trkpt lat="47.596657" lon="7.912027">
        <ele>300.855845</ele>
        <time>2021-11-21T16:37:00.839Z</time>
      </trkpt>
      <trkpt lat="47.596383" lon="7.912050">
        <ele>300.538840</ele>
        <time>2021-11-21T16:37:04.168Z</time>
      </trkpt>
      <trkpt lat="47.595919" lon="7.912182">
        <ele>299.993097</ele>
        <time>2021-11-21T16:37:09.987Z</time>
      </trkpt>
      <trkpt lat="47.595049" lon="7.912419">
        <ele>299.637886</ele>
        <time>2021-11-21T16:37:21.274Z</time>
      </trkpt>
      <trkpt lat="47.594246" lon="7.912426">
        <ele>299.329625</ele>
        <time>2021-11-21T16:37:32.397Z</time>
      </trkpt>
      <trkpt lat="47.593192" lon="7.912179">
        <ele>299.847639</ele>
        <time>2021-11-21T16:37:50.284Z</time>
      </trkpt>
      <trkpt lat="47.592198" lon="7.912030">
        <ele>300.311700</ele>
        <time>2021-11-21T16:38:09.201Z</time>
      </trkpt>
      <trkpt lat="47.591524" lon="7.911777">
        <ele>300.004502</ele>
        <time>2021-11-21T16:38:20.499Z</time>
      </trkpt>
      <trkpt lat="47.591361" lon="7.911643">
        <ele>299.922153</ele>
        <time>2021-11-21T16:38:23.861Z</time>
      </trkpt>
      <trkpt lat="47.591227" lon="7.911486">
        <ele>299.846693</ele>
        <time>2021-11-21T16:38:25.835Z</time>
      </trkpt>
      <trkpt lat="47.590486" lon="7.910371">
        <ele>298.575455</ele>
        <time>2021-11-21T16:38:37.575Z</time>
      </trkpt>
      <trkpt lat="47.590199" lon="7.910097">
        <ele>297.808211</ele>
        <time>2021-11-21T16:38:41.166Z</time>
      </trkpt>
      <trkpt lat="47.589984" lon="7.909953">
        <ele>297.277941</ele>
        <time>2021-11-21T16:38:43.584Z</time>
      </trkpt>
      <trkpt lat="47.589846" lon="7.909880">
        <ele>296.948609</ele>
        <time>2021-11-21T16:38:45.137Z</time>
      </trkpt>
      <trkpt lat="47.589453" lon="7.909790">
        <ele>296.054790</ele>
        <time>2021-11-21T16:38:49.342Z</time>
      </trkpt>
      <trkpt lat="47.589186" lon="7.909798">
        <ele>295.487362</ele>
        <time>2021-11-21T16:38:52.251Z</time>
      </trkpt>
      <trkpt lat="47.589186" lon="7.909798">
        <ele>295.487362</ele>
        <time>2021-11-21T16:38:52.254Z</time>
      </trkpt>
      <trkpt lat="47.588985" lon="7.909827">
        <ele>295.220197</ele>
        <time>2021-11-21T16:38:54.452Z</time>
      </trkpt>
      <trkpt lat="47.587926" lon="7.910125">
        <ele>293.794203</ele>
        <time>2021-11-21T16:39:07.103Z</time>
      </trkpt>
      <trkpt lat="47.587479" lon="7.910228">
        <ele>293.195753</ele>
        <time>2021-11-21T16:39:13.108Z</time>
      </trkpt>
      <trkpt lat="47.587167" lon="7.910236">
        <ele>292.846510</ele>
        <time>2021-11-21T16:39:17.222Z</time>
      </trkpt>
      <trkpt lat="47.586813" lon="7.910134">
        <ele>292.450981</ele>
        <time>2021-11-21T16:39:21.656Z</time>
      </trkpt>
      <trkpt lat="47.586540" lon="7.909941">
        <ele>292.119259</ele>
        <time>2021-11-21T16:39:25.265Z</time>
      </trkpt>
      <trkpt lat="47.586265" lon="7.909589">
        <ele>291.720788</ele>
        <time>2021-11-21T16:39:29.440Z</time>
      </trkpt>
      <trkpt lat="47.586062" lon="7.909215">
        <ele>291.365654</ele>
        <time>2021-11-21T16:39:33.393Z</time>
      </trkpt>
      <trkpt lat="47.585956" lon="7.908983">
        <ele>291.146826</ele>
        <time>2021-11-21T16:39:35.532Z</time>
      </trkpt>
      <trkpt lat="47.585899" lon="7.908777">
        <ele>290.902127</ele>
        <time>2021-11-21T16:39:37.476Z</time>
      </trkpt>
      <trkpt lat="47.585750" lon="7.908439">
        <ele>290.458371</ele>
        <time>2021-11-21T16:39:40.536Z</time>
      </trkpt>
      <trkpt lat="47.585760" lon="7.908367">
        <ele>290.377584</ele>
        <time>2021-11-21T16:39:41.195Z</time>
      </trkpt>
      <trkpt lat="47.585751" lon="7.908295">
        <ele>290.297110</ele>
        <time>2021-11-21T16:39:42.026Z</time>
      </trkpt>
      <trkpt lat="47.585729" lon="7.908244">
        <ele>290.230580</ele>
        <time>2021-11-21T16:39:42.473Z</time>
      </trkpt>
      <trkpt lat="47.585696" lon="7.908207">
        <ele>290.163167</ele>
        <time>2021-11-21T16:39:42.959Z</time>
      </trkpt>
      <trkpt lat="47.585658" lon="7.908188">
        <ele>290.097825</ele>
        <time>2021-11-21T16:39:43.405Z</time>
      </trkpt>
      <trkpt lat="47.585629" lon="7.908186">
        <ele>290.050522</ele>
        <time>2021-11-21T16:39:43.707Z</time>
      </trkpt>
      <trkpt lat="47.585601" lon="7.908195">
        <ele>290.003840</ele>
        <time>2021-11-21T16:39:44.043Z</time>
      </trkpt>
      <trkpt lat="47.585575" lon="7.908213">
        <ele>289.957086</ele>
        <time>2021-11-21T16:39:44.347Z</time>
      </trkpt>
      <trkpt lat="47.585551" lon="7.908241">
        <ele>289.907326</ele>
        <time>2021-11-21T16:39:44.702Z</time>
      </trkpt>
      <trkpt lat="47.585532" lon="7.908279">
        <ele>289.855341</ele>
        <time>2021-11-21T16:39:45.086Z</time>
      </trkpt>
      <trkpt lat="47.585521" lon="7.908321">
        <ele>289.805826</ele>
        <time>2021-11-21T16:39:45.472Z</time>
      </trkpt>
      <trkpt lat="47.585517" lon="7.908375">
        <ele>289.746124</ele>
        <time>2021-11-21T16:39:46.023Z</time>
      </trkpt>
      <trkpt lat="47.585525" lon="7.908428">
        <ele>289.686437</ele>
        <time>2021-11-21T16:39:46.484Z</time>
      </trkpt>
      <trkpt lat="47.585502" lon="7.908551">
        <ele>289.546163</ele>
        <time>2021-11-21T16:39:47.826Z</time>
      </trkpt>
      <trkpt lat="47.585467" lon="7.908664">
        <ele>289.409509</ele>
        <time>2021-11-21T16:39:49.112Z</time>
      </trkpt>
      <trkpt lat="47.585435" lon="7.908792">
        <ele>289.259487</ele>
        <time>2021-11-21T16:39:50.572Z</time>
      </trkpt>
      <trkpt lat="47.585427" lon="7.908874">
        <ele>289.168432</ele>
        <time>2021-11-21T16:39:51.560Z</time>
      </trkpt>
      <trkpt lat="47.585419" lon="7.908887">
        <ele>289.149092</ele>
        <time>2021-11-21T16:39:51.845Z</time>
      </trkpt>
      <trkpt lat="47.585337" lon="7.909031">
        <ele>288.941980</ele>
        <time>2021-11-21T16:39:53.817Z</time>
      </trkpt>
      <trkpt lat="47.585222" lon="7.908901">
        <ele>288.706350</ele>
        <time>2021-11-21T16:39:55.329Z</time>
      </trkpt>
      <trkpt lat="47.585149" lon="7.908804">
        <ele>288.546626</ele>
        <time>2021-11-21T16:39:56.521Z</time>
      </trkpt>
      <trkpt lat="47.585084" lon="7.908692">
        <ele>288.384246</ele>
        <time>2021-11-21T16:39:57.588Z</time>
      </trkpt>
      <trkpt lat="47.584719" lon="7.908091">
        <ele>287.400560</ele>
        <time>2021-11-21T16:40:03.503Z</time>
      </trkpt>
      <trkpt lat="47.583887" lon="7.907113">
        <ele>285.453373</ele>
        <time>2021-11-21T16:40:15.352Z</time>
      </trkpt>
      <trkpt lat="47.583711" lon="7.906911">
        <ele>285.045193</ele>
        <time>2021-11-21T16:40:17.813Z</time>
      </trkpt>
      <trkpt lat="47.583451" lon="7.906619">
        <ele>284.893340</ele>
        <time>2021-11-21T16:40:21.583Z</time>
      </trkpt>
      <trkpt lat="47.583245" lon="7.906443">
        <ele>284.841960</ele>
        <time>2021-11-21T16:40:24.470Z</time>
      </trkpt>
      <trkpt lat="47.583077" lon="7.906399">
        <ele>284.805093</ele>
        <time>2021-11-21T16:40:26.479Z</time>
      </trkpt>
      <trkpt lat="47.582951" lon="7.906415">
        <ele>284.777765</ele>
        <time>2021-11-21T16:40:28.342Z</time>
      </trkpt>
      <trkpt lat="47.582657" lon="7.906618">
        <ele>284.707678</ele>
        <time>2021-11-21T16:40:33.035Z</time>
      </trkpt>
      <trkpt lat="47.582248" lon="7.907090">
        <ele>284.595671</ele>
        <time>2021-11-21T16:40:42.155Z</time>
      </trkpt>
      <trkpt lat="47.581793" lon="7.907472">
        <ele>284.961755</ele>
        <time>2021-11-21T16:40:52.474Z</time>
      </trkpt>
      <trkpt lat="47.581568" lon="7.907612">
        <ele>285.218626</ele>
        <time>2021-11-21T16:40:57.671Z</time>
      </trkpt>
      <trkpt lat="47.580552" lon="7.908081">
        <ele>286.338805</ele>
        <time>2021-11-21T16:41:18.075Z</time>
      </trkpt>
      <trkpt lat="47.580470" lon="7.908164">
        <ele>286.443327</ele>
        <time>2021-11-21T16:41:19.670Z</time>
      </trkpt>
      <trkpt lat="47.580422" lon="7.908273">
        <ele>286.455306</ele>
        <time>2021-11-21T16:41:21.603Z</time>
      </trkpt>
      <trkpt lat="47.580194" lon="7.908192">
        <ele>286.447813</ele>
        <time>2021-11-21T16:41:25.536Z</time>
      </trkpt>
      <trkpt lat="47.580105" lon="7.908168">
        <ele>286.444922</ele>
        <time>2021-11-21T16:41:27.084Z</time>
      </trkpt>
      <trkpt lat="47.579708" lon="7.908314">
        <ele>286.431849</ele>
        <time>2021-11-21T16:41:33.493Z</time>
      </trkpt>
      <trkpt lat="47.579056" lon="7.908962">
        <ele>286.406762</ele>
        <time>2021-11-21T16:41:44.101Z</time>
      </trkpt>
      <trkpt lat="47.578895" lon="7.909087">
        <ele>286.400954</ele>
        <time>2021-11-21T16:41:46.299Z</time>
      </trkpt>
      <trkpt lat="47.577771" lon="7.909710">
        <ele>285.820571</ele>
        <time>2021-11-21T16:42:01.901Z</time>
      </trkpt>
      <trkpt lat="47.577424" lon="7.909886">
        <ele>285.639838</ele>
        <time>2021-11-21T16:42:06.830Z</time>
      </trkpt>
      <trkpt lat="47.576932" lon="7.910134">
        <ele>285.528637</ele>
        <time>2021-11-21T16:42:14.126Z</time>
      </trkpt>
      <trkpt lat="47.575854" lon="7.910743">
        <ele>285.593341</ele>
        <time>2021-11-21T16:42:31.359Z</time>
      </trkpt>
      <trkpt lat="47.575539" lon="7.910898">
        <ele>285.611956</ele>
        <time>2021-11-21T16:42:36.750Z</time>
      </trkpt>
      <trkpt lat="47.575508" lon="7.910912">
        <ele>285.613773</ele>
        <time>2021-11-21T16:42:37.220Z</time>
      </trkpt>
      <trkpt lat="47.574901" lon="7.911251">
        <ele>285.990769</ele>
        <time>2021-11-21T16:42:48.087Z</time>
      </trkpt>
      <trkpt lat="47.574566" lon="7.911447">
        <ele>286.205096</ele>
        <time>2021-11-21T16:42:54.276Z</time>
      </trkpt>
      <trkpt lat="47.573998" lon="7.911915">
        <ele>286.591825</ele>
        <time>2021-11-21T16:43:05.695Z</time>
      </trkpt>
      <trkpt lat="47.573759" lon="7.912034">
        <ele>286.741188</ele>
        <time>2021-11-21T16:43:10.385Z</time>
      </trkpt>
      <trkpt lat="47.572921" lon="7.912369">
        <ele>287.251558</ele>
        <time>2021-11-21T16:43:25.879Z</time>
      </trkpt>
      <trkpt lat="47.572843" lon="7.912399">
        <ele>287.298943</ele>
        <time>2021-11-21T16:43:27.484Z</time>
      </trkpt>
      <trkpt lat="47.572195" lon="7.912650">
        <ele>287.692778</ele>
        <time>2021-11-21T16:43:38.465Z</time>
      </trkpt>
      <trkpt lat="47.571842" lon="7.912780">
        <ele>287.730241</ele>
        <time>2021-11-21T16:43:44.099Z</time>
      </trkpt>
      <trkpt lat="47.571815" lon="7.912822">
        <ele>287.728487</ele>
        <time>2021-11-21T16:43:44.843Z</time>
      </trkpt>
      <trkpt lat="47.571801" lon="7.912878">
        <ele>287.726682</ele>
        <time>2021-11-21T16:43:45.463Z</time>
      </trkpt>
      <trkpt lat="47.571807" lon="7.913030">
        <ele>287.722080</ele>
        <time>2021-11-21T16:43:46.979Z</time>
      </trkpt>
      <trkpt lat="47.571638" lon="7.913041">
        <ele>287.714500</ele>
        <time>2021-11-21T16:43:49.362Z</time>
      </trkpt>
      <trkpt lat="47.569682" lon="7.913220">
        <ele>287.701461</ele>
        <time>2021-11-21T16:44:17.025Z</time>
      </trkpt>
      <trkpt lat="47.569155" lon="7.913298">
        <ele>287.727779</ele>
        <time>2021-11-21T16:44:25.195Z</time>
      </trkpt>
      <trkpt lat="47.568566" lon="7.913414">
        <ele>287.806430</ele>
        <time>2021-11-21T16:44:34.936Z</time>
      </trkpt>
      <trkpt lat="47.568301" lon="7.913554">
        <ele>287.939210</ele>
        <time>2021-11-21T16:44:39.713Z</time>
      </trkpt>
      <trkpt lat="47.567374" lon="7.914028">
        <ele>288.402030</ele>
        <time>2021-11-21T16:44:56.206Z</time>
      </trkpt>
      <trkpt lat="47.567335" lon="7.914048">
        <ele>288.421507</ele>
        <time>2021-11-21T16:44:57.061Z</time>
      </trkpt>
      <trkpt lat="47.566984" lon="7.914229">
        <ele>288.596909</ele>
        <time>2021-11-21T16:45:03.287Z</time>
      </trkpt>
      <trkpt lat="47.566601" lon="7.914411">
        <ele>288.613726</ele>
        <time>2021-11-21T16:45:09.751Z</time>
      </trkpt>
      <trkpt lat="47.566534" lon="7.914439">
        <ele>288.616072</ele>
        <time>2021-11-21T16:45:10.810Z</time>
      </trkpt>
      <trkpt lat="47.566489" lon="7.914461">
        <ele>288.617669</ele>
        <time>2021-11-21T16:45:11.519Z</time>
      </trkpt>
      <trkpt lat="47.566474" lon="7.914468">
        <ele>288.618199</ele>
        <time>2021-11-21T16:45:11.767Z</time>
      </trkpt>
      <trkpt lat="47.566250" lon="7.914580">
        <ele>288.626164</ele>
        <time>2021-11-21T16:45:15.464Z</time>
      </trkpt>
      <trkpt lat="47.566096" lon="7.914676">
        <ele>288.631794</ele>
        <time>2021-11-21T16:45:17.901Z</time>
      </trkpt>
      <trkpt lat="47.566025" lon="7.914720">
        <ele>288.634387</ele>
        <time>2021-11-21T16:45:19.004Z</time>
      </trkpt>
      <trkpt lat="47.565995" lon="7.914739">
        <ele>288.635486</ele>
        <time>2021-11-21T16:45:19.555Z</time>
      </trkpt>
      <trkpt lat="47.565830" lon="7.914880">
        <ele>288.641904</ele>
        <time>2021-11-21T16:45:22.291Z</time>
      </trkpt>
      <trkpt lat="47.565748" lon="7.914949">
        <ele>288.645081</ele>
        <time>2021-11-21T16:45:23.594Z</time>
      </trkpt>
      <trkpt lat="47.565672" lon="7.915025">
        <ele>288.648170</ele>
        <time>2021-11-21T16:45:24.869Z</time>
      </trkpt>
      <trkpt lat="47.565627" lon="7.915066">
        <ele>288.649950</ele>
        <time>2021-11-21T16:45:25.616Z</time>
      </trkpt>
      <trkpt lat="47.564899" lon="7.915798">
        <ele>288.573061</ele>
        <time>2021-11-21T16:45:37.908Z</time>
      </trkpt>
      <trkpt lat="47.564526" lon="7.916174">
        <ele>288.501025</ele>
        <time>2021-11-21T16:45:44.156Z</time>
      </trkpt>
      <trkpt lat="47.564500" lon="7.916200">
        <ele>288.496016</ele>
        <time>2021-11-21T16:45:44.593Z</time>
      </trkpt>
      <trkpt lat="47.564482" lon="7.916219">
        <ele>288.492487</ele>
        <time>2021-11-21T16:45:44.911Z</time>
      </trkpt>
      <trkpt lat="47.563485" lon="7.917258">
        <ele>288.766027</ele>
        <time>2021-11-21T16:46:02.672Z</time>
      </trkpt>
      <trkpt lat="47.563304" lon="7.917434">
        <ele>288.944540</ele>
        <time>2021-11-21T16:46:06.346Z</time>
      </trkpt>
      <trkpt lat="47.562783" lon="7.917983">
        <ele>289.471692</ele>
        <time>2021-11-21T16:46:18.535Z</time>
      </trkpt>
      <trkpt lat="47.562766" lon="7.918001">
        <ele>289.488921</ele>
        <time>2021-11-21T16:46:19.063Z</time>
      </trkpt>
      <trkpt lat="47.562491" lon="7.918206">
        <ele>289.742760</ele>
        <time>2021-11-21T16:46:25.380Z</time>
      </trkpt>
      <trkpt lat="47.562330" lon="7.918325">
        <ele>289.906268</ele>
        <time>2021-11-21T16:46:29.204Z</time>
      </trkpt>
      <trkpt lat="47.562192" lon="7.918413">
        <ele>290.085131</ele>
        <time>2021-11-21T16:46:32.292Z</time>
      </trkpt>
      <trkpt lat="47.562098" lon="7.918473">
        <ele>290.206984</ele>
        <time>2021-11-21T16:46:34.491Z</time>
      </trkpt>
      <trkpt lat="47.561792" lon="7.918633">
        <ele>290.593309</ele>
        <time>2021-11-21T16:46:41.203Z</time>
      </trkpt>
      <trkpt lat="47.561405" lon="7.918835">
        <ele>291.081803</ele>
        <time>2021-11-21T16:46:49.925Z</time>
      </trkpt>
      <trkpt lat="47.561244" lon="7.918902">
        <ele>291.280899</ele>
        <time>2021-11-21T16:46:53.445Z</time>
      </trkpt>
      <trkpt lat="47.558098" lon="7.920440">
        <ele>293.291446</ele>
        <time>2021-11-21T16:47:49.937Z</time>
      </trkpt>
      <trkpt lat="47.557147" lon="7.921064">
        <ele>293.583546</ele>
        <time>2021-11-21T16:48:05.584Z</time>
      </trkpt>
      <trkpt lat="47.556542" lon="7.921551">
        <ele>293.642285</ele>
        <time>2021-11-21T16:48:15.842Z</time>
      </trkpt>
      <trkpt lat="47.555272" lon="7.922934">
        <ele>293.831599</ele>
        <time>2021-11-21T16:48:39.884Z</time>
      </trkpt>
      <trkpt lat="47.554705" lon="7.923835">
        <ele>293.976223</ele>
        <time>2021-11-21T16:48:53.036Z</time>
      </trkpt>
      <trkpt lat="47.554226" lon="7.924713">
        <ele>294.062573</ele>
        <time>2021-11-21T16:49:04.849Z</time>
      </trkpt>
      <trkpt lat="47.553834" lon="7.925632">
        <ele>294.108256</ele>
        <time>2021-11-21T16:49:16.245Z</time>
      </trkpt>
      <trkpt lat="47.553539" lon="7.926451">
        <ele>294.147265</ele>
        <time>2021-11-21T16:49:25.614Z</time>
      </trkpt>
      <trkpt lat="47.553408" lon="7.926803">
        <ele>294.071985</ele>
        <time>2021-11-21T16:49:29.417Z</time>
      </trkpt>
      <trkpt lat="47.553381" lon="7.926895">
        <ele>294.050881</ele>
        <time>2021-11-21T16:49:30.354Z</time>
      </trkpt>
      <trkpt lat="47.553248" lon="7.927068">
        <ele>293.995716</ele>
        <time>2021-11-21T16:49:32.755Z</time>
      </trkpt>
      <trkpt lat="47.553139" lon="7.927147">
        <ele>293.957894</ele>
        <time>2021-11-21T16:49:34.421Z</time>
      </trkpt>
      <trkpt lat="47.553077" lon="7.927196">
        <ele>293.935991</ele>
        <time>2021-11-21T16:49:35.344Z</time>
      </trkpt>
      <trkpt lat="47.552729" lon="7.927061">
        <ele>293.823863</ele>
        <time>2021-11-21T16:49:40.098Z</time>
      </trkpt>
      <trkpt lat="47.552388" lon="7.926860">
        <ele>293.709471</ele>
        <time>2021-11-21T16:49:45.012Z</time>
      </trkpt>
      <trkpt lat="47.552250" lon="7.926787">
        <ele>293.663797</ele>
        <time>2021-11-21T16:49:47.021Z</time>
      </trkpt>
      <trkpt lat="47.551788" lon="7.926512">
        <ele>293.485531</ele>
        <time>2021-11-21T16:49:54.099Z</time>
      </trkpt>
      <trkpt lat="47.551676" lon="7.926477">
        <ele>293.439506</ele>
        <time>2021-11-21T16:49:55.576Z</time>
      </trkpt>
      <trkpt lat="47.551455" lon="7.926550">
        <ele>293.348462</ele>
        <time>2021-11-21T16:49:58.869Z</time>
      </trkpt>
      <trkpt lat="47.551423" lon="7.926561">
        <ele>293.335254</ele>
        <time>2021-11-21T16:49:59.333Z</time>
      </trkpt>
      <trkpt lat="47.551345" lon="7.926636">
        <ele>293.297865</ele>
        <time>2021-11-21T16:50:00.517Z</time>
      </trkpt>
      <trkpt lat="47.551300" lon="7.926708">
        <ele>293.271234</ele>
        <time>2021-11-21T16:50:01.449Z</time>
      </trkpt>
      <trkpt lat="47.551262" lon="7.926787">
        <ele>293.244907</ele>
        <time>2021-11-21T16:50:02.379Z</time>
      </trkpt>
      <trkpt lat="47.551236" lon="7.926890">
        <ele>293.215064</ele>
        <time>2021-11-21T16:50:03.475Z</time>
      </trkpt>
      <trkpt lat="47.551209" lon="7.927048">
        <ele>293.170832</ele>
        <time>2021-11-21T16:50:04.908Z</time>
      </trkpt>
      <trkpt lat="47.551183" lon="7.927256">
        <ele>293.113425</ele>
        <time>2021-11-21T16:50:06.871Z</time>
      </trkpt>
      <trkpt lat="47.551129" lon="7.927498">
        <ele>293.044253</ele>
        <time>2021-11-21T16:50:09.219Z</time>
      </trkpt>
      <trkpt lat="47.551096" lon="7.927696">
        <ele>292.988905</ele>
        <time>2021-11-21T16:50:10.953Z</time>
      </trkpt>
      <trkpt lat="47.551076" lon="7.927850">
        <ele>292.946345</ele>
        <time>2021-11-21T16:50:12.405Z</time>
      </trkpt>
      <trkpt lat="47.550955" lon="7.927822">
        <ele>292.897103</ele>
        <time>2021-11-21T16:50:14.050Z</time>
      </trkpt>
      <trkpt lat="47.550669" lon="7.927757">
        <ele>292.538004</ele>
        <time>2021-11-21T16:50:17.876Z</time>
      </trkpt>
      <trkpt lat="47.550481" lon="7.927724">
        <ele>292.242400</ele>
        <time>2021-11-21T16:50:20.312Z</time>
      </trkpt>
      <trkpt lat="47.550381" lon="7.927709">
        <ele>292.085457</ele>
        <time>2021-11-21T16:50:21.498Z</time>
      </trkpt>
      <trkpt lat="47.550041" lon="7.927651">
        <ele>291.551059</ele>
        <time>2021-11-21T16:50:25.462Z</time>
      </trkpt>
      <trkpt lat="47.549697" lon="7.927581">
        <ele>291.008880</ele>
        <time>2021-11-21T16:50:29.375Z</time>
      </trkpt>
      <trkpt lat="47.549059" lon="7.927444">
        <ele>289.992188</ele>
        <time>2021-11-21T16:50:36.340Z</time>
      </trkpt>
      <trkpt lat="47.548912" lon="7.927437">
        <ele>289.719819</ele>
        <time>2021-11-21T16:50:37.889Z</time>
      </trkpt>
      <trkpt lat="47.548777" lon="7.927430">
        <ele>289.469660</ele>
        <time>2021-11-21T16:50:39.193Z</time>
      </trkpt>
      <trkpt lat="47.548534" lon="7.927518">
        <ele>289.006401</ele>
        <time>2021-11-21T16:50:41.945Z</time>
      </trkpt>
      <trkpt lat="47.548298" lon="7.927820">
        <ele>288.428898</ele>
        <time>2021-11-21T16:50:45.637Z</time>
      </trkpt>
      <trkpt lat="47.548275" lon="7.927880">
        <ele>288.342649</ele>
        <time>2021-11-21T16:50:46.050Z</time>
      </trkpt>
      <trkpt lat="47.548212" lon="7.927803">
        <ele>288.191402</ele>
        <time>2021-11-21T16:50:46.847Z</time>
      </trkpt>
      <trkpt lat="47.548282" lon="7.927659">
        <ele>287.969584</ele>
        <time>2021-11-21T16:50:50.007Z</time>
      </trkpt>
      <trkpt lat="47.548328" lon="7.927612">
        <ele>287.866104</ele>
        <time>2021-11-21T16:50:51.034Z</time>
      </trkpt>
      <trkpt lat="47.548282" lon="7.927659">
        <ele>287.762623</ele>
        <time>2021-11-21T16:50:51.948Z</time>
      </trkpt>
      <trkpt lat="47.548212" lon="7.927803">
        <ele>287.540805</ele>
        <time>2021-11-21T16:50:53.545Z</time>
      </trkpt>
      <trkpt lat="47.548275" lon="7.927880">
        <ele>287.389559</ele>
        <time>2021-11-21T16:50:55.225Z</time>
      </trkpt>
      <trkpt lat="47.548228" lon="7.928033">
        <ele>287.179438</ele>
        <time>2021-11-21T16:50:57.121Z</time>
      </trkpt>
      <trkpt lat="47.548186" lon="7.928343">
        <ele>286.784217</ele>
        <time>2021-11-21T16:50:59.292Z</time>
      </trkpt>
      <trkpt lat="47.548192" lon="7.928866">
        <ele>286.540901</ele>
        <time>2021-11-21T16:51:03.823Z</time>
      </trkpt>
      <trkpt lat="47.548226" lon="7.929841">
        <ele>286.162255</ele>
        <time>2021-11-21T16:51:12.854Z</time>
      </trkpt>
      <trkpt lat="47.548236" lon="7.930144">
        <ele>286.044600</ele>
        <time>2021-11-21T16:51:15.833Z</time>
      </trkpt>
      <trkpt lat="47.548241" lon="7.930335">
        <ele>285.970467</ele>
        <time>2021-11-21T16:51:17.687Z</time>
      </trkpt>
      <trkpt lat="47.548252" lon="7.930989">
        <ele>285.716743</ele>
        <time>2021-11-21T16:51:23.686Z</time>
      </trkpt>
      <trkpt lat="47.548144" lon="7.932614">
        <ele>284.940912</ele>
        <time>2021-11-21T16:51:37.745Z</time>
      </trkpt>
      <trkpt lat="47.547956" lon="7.933604">
        <ele>284.448625</ele>
        <time>2021-11-21T16:51:46.301Z</time>
      </trkpt>
      <trkpt lat="47.547663" lon="7.934665">
        <ele>284.071129</ele>
        <time>2021-11-21T16:51:56.352Z</time>
      </trkpt>
      <trkpt lat="47.547539" lon="7.935068">
        <ele>283.929396</ele>
        <time>2021-11-21T16:52:00.360Z</time>
      </trkpt>
      <trkpt lat="47.547523" lon="7.935115">
        <ele>283.912550</ele>
        <time>2021-11-21T16:52:00.853Z</time>
      </trkpt>
      <trkpt lat="47.547020" lon="7.936617">
        <ele>283.531913</ele>
        <time>2021-11-21T16:52:16.497Z</time>
      </trkpt>
      <trkpt lat="47.546895" lon="7.937196">
        <ele>283.498924</ele>
        <time>2021-11-21T16:52:22.362Z</time>
      </trkpt>
      <trkpt lat="47.546890" lon="7.937602">
        <ele>283.476887</ele>
        <time>2021-11-21T16:52:26.398Z</time>
      </trkpt>
      <trkpt lat="47.546915" lon="7.937800">
        <ele>283.465955</ele>
        <time>2021-11-21T16:52:28.270Z</time>
      </trkpt>
      <trkpt lat="47.546969" lon="7.938023">
        <ele>283.453098</ele>
        <time>2021-11-21T16:52:30.628Z</time>
      </trkpt>
      <trkpt lat="47.547044" lon="7.938237">
        <ele>283.440013</ele>
        <time>2021-11-21T16:52:33.132Z</time>
      </trkpt>
      <trkpt lat="47.547115" lon="7.938377">
        <ele>283.430510</ele>
        <time>2021-11-21T16:52:34.935Z</time>
      </trkpt>
      <trkpt lat="47.547174" lon="7.938475">
        <ele>283.423383</ele>
        <time>2021-11-21T16:52:36.291Z</time>
      </trkpt>
      <trkpt lat="47.547474" lon="7.938844">
        <ele>283.579193</ele>
        <time>2021-11-21T16:52:42.292Z</time>
      </trkpt>
      <trkpt lat="47.548085" lon="7.939422">
        <ele>283.923247</ele>
        <time>2021-11-21T16:52:53.974Z</time>
      </trkpt>
      <trkpt lat="47.548129" lon="7.939460">
        <ele>283.947419</ele>
        <time>2021-11-21T16:52:54.862Z</time>
      </trkpt>
      <trkpt lat="47.548150" lon="7.939478">
        <ele>283.958933</ele>
        <time>2021-11-21T16:52:55.282Z</time>
      </trkpt>
      <trkpt lat="47.548194" lon="7.939601">
        <ele>284.003527</ele>
        <time>2021-11-21T16:52:57.027Z</time>
      </trkpt>
      <trkpt lat="47.548314" lon="7.939849">
        <ele>284.101277</ele>
        <time>2021-11-21T16:53:00.452Z</time>
      </trkpt>
      <trkpt lat="47.548349" lon="7.940187">
        <ele>284.210819</ele>
        <time>2021-11-21T16:53:04.613Z</time>
      </trkpt>
      <trkpt lat="47.548195" lon="7.940950">
        <ele>284.672697</ele>
        <time>2021-11-21T16:53:14.741Z</time>
      </trkpt>
      <trkpt lat="47.547852" lon="7.942144">
        <ele>285.533383</ele>
        <time>2021-11-21T16:53:31.486Z</time>
      </trkpt>
      <trkpt lat="47.547772" lon="7.942416">
        <ele>285.730177</ele>
        <time>2021-11-21T16:53:35.343Z</time>
      </trkpt>
      <trkpt lat="47.547436" lon="7.943731">
        <ele>286.344705</ele>
        <time>2021-11-21T16:53:52.561Z</time>
      </trkpt>
      <trkpt lat="47.547380" lon="7.943952">
        <ele>286.421278</ele>
        <time>2021-11-21T16:53:55.373Z</time>
      </trkpt>
      <trkpt lat="47.547280" lon="7.944357">
        <ele>286.561167</ele>
        <time>2021-11-21T16:54:00.281Z</time>
      </trkpt>
      <trkpt lat="47.547254" lon="7.944465">
        <ele>286.598362</ele>
        <time>2021-11-21T16:54:01.508Z</time>
      </trkpt>
      <trkpt lat="47.547245" lon="7.944501">
        <ele>286.610815</ele>
        <time>2021-11-21T16:54:01.903Z</time>
      </trkpt>
      <trkpt lat="47.547186" lon="7.944630">
        <ele>286.661361</ele>
        <time>2021-11-21T16:54:03.490Z</time>
      </trkpt>
      <trkpt lat="47.547164" lon="7.944724">
        <ele>286.693634</ele>
        <time>2021-11-21T16:54:04.549Z</time>
      </trkpt>
      <trkpt lat="47.547155" lon="7.944757">
        <ele>286.705180</ele>
        <time>2021-11-21T16:54:04.965Z</time>
      </trkpt>
      <trkpt lat="47.547020" lon="7.945146">
        <ele>286.847066</ele>
        <time>2021-11-21T16:54:09.297Z</time>
      </trkpt>
      <trkpt lat="47.546975" lon="7.945238">
        <ele>286.883921</ele>
        <time>2021-11-21T16:54:10.408Z</time>
      </trkpt>
      <trkpt lat="47.546915" lon="7.945468">
        <ele>287.095955</ele>
        <time>2021-11-21T16:54:12.639Z</time>
      </trkpt>
      <trkpt lat="47.546868" lon="7.945669">
        <ele>287.318686</ele>
        <time>2021-11-21T16:54:14.869Z</time>
      </trkpt>
      <trkpt lat="47.546859" lon="7.945706">
        <ele>287.359866</ele>
        <time>2021-11-21T16:54:15.330Z</time>
      </trkpt>
      <trkpt lat="47.546795" lon="7.946005">
        <ele>287.688303</ele>
        <time>2021-11-21T16:54:18.620Z</time>
      </trkpt>
      <trkpt lat="47.546735" lon="7.946282">
        <ele>287.992909</ele>
        <time>2021-11-21T16:54:22.299Z</time>
      </trkpt>
      <trkpt lat="47.546664" lon="7.946504">
        <ele>288.250130</ele>
        <time>2021-11-21T16:54:25.334Z</time>
      </trkpt>
      <trkpt lat="47.546655" lon="7.946544">
        <ele>288.294279</ele>
        <time>2021-11-21T16:54:25.898Z</time>
      </trkpt>
      <trkpt lat="47.546592" lon="7.946809">
        <ele>288.588459</ele>
        <time>2021-11-21T16:54:30.021Z</time>
      </trkpt>
      <trkpt lat="47.546633" lon="7.946946">
        <ele>288.745375</ele>
        <time>2021-11-21T16:54:32.202Z</time>
      </trkpt>
      <trkpt lat="47.546648" lon="7.947009">
        <ele>288.815324</ele>
        <time>2021-11-21T16:54:33.127Z</time>
      </trkpt>
      <trkpt lat="47.546651" lon="7.947115">
        <ele>288.926411</ele>
        <time>2021-11-21T16:54:34.850Z</time>
      </trkpt>
      <trkpt lat="47.546572" lon="7.947545">
        <ele>289.393031</ele>
        <time>2021-11-21T16:54:42.043Z</time>
      </trkpt>
      <trkpt lat="47.546159" lon="7.949303">
        <ele>293.632908</ele>
        <time>2021-11-21T16:55:20.250Z</time>
      </trkpt>
      <trkpt lat="47.545949" lon="7.950185">
        <ele>295.974033</ele>
        <time>2021-11-21T16:55:40.523Z</time>
      </trkpt>
      <trkpt lat="47.545884" lon="7.950363">
        <ele>296.408143</ele>
        <time>2021-11-21T16:55:44.455Z</time>
      </trkpt>
      <trkpt lat="47.545822" lon="7.950627">
        <ele>296.669643</ele>
        <time>2021-11-21T16:55:49.758Z</time>
      </trkpt>
      <trkpt lat="47.545810" lon="7.950694">
        <ele>296.734492</ele>
        <time>2021-11-21T16:55:50.989Z</time>
      </trkpt>
      <trkpt lat="47.545763" lon="7.950733">
        <ele>296.809154</ele>
        <time>2021-11-21T16:55:52.496Z</time>
      </trkpt>
      <trkpt lat="47.545659" lon="7.950771">
        <ele>296.957614</ele>
        <time>2021-11-21T16:55:54.918Z</time>
      </trkpt>
      <trkpt lat="47.545625" lon="7.950771">
        <ele>297.004736</ele>
        <time>2021-11-21T16:55:55.815Z</time>
      </trkpt>
      <trkpt lat="47.545567" lon="7.950765">
        <ele>297.085318</ele>
        <time>2021-11-21T16:55:57.228Z</time>
      </trkpt>
      <trkpt lat="47.545494" lon="7.950684">
        <ele>297.211725</ele>
        <time>2021-11-21T16:55:59.366Z</time>
      </trkpt>
      <trkpt lat="47.545434" lon="7.950668">
        <ele>297.296219</ele>
        <time>2021-11-21T16:56:00.845Z</time>
      </trkpt>
      <trkpt lat="47.545166" lon="7.950366">
        <ele>297.762898</ele>
        <time>2021-11-21T16:56:07.616Z</time>
      </trkpt>
      <trkpt lat="47.544901" lon="7.950044">
        <ele>298.237916</ele>
        <time>2021-11-21T16:56:13.251Z</time>
      </trkpt>
      <trkpt lat="47.544521" lon="7.949558">
        <ele>298.896564</ele>
        <time>2021-11-21T16:56:19.948Z</time>
      </trkpt>
      <trkpt lat="47.544239" lon="7.949202">
        <ele>299.159045</ele>
        <time>2021-11-21T16:56:24.911Z</time>
      </trkpt>
      <trkpt lat="47.543864" lon="7.948694">
        <ele>299.519042</ele>
        <time>2021-11-21T16:56:32.875Z</time>
      </trkpt>
      <trkpt lat="47.543760" lon="7.948548">
        <ele>299.620548</ele>
        <time>2021-11-21T16:56:35.117Z</time>
      </trkpt>
      <trkpt lat="47.543579" lon="7.948287">
        <ele>299.799494</ele>
        <time>2021-11-21T16:56:40.834Z</time>
      </trkpt>
      <trkpt lat="47.543532" lon="7.948214">
        <ele>299.847738</ele>
        <time>2021-11-21T16:56:41.960Z</time>
      </trkpt>
      <trkpt lat="47.543435" lon="7.948000">
        <ele>299.971009</ele>
        <time>2021-11-21T16:56:45.022Z</time>
      </trkpt>
      <trkpt lat="47.543407" lon="7.947938">
        <ele>300.006683</ele>
        <time>2021-11-21T16:56:46.880Z</time>
      </trkpt>
      <trkpt lat="47.543280" lon="7.947656">
        <ele>300.271064</ele>
        <time>2021-11-21T16:56:51.366Z</time>
      </trkpt>
      <trkpt lat="47.543142" lon="7.947250">
        <ele>301.092313</ele>
        <time>2021-11-21T16:56:58.830Z</time>
      </trkpt>
      <trkpt lat="47.543086" lon="7.947052">
        <ele>301.480164</ele>
        <time>2021-11-21T16:57:02.260Z</time>
      </trkpt>
      <trkpt lat="47.543056" lon="7.946935">
        <ele>301.706280</ele>
        <time>2021-11-21T16:57:05.101Z</time>
      </trkpt>
      <trkpt lat="47.543045" lon="7.946881">
        <ele>301.808186</ele>
        <time>2021-11-21T16:57:06.258Z</time>
      </trkpt>
      <trkpt lat="47.542982" lon="7.946547">
        <ele>302.434731</ele>
        <time>2021-11-21T16:57:11.657Z</time>
      </trkpt>
      <trkpt lat="47.542974" lon="7.946495">
        <ele>302.531087</ele>
        <time>2021-11-21T16:57:13.298Z</time>
      </trkpt>
      <trkpt lat="47.542960" lon="7.946400">
        <ele>302.706764</ele>
        <time>2021-11-21T16:57:15.364Z</time>
      </trkpt>
      <trkpt lat="47.542916" lon="7.945730">
        <ele>303.922953</ele>
        <time>2021-11-21T16:57:28.029Z</time>
      </trkpt>
      <trkpt lat="47.542913" lon="7.945267">
        <ele>304.759484</ele>
        <time>2021-11-21T16:57:36.525Z</time>
      </trkpt>
      <trkpt lat="47.543007" lon="7.943867">
        <ele>305.945336</ele>
        <time>2021-11-21T16:57:57.691Z</time>
      </trkpt>
      <trkpt lat="47.543161" lon="7.942213">
        <ele>306.772908</ele>
        <time>2021-11-21T16:58:16.098Z</time>
      </trkpt>
      <trkpt lat="47.543435" lon="7.940670">
        <ele>305.659205</ele>
        <time>2021-11-21T16:58:29.046Z</time>
      </trkpt>
      <trkpt lat="47.543826" lon="7.939433">
        <ele>304.396867</ele>
        <time>2021-11-21T16:58:39.447Z</time>
      </trkpt>
      <trkpt lat="47.544472" lon="7.937932">
        <ele>302.246511</ele>
        <time>2021-11-21T16:58:52.771Z</time>
      </trkpt>
      <trkpt lat="47.544705" lon="7.937395">
        <ele>301.515060</ele>
        <time>2021-11-21T16:58:57.611Z</time>
      </trkpt>
      <trkpt lat="47.544903" lon="7.936917">
        <ele>300.899473</ele>
        <time>2021-11-21T16:59:01.871Z</time>
      </trkpt>
      <trkpt lat="47.545074" lon="7.936484">
        <ele>300.348829</ele>
        <time>2021-11-21T16:59:05.702Z</time>
      </trkpt>
      <trkpt lat="47.545457" lon="7.935110">
        <ele>298.924153</ele>
        <time>2021-11-21T16:59:17.070Z</time>
      </trkpt>
      <trkpt lat="47.545674" lon="7.933625">
        <ele>298.544983</ele>
        <time>2021-11-21T16:59:30.150Z</time>
      </trkpt>
      <trkpt lat="47.545702" lon="7.933290">
        <ele>298.460745</ele>
        <time>2021-11-21T16:59:33.731Z</time>
      </trkpt>
      <trkpt lat="47.545724" lon="7.932758">
        <ele>298.327735</ele>
        <time>2021-11-21T16:59:39.997Z</time>
      </trkpt>
      <trkpt lat="47.545721" lon="7.931992">
        <ele>299.201924</ele>
        <time>2021-11-21T16:59:50.037Z</time>
      </trkpt>
      <trkpt lat="47.545696" lon="7.931497">
        <ele>299.797129</ele>
        <time>2021-11-21T16:59:57.242Z</time>
      </trkpt>
      <trkpt lat="47.545661" lon="7.930955">
        <ele>300.449999</ele>
        <time>2021-11-21T17:00:05.937Z</time>
      </trkpt>
      <trkpt lat="47.545563" lon="7.929641">
        <ele>301.646454</ele>
        <time>2021-11-21T17:00:28.277Z</time>
      </trkpt>
      <trkpt lat="47.545475" lon="7.928419">
        <ele>302.018350</ele>
        <time>2021-11-21T17:00:44.580Z</time>
      </trkpt>
      <trkpt lat="47.545421" lon="7.927686">
        <ele>302.241485</ele>
        <time>2021-11-21T17:00:50.683Z</time>
      </trkpt>
      <trkpt lat="47.545406" lon="7.927306">
        <ele>302.068785</ele>
        <time>2021-11-21T17:00:53.587Z</time>
      </trkpt>
      <trkpt lat="47.545407" lon="7.927001">
        <ele>301.403606</ele>
        <time>2021-11-21T17:00:55.874Z</time>
      </trkpt>
      <trkpt lat="47.545409" lon="7.926773">
        <ele>300.906321</ele>
        <time>2021-11-21T17:00:57.503Z</time>
      </trkpt>
      <trkpt lat="47.545417" lon="7.925848">
        <ele>298.888834</ele>
        <time>2021-11-21T17:01:03.838Z</time>
      </trkpt>
      <trkpt lat="47.545446" lon="7.925350">
        <ele>297.798717</ele>
        <time>2021-11-21T17:01:07.130Z</time>
      </trkpt>
      <trkpt lat="47.545466" lon="7.924880">
        <ele>296.771665</ele>
        <time>2021-11-21T17:01:10.183Z</time>
      </trkpt>
      <trkpt lat="47.545481" lon="7.924396">
        <ele>295.787895</ele>
        <time>2021-11-21T17:01:13.267Z</time>
      </trkpt>
      <trkpt lat="47.545521" lon="7.923709">
        <ele>294.421889</ele>
        <time>2021-11-21T17:01:17.792Z</time>
      </trkpt>
      <trkpt lat="47.545536" lon="7.923407">
        <ele>293.822007</ele>
        <time>2021-11-21T17:01:20.181Z</time>
      </trkpt>
      <trkpt lat="47.545553" lon="7.923142">
        <ele>293.294675</ele>
        <time>2021-11-21T17:01:21.902Z</time>
      </trkpt>
      <trkpt lat="47.545587" lon="7.922895">
        <ele>292.795296</ele>
        <time>2021-11-21T17:01:24.304Z</time>
      </trkpt>
      <trkpt lat="47.545641" lon="7.922610">
        <ele>292.208889</ele>
        <time>2021-11-21T17:01:26.302Z</time>
      </trkpt>
      <trkpt lat="47.545690" lon="7.922369">
        <ele>291.710280</ele>
        <time>2021-11-21T17:01:28.993Z</time>
      </trkpt>
      <trkpt lat="47.545699" lon="7.922325">
        <ele>291.619202</ele>
        <time>2021-11-21T17:01:29.254Z</time>
      </trkpt>
      <trkpt lat="47.545714" lon="7.922249">
        <ele>291.462342</ele>
        <time>2021-11-21T17:01:29.844Z</time>
      </trkpt>
      <trkpt lat="47.545778" lon="7.921947">
        <ele>291.129096</ele>
        <time>2021-11-21T17:01:33.000Z</time>
      </trkpt>
      <trkpt lat="47.545810" lon="7.921755">
        <ele>291.027727</ele>
        <time>2021-11-21T17:01:34.358Z</time>
      </trkpt>
      <trkpt lat="47.545881" lon="7.921096">
        <ele>290.685667</ele>
        <time>2021-11-21T17:01:39.706Z</time>
      </trkpt>
      <trkpt lat="47.545913" lon="7.920765">
        <ele>290.514275</ele>
        <time>2021-11-21T17:01:42.573Z</time>
      </trkpt>
      <trkpt lat="47.545973" lon="7.920313">
        <ele>290.278156</ele>
        <time>2021-11-21T17:01:47.721Z</time>
      </trkpt>
      <trkpt lat="47.546128" lon="7.919617">
        <ele>289.902494</ele>
        <time>2021-11-21T17:01:54.184Z</time>
      </trkpt>
      <trkpt lat="47.546262" lon="7.919081">
        <ele>289.706294</ele>
        <time>2021-11-21T17:02:00.182Z</time>
      </trkpt>
      <trkpt lat="47.546821" lon="7.916867">
        <ele>288.979133</ele>
        <time>2021-11-21T17:02:20.935Z</time>
      </trkpt>
      <trkpt lat="47.547032" lon="7.916218">
        <ele>288.846890</ele>
        <time>2021-11-21T17:02:27.426Z</time>
      </trkpt>
      <trkpt lat="47.547091" lon="7.916039">
        <ele>288.810321</ele>
        <time>2021-11-21T17:02:29.243Z</time>
      </trkpt>
      <trkpt lat="47.547113" lon="7.915971">
        <ele>288.796478</ele>
        <time>2021-11-21T17:02:29.842Z</time>
      </trkpt>
      <trkpt lat="47.547423" lon="7.915080">
        <ele>288.612459</ele>
        <time>2021-11-21T17:02:39.486Z</time>
      </trkpt>
      <trkpt lat="47.547994" lon="7.913433">
        <ele>289.102899</ele>
        <time>2021-11-21T17:02:59.206Z</time>
      </trkpt>
      <trkpt lat="47.548027" lon="7.913334">
        <ele>289.148902</ele>
        <time>2021-11-21T17:03:00.565Z</time>
      </trkpt>
      <trkpt lat="47.548412" lon="7.912168">
        <ele>289.734980</ele>
        <time>2021-11-21T17:03:16.968Z</time>
      </trkpt>
      <trkpt lat="47.549012" lon="7.910340">
        <ele>291.305801</ele>
        <time>2021-11-21T17:03:43.931Z</time>
      </trkpt>
      <trkpt lat="47.549102" lon="7.910058">
        <ele>291.546858</ele>
        <time>2021-11-21T17:03:48.110Z</time>
      </trkpt>
      <trkpt lat="47.549195" lon="7.909756">
        <ele>291.853448</ele>
        <time>2021-11-21T17:03:52.360Z</time>
      </trkpt>
      <trkpt lat="47.549242" lon="7.909598">
        <ele>292.049147</ele>
        <time>2021-11-21T17:03:54.668Z</time>
      </trkpt>
      <trkpt lat="47.549309" lon="7.909376">
        <ele>292.324771</ele>
        <time>2021-11-21T17:03:57.697Z</time>
      </trkpt>
      <trkpt lat="47.549520" lon="7.908678">
        <ele>293.191606</ele>
        <time>2021-11-21T17:04:07.692Z</time>
      </trkpt>
      <trkpt lat="47.549539" lon="7.908625">
        <ele>293.259624</ele>
        <time>2021-11-21T17:04:08.453Z</time>
      </trkpt>
      <trkpt lat="47.550497" lon="7.905558">
        <ele>298.534577</ele>
        <time>2021-11-21T17:05:03.265Z</time>
      </trkpt>
      <trkpt lat="47.550283" lon="7.905413">
        <ele>299.170238</ele>
        <time>2021-11-21T17:05:11.431Z</time>
      </trkpt>
      <trkpt lat="47.550067" lon="7.905245">
        <ele>299.935796</ele>
        <time>2021-11-21T17:05:20.117Z</time>
      </trkpt>
      <trkpt lat="47.549867" lon="7.905155">
        <ele>300.737198</ele>
        <time>2021-11-21T17:05:27.746Z</time>
      </trkpt>
      <trkpt lat="47.549868" lon="7.905010">
        <ele>301.112447</ele>
        <time>2021-11-21T17:05:31.151Z</time>
      </trkpt>
      <trkpt lat="47.550025" lon="7.904774">
        <ele>301.969955</ele>
        <time>2021-11-21T17:05:39.302Z</time>
      </trkpt>
      <trkpt lat="47.550302" lon="7.904164">
        <ele>303.872512</ele>
        <time>2021-11-21T17:05:57.601Z</time>
      </trkpt>
      <trkpt lat="47.550498" lon="7.903445">
        <ele>305.879144</ele>
        <time>2021-11-21T17:06:17.173Z</time>
      </trkpt>
      <trkpt lat="47.550688" lon="7.902451">
        <ele>308.524421</ele>
        <time>2021-11-21T17:06:39.722Z</time>
      </trkpt>
      <trkpt lat="47.550757" lon="7.901591">
        <ele>310.735278</ele>
        <time>2021-11-21T17:06:59.518Z</time>
      </trkpt>
      <trkpt lat="47.550769" lon="7.901362">
        <ele>311.321626</ele>
        <time>2021-11-21T17:07:05.426Z</time>
      </trkpt>
      <trkpt lat="47.550801" lon="7.900244">
        <ele>314.257330</ele>
        <time>2021-11-21T17:07:29.823Z</time>
      </trkpt>
      <trkpt lat="47.550819" lon="7.898109">
        <ele>320.184992</ele>
        <time>2021-11-21T17:08:16.863Z</time>
      </trkpt>
      <trkpt lat="47.550648" lon="7.896481">
        <ele>322.665380</ele>
        <time>2021-11-21T17:08:44.518Z</time>
      </trkpt>
      <trkpt lat="47.550639" lon="7.896345">
        <ele>322.850389</ele>
        <time>2021-11-21T17:08:46.894Z</time>
      </trkpt>
      <trkpt lat="47.550660" lon="7.896255">
        <ele>322.979313</ele>
        <time>2021-11-21T17:08:47.694Z</time>
      </trkpt>
      <trkpt lat="47.550838" lon="7.895509">
        <ele>324.050551</ele>
        <time>2021-11-21T17:08:57.862Z</time>
      </trkpt>
      <trkpt lat="47.550878" lon="7.895158">
        <ele>324.490184</ele>
        <time>2021-11-21T17:09:01.925Z</time>
      </trkpt>
      <trkpt lat="47.550908" lon="7.894308">
        <ele>325.449162</ele>
        <time>2021-11-21T17:09:12.397Z</time>
      </trkpt>
      <trkpt lat="47.550892" lon="7.893176">
        <ele>326.724832</ele>
        <time>2021-11-21T17:09:27.114Z</time>
      </trkpt>
      <trkpt lat="47.550904" lon="7.891725">
        <ele>330.602452</ele>
        <time>2021-11-21T17:09:56.876Z</time>
      </trkpt>
      <trkpt lat="47.550915" lon="7.890600">
        <ele>334.510109</ele>
        <time>2021-11-21T17:10:25.717Z</time>
      </trkpt>
      <trkpt lat="47.550833" lon="7.889069">
        <ele>340.531497</ele>
        <time>2021-11-21T17:11:08.350Z</time>
      </trkpt>
      <trkpt lat="47.550831" lon="7.888611">
        <ele>342.452964</ele>
        <time>2021-11-21T17:11:20.920Z</time>
      </trkpt>
      <trkpt lat="47.550789" lon="7.887816">
        <ele>345.798396</ele>
        <time>2021-11-21T17:11:41.532Z</time>
      </trkpt>
      <trkpt lat="47.550758" lon="7.887295">
        <ele>347.954448</ele>
        <time>2021-11-21T17:11:55.354Z</time>
      </trkpt>
      <trkpt lat="47.550677" lon="7.886476">
        <ele>350.943823</ele>
        <time>2021-11-21T17:12:16.842Z</time>
      </trkpt>
      <trkpt lat="47.550548" lon="7.885799">
        <ele>353.484357</ele>
        <time>2021-11-21T17:12:34.045Z</time>
      </trkpt>
      <trkpt lat="47.550391" lon="7.885109">
        <ele>356.114072</ele>
        <time>2021-11-21T17:12:51.683Z</time>
      </trkpt>
      <trkpt lat="47.550332" lon="7.884727">
        <ele>357.477636</ele>
        <time>2021-11-21T17:13:00.373Z</time>
      </trkpt>
      <trkpt lat="47.550234" lon="7.883221">
        <ele>361.429148</ele>
        <time>2021-11-21T17:13:33.205Z</time>
      </trkpt>
      <trkpt lat="47.549927" lon="7.881490">
        <ele>366.116733</ele>
        <time>2021-11-21T17:14:05.468Z</time>
      </trkpt>
      <trkpt lat="47.549726" lon="7.880786">
        <ele>368.127761</ele>
        <time>2021-11-21T17:14:21.445Z</time>
      </trkpt>
      <trkpt lat="47.549327" lon="7.879547">
        <ele>371.711155</ele>
        <time>2021-11-21T17:14:51.229Z</time>
      </trkpt>
      <trkpt lat="47.549318" lon="7.879398">
        <ele>372.078587</ele>
        <time>2021-11-21T17:14:54.417Z</time>
      </trkpt>
      <trkpt lat="47.549140" lon="7.879391">
        <ele>372.726560</ele>
        <time>2021-11-21T17:15:01.288Z</time>
      </trkpt>
      <trkpt lat="47.548718" lon="7.879258">
        <ele>374.296586</ele>
        <time>2021-11-21T17:15:14.958Z</time>
      </trkpt>
      <trkpt lat="47.548422" lon="7.878959">
        <ele>375.600274</ele>
        <time>2021-11-21T17:15:25.605Z</time>
      </trkpt>
      <trkpt lat="47.548234" lon="7.878638">
        <ele>376.644155</ele>
        <time>2021-11-21T17:15:34.037Z</time>
      </trkpt>
      <trkpt lat="47.547992" lon="7.877974">
        <ele>377.763567</ele>
        <time>2021-11-21T17:15:47.135Z</time>
      </trkpt>
      <trkpt lat="47.547574" lon="7.876801">
        <ele>377.278049</ele>
        <time>2021-11-21T17:16:00.898Z</time>
      </trkpt>
      <trkpt lat="47.547126" lon="7.875801">
        <ele>376.509577</ele>
        <time>2021-11-21T17:16:09.681Z</time>
      </trkpt>
      <trkpt lat="47.546309" lon="7.874154">
        <ele>370.247806</ele>
        <time>2021-11-21T17:16:22.869Z</time>
      </trkpt>
      <trkpt lat="47.546135" lon="7.873859">
        <ele>369.047604</ele>
        <time>2021-11-21T17:16:25.251Z</time>
      </trkpt>
      <trkpt lat="47.546077" lon="7.873763">
        <ele>368.719835</ele>
        <time>2021-11-21T17:16:26.062Z</time>
      </trkpt>
      <trkpt lat="47.545934" lon="7.873549">
        <ele>368.719835</ele>
        <time>2021-11-21T17:16:27.922Z</time>
      </trkpt>
      <trkpt lat="47.545746" lon="7.873302">
        <ele>368.719835</ele>
        <time>2021-11-21T17:16:30.325Z</time>
      </trkpt>
      <trkpt lat="47.545515" lon="7.873015">
        <ele>368.719835</ele>
        <time>2021-11-21T17:16:33.151Z</time>
      </trkpt>
      <trkpt lat="47.545478" lon="7.872968">
        <ele>368.719835</ele>
        <time>2021-11-21T17:16:33.624Z</time>
      </trkpt>
      <trkpt lat="47.545375" lon="7.872836">
        <ele>368.719835</ele>
        <time>2021-11-21T17:16:34.860Z</time>
      </trkpt>
      <trkpt lat="47.545131" lon="7.872664">
        <ele>368.719835</ele>
        <time>2021-11-21T17:16:37.539Z</time>
      </trkpt>
      <trkpt lat="47.544883" lon="7.872555">
        <ele>368.719835</ele>
        <time>2021-11-21T17:16:40.006Z</time>
      </trkpt>
      <trkpt lat="47.544883" lon="7.872555">
        <ele>368.719835</ele>
        <time>2021-11-21T17:16:40.153Z</time>
      </trkpt>
    </trkseg>
  </trk>
</gpx>